[[{"header":{"parameterUnit":"m.s-1","parameterCategory":1,"la1":30.6,"la2":29.2853,"lo1":-89.7004,"lo2":-87.6739,"dy":0.0162,"dx":0.0183,"nx":112,"ny":82,"refTime":"2024-04-13T06:00:00:Z","depth":0,"parameterNumber":2,"parameterNumberName":"U-component_of_WINDS"},"data":[0.0,0.0,0.0,0.0,0.0,0.0,0.0,0.0,0.0,0.0,0.0,0.0,0.0,0.0,0.0,0.0,0.0,0.0,0.0,0.0,0.0,0.0,0.0,0.0,0.0,0.0,0.0,0.0,0.0,0.0,0.0,0.0,0.0,0.0,0.0,0.0,0.0,0.0,0.0,0.0,0.0,0.0,0.0,0.0,0.0,0.0,0.0,0.0,0.0,0.0,0.0,0.0,0.0,0.0,0.0,0.0,0.0,0.0,0.0,0.0,0.0,0.0,0.0,0.0,0.0,0.0,0.0,0.0,0.0,0.0,0.0,0.0,0.0,0.0,0.0,0.0,0.0,0.0,0.0,0.0,0.0,0.0,0.0,0.0,0.0,0.0,0.0,0.0,0.0,0.0,-0.0625,-0.1794,-0.2513,-0.3587,-0.5542,-0.5719,-0.5719,-0.5719,0.0,0.0,0.0,0.0,0.0,0.0,0.0,0.0,0.0,0.0,0.0,0.0,0.0,0.0,0.0,0.0,0.0,0.0,0.0,0.0,0.0,0.0,0.0,0.0,0.0,0.0,0.0,0.0,0.0,0.0,0.0,0.0,0.0,0.0,0.0,0.0,0.0,0.0,0.0,0.0,0.0,0.0,0.0,0.0,0.0,0.0,0.0,0.0,0.0,0.0,0.0,0.0,0.0,0.0,0.0,0.0,0.0,0.0,0.0,0.0,0.0,0.0,0.0,0.0,0.0,0.0,0.0,0.0,0.0,0.0,0.0,0.0,0.0,0.0,0.0,0.0,0.0,0.0,0.0,0.0,0.0,0.0,0.0,0.0,0.0,0.0,0.0,0.0,0.0,0.0,0.0,0.0,0.0,0.0,0.0,0.0,0.0,0.0,0.0,0.0,0.0,0.0,0.0,0.0,0.0179,-0.2424,-0.2604,-0.3406,-0.5542,-0.5719,-0.5719,-0.5719,0.0,0.0,0.0,0.0,0.0,0.0,0.0,0.0,0.0,0.0,0.0,0.0,0.0,0.0,0.0,0.0,0.0,0.0,0.0,0.0,0.0,0.0,0.0,0.0,0.0,0.0,0.0,0.0,0.0,0.0,0.0,0.0,0.0,0.0,0.0,0.0,0.0,0.0,0.0,0.0,0.0,0.0,0.0,0.0,0.0,0.0,0.0,0.0,0.0,0.0,0.0,0.0,0.0,0.0,0.0,0.0,0.0,0.0,0.0,0.0,0.0,0.0,0.0,0.0,0.0,0.0,0.0,0.0,0.0,0.0,0.0,0.0,0.0,0.0,0.0,0.0,0.0,0.0,0.0,0.0,0.0,0.0,0.0,0.0,0.0,0.0,0.0,0.0,0.0,0.0,0.0,0.0,0.0,0.0,0.0,0.0,0.0,0.0,0.0,0.0,0.0,0.0,0.0,-0.0,-0.1074,-0.2513,-0.3048,-0.3939,-0.5542,-0.6163,-0.6251,-0.5719,-0.5539,0.0,0.0,0.0,0.0,0.0,0.0,0.0,0.0,0.0,0.0,0.0,0.0,0.0,0.0,0.0,0.0,0.0,0.0,0.0,0.0,0.0,0.0,0.0,0.0,0.0,0.0,0.0,0.0,0.0,0.0,0.0,0.0,0.0,0.0,0.0,0.0,0.0,0.0,0.0,0.0,0.0,0.0,0.0,0.0,0.0,0.0,0.0,0.0,0.0,0.0,0.0,0.0,0.0,0.0,0.0,0.0,0.0,0.0,0.0,0.0,0.0,0.0,0.0,0.0,0.0,0.0,0.0,0.0,0.0,0.0,0.0,0.0,0.0,0.0,0.0,0.0,0.0,0.0,0.0,0.0,0.0,0.0,0.0,0.0,0.0,0.0,0.0,0.0,0.0,0.0,0.0,0.0,0.0,0.0,0.0,0.0,0.0,0.0,0.0,0.0,0.0,0.0,-0.1433,-0.2244,-0.2513,-0.3138,-0.4117,-0.5542,-0.634,-0.6428,-0.5719,-0.5539,0.0,0.0,0.0,0.0,0.0,0.0,0.0,0.0,0.0,0.0,0.0,0.0,0.0,0.0,0.0,0.0,0.0,0.0,0.0,0.0,0.0,0.0,0.0,0.0,0.0,0.0,0.0,0.0,0.0,0.0,0.0,0.0,0.0,0.0,0.0,0.0,0.0,0.0,0.0,0.0,0.0,0.0,0.0,0.0,0.0,0.0,0.0,0.0,0.0,0.0,0.0,0.0,0.0,0.0,0.0,0.0,0.0,0.0,0.0,0.0,0.0,0.0,0.0,0.0,0.0,0.0,0.0,0.0,0.0,0.0,0.0,0.0,0.0,0.0,0.0,0.0,0.0,0.0,0.0,0.0,0.0,0.0,0.0,0.0,0.0,0.0,0.0,0.0,0.0,0.0,0.0,0.0,0.0,0.0,0.0,0.0,0.0,0.0,0.0,0.0,0.0,0.0,-0.0896,-0.2244,-0.2513,-0.2423,-0.3226,-0.5542,-0.5628,-0.5539,-0.5719,-0.5719,0.0,0.0,0.0,0.0,0.0,0.0,0.0,0.0,0.0,0.0,0.0,0.0,0.0,0.0,0.0,0.0,0.0,0.0,0.0,0.0,0.0,0.0,0.0,0.0,0.0,0.0,0.0,0.0,0.0,0.0,0.0,0.0,0.0,0.0,0.0,0.0,0.0,0.0,0.0,0.0,0.0,0.0,0.0,0.0,0.0,0.0,0.0,0.0,0.0,0.0,0.0,0.0,0.0,0.0,0.0,0.0,0.0,0.0,0.0,0.0,0.0,0.0,0.0,0.0,0.0,0.0,0.0,0.0,0.0,0.0,0.0,0.0,0.0,0.0,0.0,0.0,0.0,0.0,0.0,0.0,0.0,0.0,0.0,0.0,0.0,0.0,0.0,0.0,0.0,0.0,0.0,0.0,0.0,0.0,0.0,0.0,0.0,0.0,0.0,0.0,0.0,0.0,-0.0448,-0.1794,-0.2064,-0.251,-0.3578,-0.5361,-0.598,-0.6071,-0.5719,0.0,0.0,0.0,0.0,0.0,0.0,0.0,0.0,0.0,0.0,0.0,0.0,0.0,0.0,0.0,0.0,0.0,0.0,0.0,0.0,0.0,0.0,0.0,0.0,0.0,0.0,0.0,0.0,0.0,0.0,0.0,0.0,0.0,0.0,0.0,0.0,0.0,0.0,0.0,0.0,0.0,0.0,0.0,0.0,0.0,0.0,0.0,0.0,0.0,0.0,0.0,0.0,0.0,0.0,0.0,0.0,0.0,0.0,0.0,0.0,0.0,0.0,0.0,0.0,0.0,0.0,0.0,0.0,0.0,0.0,0.0,0.0,0.0,0.0,0.0,0.0,0.0,0.0,0.0,0.0,0.0,0.0,0.0,0.0,0.0,0.0,0.0,0.0,0.0,0.0,0.0,0.0,0.0,0.0,0.0,0.0,0.0,0.0,0.0,0.0,0.0,0.0,0.1431,-0.0269,-0.1615,-0.1885,-0.2509,-0.3578,-0.5361,-0.598,-0.6157,-0.5628,0.0,0.0,0.0,0.0,0.0,0.0,0.0,0.0,0.0,0.0,0.0,0.0,0.0,0.0,0.0,0.0,0.0,0.0,0.0,0.0,0.0,0.0,0.0,0.0,0.0,0.0,0.0,0.0,0.0,0.0,0.0,0.0,0.0,0.0,0.0,0.0,0.0,0.0,0.0,0.0,0.0,0.0,0.0,0.0,0.0,0.0,0.0,0.0,0.0,0.0,0.0,0.0,0.0,0.0,0.0,0.0,0.0,0.0,0.0,0.0,0.0,0.0,0.0,0.0,0.0,0.0,0.0,0.0,0.0,0.0,0.0,0.0,0.0,0.0,0.0,0.0,0.0,0.0,0.0,0.0,0.0,0.0,0.0,0.0,0.0,0.0,0.0,0.0,0.0,0.0,0.0,0.0,0.0,0.0,0.0,0.0,0.0,0.0,0.0,0.0,0.0,0.0,0.1342,-0.0448,-0.1885,-0.2154,-0.2243,-0.3136,-0.5453,-0.5539,-0.5447,0.0,0.0,0.0,0.0,0.0,0.0,0.0,0.0,0.0,0.0,0.0,0.0,0.0,0.0,0.0,0.0,0.0,0.0,0.0,0.0,0.0,0.0,0.0,0.0,0.0,0.0,0.0,0.0,0.0,0.0,0.0,0.0,0.0,0.0,0.0,0.0,0.0,0.0,0.0,0.0,0.0,0.0,0.0,0.0,0.0,0.0,0.0,0.0,0.0,0.0,0.0,0.0,0.0,0.0,0.0,0.0,0.0,0.0,0.0,0.0,0.0,0.0,0.0,0.0,0.0,0.0,0.0,0.0,0.0,0.0,0.0,0.0,0.0,0.0,0.0,0.0,0.0,0.0,0.0,0.0,0.0,0.0,0.0,0.0,0.0,0.0,0.0,0.0,0.0,0.0,0.0,0.0,0.0,0.0,0.0,0.0,0.0,0.0,0.0,0.0,0.0,0.0,0.0,0.0537,-0.0717,-0.1525,-0.1615,-0.2241,-0.3314,-0.4828,-0.5622,-0.6281,-0.6563,0.0,0.0,0.0,0.0,0.0,0.0,0.0,0.0,0.0,0.0,0.0,0.0,0.0,0.0,0.0,0.0,0.0,0.0,0.0,0.0,0.0,0.0,0.0,0.0,0.0,0.0,0.0,0.0,0.0,0.0,0.0,0.0,0.0,0.0,0.0,0.0,0.0,0.0,0.0,0.0,0.0,0.0,0.0,0.0,0.0,0.0,0.0,0.0,0.0,0.0,0.0,0.0,0.0,0.0,0.0,0.0,0.0,0.0,0.0,0.0,0.0,0.0,0.0,0.0,0.0,0.0,0.0,0.0,0.0,0.0,0.0,0.0,0.0,0.0,0.0,0.0,0.0,0.0,0.0,0.0,0.0,0.0,0.0,0.0,0.0,0.0,0.0,0.0,0.0,0.0,0.0,0.0,0.0,0.0,0.0,0.0,0.0,0.0,0.0,0.0,0.0,0.0,0.0091,-0.0823,-0.1472,-0.1564,-0.2662,-0.3758,-0.4945,-0.6215,-0.6982,-0.7165,0.0,0.0,0.0,0.0,0.0,0.0,0.0,0.0,0.0,0.0,0.0,0.0,0.0,0.0,0.0,0.0,0.0,0.0,0.0,0.0,0.0,0.0,0.0,0.0,0.0,0.0,0.0,0.0,0.0,0.0,0.0,0.0,0.0,0.0,0.0,0.0,0.0,0.0,0.0,0.0,0.0,0.0,0.0,0.0,0.0,0.0,0.0,0.0,0.0,0.0,0.0,0.0,0.0,0.0,0.0,0.0,0.0,0.0,0.0,0.0,0.0,0.0,0.0,0.0,0.0,0.0,0.0,0.0,0.0,0.0,0.0,0.0,0.0,0.0,0.0,0.0,0.0,0.0,0.0,0.0,0.0,0.0,0.0,0.0,0.0,0.0,0.0,0.0,0.0,0.0,0.0,0.0,0.0,0.0,0.0,0.0,0.0,0.0,0.0,0.0,0.0,0.0,-0.0278,-0.1131,-0.1811,-0.2192,-0.3327,-0.4647,-0.5688,-0.7014,-0.7684,-0.7503,0.0,0.0,0.0,0.0,0.0,0.0,0.0,0.0,0.0,0.0,0.0,0.0,0.0,0.0,0.0,0.0,0.0,0.0,0.0,0.0,0.0,0.0,0.0,0.0,0.0,0.0,0.0,0.0,0.0,0.0,0.0,0.0,0.0,0.0,0.0,0.0,0.0,0.0,0.0,0.0,0.0,0.0,0.0,0.0,0.0,0.0,0.0,0.0,0.0,0.0,0.0,0.0,0.0,0.0,0.0,0.0,0.0,0.0,0.0,0.0,-2.1449,0.0,0.0,0.0,0.0,0.0,0.0,0.0,0.0,0.0,0.0,0.0,0.0,0.0,0.0,0.0,0.0,0.0,0.0,0.0,0.0,0.0,0.0,0.0,0.0,0.0,0.0,0.0,0.0,0.0,0.0,0.0,0.0,0.0,0.0,0.0,0.0,0.0,0.0,0.0,0.0,0.0,-0.2268,-0.2657,-0.3232,-0.4275,-0.5405,-0.6255,-0.6638,-0.7768,-0.8487,-0.8619,-0.7834,0.0,0.0,0.0,0.0,0.0,0.0,0.0,0.0,0.0,0.0,0.0,0.0,0.0,0.0,0.0,0.0,0.0,0.0,0.0,0.0,0.0,0.0,0.0,0.0,0.0,0.0,0.0,0.0,0.0,0.0,0.0,0.0,0.0,0.0,0.0,0.0,0.0,0.0,0.0,0.0,0.0,0.0,0.0,0.0,0.0,0.0,0.0,0.0,0.0,0.0,0.0,0.0,0.0,0.0,0.0,0.0,0.0,0.0,0.0,0.0,-2.1655,0.0,0.0,0.0,0.0,0.0,0.0,0.0,0.0,0.0,0.0,0.0,0.0,0.0,0.0,0.0,0.0,0.0,0.0,0.0,0.0,0.0,0.0,0.0,0.0,0.0,0.0,0.0,0.0,0.0,0.0,0.0,0.0,0.0,0.0,0.0,0.0,0.0,0.0,0.0,0.0,-0.299,-0.3594,-0.4199,-0.488,-0.6045,-0.6728,-0.6924,-0.8083,-0.8802,-0.9092,-0.8523,0.0,0.0,0.0,0.0,0.0,0.0,0.0,0.0,0.0,0.0,0.0,0.0,0.0,0.0,0.0,0.0,0.0,0.0,0.0,0.0,0.0,0.0,0.0,0.0,0.0,0.0,0.0,0.0,0.0,0.0,0.0,0.0,0.0,0.0,0.0,0.0,0.0,0.0,0.0,0.0,0.0,0.0,0.0,0.0,0.0,0.0,0.0,0.0,0.0,0.0,0.0,0.0,0.0,-2.1731,-2.1797,-2.1118,-2.1949,-2.2241,-2.2025,-2.1205,-2.0984,-2.1051,-2.0876,0.0,0.0,0.0,0.0,0.0,0.0,0.0,0.0,0.0,0.0,0.0,0.0,0.0,0.0,0.0,0.0,0.0,0.0,0.0,0.0,0.0,0.0,0.0,0.0,-1.0848,-1.0201,0.0,0.0,0.0,0.0,0.0,0.0,0.0,0.0,0.0,0.0,0.0,0.0,-0.3738,-0.4484,-0.5125,-0.5425,-0.6426,-0.7129,-0.7129,-0.8127,-0.8928,-0.9133,-0.9133,-0.873,0.0,0.0,0.0,0.0,0.0,0.0,0.0,0.0,0.0,0.0,0.0,0.0,0.0,0.0,0.0,0.0,0.0,0.0,0.0,0.0,0.0,0.0,0.0,0.0,0.0,0.0,0.0,0.0,0.0,0.0,0.0,0.0,-1.8441,-1.8369,0.0,0.0,0.0,0.0,0.0,0.0,0.0,0.0,0.0,0.0,0.0,0.0,0.0,-2.0809,-2.1138,-2.0984,-2.0984,-2.1138,-2.1128,-2.0974,-2.0644,-2.0799,-2.0876,-2.0799,-2.0722,0.0,-2.1949,-2.17,0.0,0.0,0.0,0.0,0.0,0.0,0.0,0.0,0.0,0.0,0.0,0.0,0.0,0.0,0.0,0.0,0.0,0.0,0.0,0.0,0.0,0.0,-1.4261,-1.4326,-1.377,-1.2779,0.0,-0.8946,-0.6644,-0.5561,-0.519,0.0,0.0,0.0,0.0,0.0,0.0,0.0,-0.5712,-0.6124,-0.6634,-0.7829,-0.8131,-0.8329,-0.8524,-0.8726,-0.8825,-0.8825,-0.9031,-0.863,-0.7319,-0.7301,0.0,0.0,0.0,0.0,0.0,0.0,0.0,0.0,0.0,0.0,0.0,0.0,0.0,0.0,0.0,0.0,0.0,0.0,0.0,0.0,0.0,0.0,0.0,0.0,0.0,0.0,0.0,0.0,0.0,-1.8839,-1.9296,-1.9941,-1.987,-1.9821,0.0,0.0,0.0,0.0,0.0,0.0,0.0,0.0,0.0,-2.0644,-2.0731,-2.0809,-2.0886,-2.0809,-2.0809,-2.0886,-2.0906,-2.0829,-2.0741,-2.0896,-2.1025,-2.1095,-2.1095,-2.1471,-2.1899,-2.1376,-2.0944,-2.0731,0.0,0.0,0.0,0.0,-2.0566,-2.0566,-2.0566,-2.0566,0.0,-2.0167,0.0,0.0,0.0,0.0,0.0,0.0,0.0,0.0,0.0,0.0,-1.4346,-1.484,-1.4339,-1.3424,-1.2406,-1.0792,-0.9024,0.0,-0.6652,-0.582,-0.4157,0.0,0.0,0.0,0.0,-0.5529,-0.6337,-0.6936,-0.7537,-0.8137,-0.8137,-0.8233,-0.8333,-0.8333,-0.8432,-0.8531,-0.8733,-0.8634,-0.8329,-0.7428,-0.6597,0.0,0.0,0.0,0.0,0.0,0.0,0.0,0.0,0.0,0.0,0.0,0.0,0.0,0.0,0.0,0.0,0.0,0.0,0.0,0.0,0.0,0.0,0.0,0.0,0.0,0.0,0.0,0.0,-1.9791,-2.0163,-2.1268,-2.0589,-2.0215,0.0,0.0,0.0,0.0,0.0,0.0,-2.0644,-2.0731,-2.0741,-2.0566,-2.0741,-2.0819,-2.0654,-2.0654,-2.0703,-2.0811,-2.0987,-2.1056,-2.1164,-2.1312,-2.1491,-2.1629,-2.1629,-2.1745,-2.1836,-2.1172,-2.0898,-2.0898,-2.0898,-2.0898,-2.0898,-2.0898,-2.0898,-2.0898,-2.0898,-2.0898,-2.0898,-2.0898,-1.9925,-1.8533,-1.7771,0.0,0.0,0.0,0.0,-1.3053,-1.3853,-1.3872,-1.3884,-1.4611,-1.4118,-1.3214,-1.2278,-1.1545,-1.0542,0.0,-0.7962,-0.7012,-0.5112,0.0,0.0,0.0,0.0,-0.6734,-0.6836,-0.7537,-0.8038,-0.8038,-0.8038,-0.8038,-0.8038,-0.8038,-0.8038,-0.8333,-0.8333,-0.8535,-0.8935,-0.7832,-0.7126,-0.7123,0.0,0.0,0.0,0.0,0.0,0.0,0.0,0.0,0.0,0.0,0.0,0.0,0.0,0.0,0.0,0.0,0.0,0.0,0.0,0.0,0.0,0.0,0.0,0.0,0.0,0.0,0.0,0.0,0.0,-2.169,-2.1068,0.0,0.0,0.0,0.0,-2.0566,-2.0644,-2.0644,-2.0566,-2.0644,-2.0644,-2.0566,-2.0644,-2.0731,-2.0906,-2.0906,-2.1114,-2.1431,-2.1431,-2.1578,-2.1826,-2.1816,-2.1836,-2.1855,-2.1855,-2.1865,-2.1885,-2.1836,-2.1816,-2.1816,-2.1816,-2.1816,-2.1816,-2.1816,-2.1816,-2.1816,-2.1816,-2.1816,-2.1816,-2.1816,-2.1218,-2.0084,-1.7849,-1.6995,0.0,0.0,-1.4874,-1.4933,-1.5206,-1.452,-1.3918,-1.4285,-1.3482,-1.2517,-1.1448,-1.1068,-1.0587,0.0,-0.9513,-0.8916,-0.7322,0.0,-0.6924,-0.6334,-0.6334,-0.6736,-0.7839,-0.7939,-0.8038,-0.8038,-0.8038,-0.8038,-0.8038,-0.8038,-0.8038,-0.8041,-0.8237,-0.8432,-0.8432,-0.8333,-0.7832,-0.6828,-0.651,0.0,0.0,0.0,0.0,0.0,0.0,0.0,0.0,0.0,0.0,0.0,0.0,0.0,0.0,0.0,0.0,0.0,0.0,0.0,0.0,0.0,0.0,0.0,0.0,0.0,0.0,0.0,0.0,-2.2014,-2.1624,0.0,-2.0644,-2.1088,-2.1165,-2.0644,-2.1088,-2.1165,-2.0644,-2.0566,-2.0566,-2.0566,-2.084,-2.0996,-2.1085,-2.1369,-2.1585,-2.1732,-2.1732,-2.182,-2.1885,-2.1885,-2.2031,-2.2295,-2.2295,-2.2441,-2.2695,-2.2695,-2.2373,-2.1885,-2.1885,-2.1885,-2.1885,-2.1885,-2.1885,-2.1885,-2.1885,-2.1885,-2.1802,-2.1275,-2.0838,-2.0201,-1.8177,-1.754,-1.7228,-1.6111,-1.5617,-1.5545,-1.5651,-1.4905,-1.4165,-1.4274,-1.3028,-1.1658,-1.1268,-1.0592,-0.9916,-0.9624,-0.943,-0.8928,-0.772,-0.8024,-0.8028,-0.683,-0.7232,-0.7736,-0.7939,-0.8038,-0.8038,-0.8038,-0.8038,-0.8038,-0.8038,-0.8038,-0.8038,-0.8038,-0.8137,-0.8237,-0.8432,-0.8233,-0.8035,-0.7829,-0.7585,-0.7217,0.0,0.0,0.0,0.0,0.0,0.0,0.0,0.0,0.0,0.0,0.0,0.0,0.0,0.0,0.0,0.0,0.0,0.0,0.0,0.0,0.0,0.0,0.0,0.0,0.0,-2.2841,-2.2176,-2.2392,-2.1776,-2.1165,-2.0644,-2.1088,-2.1165,-2.0644,-2.1088,-2.1235,-2.086,-2.0791,-2.0859,-2.1006,-2.1299,-2.1455,-2.1455,-2.1738,-2.1953,-2.21,-2.21,-2.2168,-2.2305,-2.2305,-2.2461,-2.2725,-2.2725,-2.2881,-2.3135,-2.3135,-2.2812,-2.2305,-2.2305,-2.2305,-2.2305,-2.2305,-2.2305,-2.2305,-2.2305,-2.2305,-2.222,-2.1599,-2.1419,-2.1124,-1.9512,-1.8693,-1.8032,-1.6987,-1.6305,-1.5832,-1.5832,-1.4771,-1.3806,-1.3806,-1.215,-1.069,-1.069,-1.0109,-0.9628,-0.9628,-0.943,-0.9031,-0.8319,-0.873,-0.8733,-0.7531,-0.7932,-0.8333,-0.8038,-0.8038,-0.8038,-0.8038,-0.8038,-0.8038,-0.8038,-0.8038,-0.8038,-0.8038,-0.8038,-0.8038,-0.8237,-0.8137,-0.8038,-0.8233,-0.8137,-0.7766,-0.7324,0.0,0.0,0.0,0.0,0.0,0.0,0.0,0.0,0.0,0.0,0.0,0.0,0.0,0.0,0.0,0.0,0.0,0.0,0.0,0.0,0.0,0.0,0.0,-2.4337,-2.3117,-2.2317,-2.2957,-2.1614,-2.0634,-2.0634,-2.0634,-2.0644,-2.0664,-2.0664,-2.086,-2.123,-2.125,-2.1445,-2.1875,-2.1894,-2.1904,-2.1904,-2.1924,-2.2129,-2.2529,-2.2529,-2.2744,-2.3135,-2.3135,-2.3135,-2.3135,-2.3135,-2.3135,-2.3135,-2.3135,-2.3135,-2.3135,-2.3135,-2.3135,-2.3135,-2.3135,-2.3135,-2.3135,-2.3135,-2.3135,-2.3135,-2.3135,-2.3047,-2.2862,-2.1569,-2.0395,-1.9222,-1.7956,-1.6763,-1.5832,-1.5832,-1.428,-1.2732,-1.2732,-1.1179,-0.9628,-0.9628,-0.9628,-0.9628,-0.9628,-0.9628,-0.9529,-0.9236,-0.9236,-0.9034,-0.8531,-0.8432,0.0,-0.8038,-0.8038,-0.8038,-0.8038,-0.8038,-0.8038,-0.8038,-0.8038,-0.8038,-0.8038,-0.8038,-0.8038,-0.8038,-0.8038,-0.8038,-0.8038,-0.8038,-0.747,-0.6354,0.0,0.0,0.0,0.0,0.0,0.0,0.0,0.0,0.0,0.0,0.0,0.0,0.0,0.0,0.0,0.0,0.0,0.0,0.0,0.0,0.0,-2.4862,-2.4719,-2.4264,-2.3486,-2.299,-2.3032,-2.2585,-2.236,-2.236,-2.236,-2.2206,-2.1941,-2.1893,-2.1859,-2.168,-2.1709,-2.1768,-2.1885,-2.2178,-2.2344,-2.2344,-2.2646,-2.2852,-2.2969,-2.2969,-2.3027,-2.3135,-2.3135,-2.3135,-2.3135,-2.3135,-2.3135,-2.3135,-2.3135,-2.3135,-2.3135,-2.3135,-2.3135,-2.3135,-2.3135,-2.3135,-2.3135,-2.3135,-2.3135,-2.3135,-2.3135,-2.2599,-2.1784,-2.0404,-1.9214,-1.8126,-1.6756,-1.6109,-1.5832,-1.5832,-1.4867,-1.3709,-1.2926,-1.1663,-1.0592,-0.9723,-0.9628,-0.9529,-0.9331,-0.9331,-0.9331,-0.943,-0.913,-0.8829,-0.8726,-0.8333,0.0,-0.8038,-0.8038,-0.8038,-0.8038,-0.8038,-0.8038,-0.8038,-0.8038,-0.8038,-0.8038,-0.8038,-0.8038,-0.8038,-0.8038,-0.8038,-0.8038,-0.8038,-0.747,0.0,0.0,0.0,0.0,0.0,0.0,0.0,0.0,0.0,0.0,0.0,0.0,0.0,0.0,0.0,0.0,0.0,0.0,0.0,0.0,0.0,0.0,-2.5382,-2.5087,-2.4264,-2.3841,-2.3559,-2.3463,-2.3345,-2.3327,-2.3349,-2.3514,-2.3371,-2.2808,-2.2829,-2.2635,-2.2212,-2.2242,-2.231,-2.2402,-2.2646,-2.2773,-2.2773,-2.3018,-2.3135,-2.3135,-2.3135,-2.3135,-2.3135,-2.3135,-2.3135,-2.3135,-2.3135,-2.3135,-2.3135,-2.3135,-2.3135,0.0,0.0,0.0,0.0,0.0,-2.3135,-2.3135,-2.3135,-2.3135,-2.3135,-2.3135,-2.2687,-2.1872,-2.0674,-1.9397,-1.8218,-1.6936,-1.6204,-1.5832,-1.5832,-1.5064,-1.41,-1.3516,-1.2242,-1.1077,-1.04,-0.9916,-0.9529,-0.943,-0.9236,0.0,-0.943,-0.9126,-0.8726,-0.8627,-0.8333,-0.8137,-0.8041,-0.8038,-0.8038,-0.8038,-0.8038,-0.8038,-0.8038,-0.8038,0.0,0.0,0.0,-0.8038,-0.8038,-0.8038,0.0,0.0,0.0,-0.7697,-0.7119,0.0,0.0,0.0,-0.632,-0.6272,0.0,0.0,0.0,0.0,0.0,0.0,0.0,0.0,0.0,0.0,0.0,0.0,0.0,0.0,0.0,0.0,-2.562,-2.5337,-2.4426,-2.4365,-2.4342,-2.4212,-2.4041,-2.3974,-2.4094,-2.4548,-2.4421,-2.3689,-2.378,-2.3575,-2.2964,0.0,0.0,0.0,0.0,-2.3387,-2.3387,-2.3387,-2.3396,-2.3222,-2.3222,-2.3222,-2.3135,-2.3135,-2.3135,-2.3135,-2.3135,-2.3135,-2.3135,-2.3135,-2.3135,-2.3135,-2.3135,-2.3135,-2.3135,-2.3135,-2.3135,-2.3135,-2.3135,0.0,0.0,-2.3135,-2.2882,-2.2432,-2.1391,-2.0124,-1.8772,-1.7777,-1.6662,-1.5832,-1.5832,-1.5159,-1.449,-1.4298,-1.2926,-1.1468,-1.1268,-1.0498,-0.9723,-0.9525,-0.9331,-0.9133,-0.9034,-0.8931,-0.8627,-0.8432,-0.8333,-0.8233,-0.8038,-0.8038,-0.8038,-0.8038,0.0,0.0,-0.8038,-0.8038,-0.8038,-0.8038,-0.8038,-0.8038,-0.8038,-0.8038,-0.8038,-0.8038,-0.8038,-0.8038,-0.8038,-0.8038,-0.8038,-0.7935,-0.7199,-0.6804,0.0,0.0,0.0,0.0,0.0,0.0,0.0,0.0,0.0,0.0,0.0,0.0,0.0,0.0,0.0,-2.5345,-2.5719,-2.5874,-2.5466,-2.5913,-2.5985,-2.4849,-2.5112,-2.5597,-2.624,-2.6399,-2.6305,-2.6052,-2.595,-2.5672,-2.5456,-2.526,-2.523,-2.5316,-2.5326,-2.5326,-2.5326,-2.5326,-2.4904,-2.4241,0.0,0.0,-2.3135,-2.3135,-2.3135,-2.3135,-2.3135,-2.3135,-2.3135,-2.3135,-2.3135,-2.3135,-2.3135,-2.3135,-2.3135,-2.3135,-2.3135,-2.3135,-2.3135,-2.3135,-2.3135,-2.3135,-2.2422,-2.1329,-2.0223,-1.8956,0.0,-1.648,-1.6015,-1.5832,-1.5832,-1.5642,-1.535,-1.449,-1.4004,-1.3221,-1.156,-1.1077,-1.0493,-0.9221,-0.8924,-0.873,-0.8336,-0.8336,-0.8432,-0.8432,-0.8237,-0.8038,-0.8038,-0.8038,-0.8038,-0.8038,-0.8038,-0.8038,-0.8038,-0.8038,-0.8038,-0.8038,-0.8038,-0.8038,-0.8038,-0.8038,-0.8038,-0.8038,-0.8038,-0.8038,-0.8038,-0.8038,-0.8038,-0.8038,-0.7783,-0.7661,0.0,0.0,0.0,0.0,0.0,0.0,0.0,0.0,0.0,0.0,0.0,-2.6609,-2.6325,0.0,-2.6033,-2.6172,-2.6354,-2.645,-2.6335,-2.6847,-2.6964,-2.6028,-2.6353,-2.6848,-2.7256,-2.7637,-2.7567,-2.7012,-2.7035,-2.6725,-2.5953,-2.5986,-2.5913,-2.5819,-2.5819,-2.5819,-2.5819,-2.5819,-2.5568,-2.5158,-2.5158,-2.4904,-2.4478,-2.4478,-2.4231,-2.382,-2.382,-2.356,-2.3135,-2.3135,-2.3135,-2.3135,-2.3135,-2.3135,-2.3135,-2.3135,-2.3135,-2.3135,-2.3135,-2.3135,-2.3047,-2.2969,-2.2148,-2.0962,-1.9679,-1.8503,-1.7232,-1.6109,-1.5832,-1.5832,-1.5832,-1.5832,-1.5635,-1.5159,-1.4682,-1.3902,-1.2242,-1.156,-1.0783,-0.9418,-0.913,-0.8829,-0.8432,-0.8432,-0.8333,-0.8233,-0.8038,-0.8038,-0.8038,-0.8038,-0.8038,-0.8038,-0.8038,-0.8038,-0.8038,-0.8038,-0.8038,-0.8038,-0.8038,-0.8038,-0.8038,-0.8038,-0.8038,-0.8038,-0.8038,-0.8038,-0.8038,-0.8038,-0.8038,-0.8038,-0.7842,-0.7643,0.0,0.0,0.0,0.0,0.0,0.0,0.0,-2.9049,-2.9082,-2.752,-2.7203,-2.7214,-2.6915,-2.6712,-2.6736,-2.7271,-2.7218,-2.7128,-2.7224,-2.7609,-2.7717,-2.7284,-2.7621,-2.7873,-2.7951,-2.8403,-2.8395,-2.7672,-2.7822,-2.7476,-2.64,-2.6505,-2.6517,-2.6329,-2.6329,-2.6329,-2.6329,-2.6329,-2.6246,-2.608,-2.608,-2.5997,-2.5819,-2.5819,-2.5326,-2.4498,-2.4327,-2.382,-2.3135,-2.3135,-2.3135,-2.3135,-2.3135,-2.3135,-2.3135,-2.3135,-2.3135,-2.3135,-2.3135,-2.3135,-2.3057,-2.2891,-2.2148,-2.1051,-1.977,-1.8503,-1.7419,-1.6393,-1.592,-1.5832,-1.5832,-1.5832,-1.5832,-1.5832,-1.5159,-1.419,-1.2926,-1.2047,-1.1077,-0.9821,-0.9331,-0.9133,-0.8825,-0.8531,-0.8333,-0.8038,-0.8038,-0.8038,-0.8038,-0.8038,-0.8038,-0.8038,-0.8038,-0.8038,-0.8038,-0.8038,-0.8038,-0.8038,-0.8038,-0.8038,-0.8038,-0.8038,-0.8038,-0.8038,-0.8038,-0.8038,-0.8038,-0.8038,-0.8038,-0.8038,-0.7746,-0.7444,-3.0821,-3.0955,-3.0628,-2.9808,-3.0129,-3.0237,0.0,-2.8899,-2.8879,-2.7354,-2.7413,-2.769,-2.7447,-2.725,-2.7296,-2.7819,-2.7775,-2.7801,-2.827,-2.8378,-2.8402,-2.8342,-2.8378,-2.8493,-2.8639,-2.8621,-2.8657,-2.8882,-2.8578,-2.8407,-2.8462,-2.8327,-2.8259,-2.8179,-2.8179,-2.8179,-2.8179,-2.8179,-2.7846,-2.701,-2.701,-2.6588,-2.5819,-2.5819,-2.5326,-2.4413,-2.3647,-2.3222,-2.3135,-2.3135,-2.3135,-2.3135,-2.3135,-2.3135,-2.3135,-2.3135,-2.3135,-2.3135,-2.3135,-2.3135,-2.3057,-2.2891,-2.253,-2.198,-2.0773,-1.9604,-1.8419,-1.7419,-1.648,-1.5832,-1.5832,-1.5832,-1.5832,-1.5832,-1.573,-1.5057,-1.3119,-1.263,-1.1858,-0.9624,-0.9232,-0.9133,-0.8825,-0.8531,-0.8333,-0.8038,-0.8038,-0.8038,-0.8038,-0.8038,-0.8038,-0.8038,-0.8038,-0.8038,-0.8038,-0.8038,-0.8038,-0.8038,-0.8038,-0.8038,-0.8038,-0.8038,-0.8038,-0.8038,-0.8038,-0.8038,-0.8038,-0.8038,-0.8038,-0.8038,-0.7746,-0.7547,-3.0568,-3.0762,-3.0669,-3.0711,-3.0935,-3.096,-3.0257,-3.0273,-3.0051,-2.8421,-2.8257,-2.8306,-2.8052,-2.7812,-2.7843,-2.8378,-2.8331,-2.8258,-2.8474,-2.851,-2.851,-2.8657,-2.8657,-2.8657,-2.8657,-2.8736,-2.8816,-2.8749,-2.8816,-2.8816,-2.8657,-2.859,-2.851,-2.851,-2.851,-2.851,-2.851,-2.851,-2.8351,-2.7938,-2.7938,-2.7753,-2.7336,-2.7336,-2.6917,-2.6008,-2.5073,-2.4402,-2.3907,-2.3907,-2.356,-2.3135,-2.3135,-2.3135,-2.3135,-2.3135,-2.3135,-2.3135,-2.3135,-2.3135,-2.3047,-2.2706,-2.2157,-2.1418,-2.0692,-1.9239,-1.7878,-1.7419,-1.6581,-1.5832,-1.5832,-1.5832,-1.5832,-1.5832,-1.5832,-1.5439,-1.3998,-1.3119,-1.2242,-1.069,-0.9817,-0.9327,-0.8825,-0.8726,-0.8531,-0.8038,-0.8038,-0.8038,-0.8038,-0.8038,-0.8038,-0.8038,-0.8038,-0.8038,-0.8038,-0.8038,-0.8038,-0.8038,-0.8038,-0.8038,-0.8038,-0.8038,-0.8038,-0.8038,-0.8038,-0.8038,-0.8038,-0.8038,-0.8038,-0.8038,-0.754,-0.7341,-3.0982,-3.1105,-3.1221,-3.1685,-3.1801,-3.1637,-3.1076,-3.1112,-3.0815,-2.9145,-2.8997,-2.902,-2.8696,-2.8464,-2.8431,-2.8743,-2.8657,-2.851,-2.851,-2.851,-2.8578,-2.8803,-2.8791,-2.8724,-2.8657,-2.8895,-2.8895,-2.8578,-2.8816,-2.8816,-2.851,-2.851,-2.851,-2.851,-2.851,-2.851,-2.851,-2.851,-2.851,-2.851,-2.851,-2.851,-2.851,-2.8259,-2.7765,-2.7092,-2.5913,-2.5073,-2.4498,-2.4241,-2.3734,-2.3135,-2.3135,-2.3135,-2.3135,-2.3135,-2.3135,-2.3135,-2.3135,-2.3135,-2.3047,-2.252,-2.1971,-2.1329,-2.0799,-1.953,-1.8056,-1.7785,-1.6951,-1.6109,-1.5825,-1.5832,-1.5832,-1.5832,-1.5832,-1.554,-1.449,-1.3414,-1.2436,-1.1365,-1.0301,-0.943,-0.9126,-0.8924,-0.8726,-0.8336,-0.8141,-0.8038,-0.8038,-0.8038,-0.8038,-0.8038,-0.8038,-0.8038,-0.8038,-0.8038,-0.8038,-0.8038,-0.8038,-0.8038,-0.8038,-0.8038,-0.8038,-0.8038,-0.8038,-0.8038,-0.8038,-0.8038,-0.8038,-0.7939,-0.7437,-0.7238,-3.2454,-3.2454,-3.2469,-3.2483,-3.2483,-3.2069,-3.0406,-3.0591,-3.0597,-2.8938,-2.9263,-2.9651,-2.9406,-2.9172,-2.9028,-2.8803,-2.8657,-2.851,-2.851,-2.851,-2.8578,-2.8803,-2.8791,-2.8882,0.0,-2.8882,-2.8791,-2.8803,-2.8657,-2.851,-2.851,-2.851,-2.851,-2.851,-2.851,-2.851,-2.851,-2.851,-2.851,-2.851,-2.851,-2.851,-2.851,-2.7603,-2.7267,-2.7103,-2.5337,-2.4488,-2.4413,-2.3474,-2.3135,-2.3135,-2.3135,-2.3135,-2.3135,-2.3135,-2.3135,-2.3135,-2.3135,-2.3135,-2.3047,-2.252,-2.2353,-2.2264,-2.182,-2.0997,-1.9977,-1.9063,-1.8064,-1.7044,-1.6015,-1.5832,-1.5832,-1.5832,-1.5832,-1.554,-1.449,-1.3414,-1.2436,-1.1365,-1.0301,-0.9628,-0.9628,-0.9126,-0.8928,-0.9133,-0.8538,-0.8038,-0.8038,-0.8038,-0.8038,-0.8038,-0.8038,-0.8038,-0.8038,-0.8038,-0.8038,-0.8038,-0.8038,-0.8038,-0.8038,-0.8038,-0.8038,-0.8038,-0.8038,-0.8038,-0.8038,-0.8038,-0.8038,-0.7939,-0.7437,-0.7238,-3.2513,-3.2513,-3.255,-3.2694,-3.2743,-3.2415,-3.1253,-3.1208,-3.1003,-2.9707,-2.9474,-2.9443,-2.9197,-2.904,-2.8803,-2.8657,-2.851,-2.851,-2.851,-2.8578,-2.8803,-2.8973,-2.9118,-2.9184,-2.9275,0.0,0.0,-2.8791,-2.8724,-2.8657,-2.851,-2.851,-2.851,-2.851,-2.851,-2.851,-2.851,-2.851,-2.851,-2.851,-2.851,-2.851,-2.851,-2.8179,-2.8087,-2.8018,-2.6846,-2.5913,-2.5326,-2.4402,-2.3647,-2.3135,-2.3135,-2.3135,-2.3135,-2.3135,-2.3135,-2.3135,-2.3135,-2.3135,-2.3047,-2.2794,-2.253,-2.2353,-2.2087,-2.0718,-1.9247,-1.8888,-1.7591,-1.6204,-1.592,-1.5832,-1.5832,-1.5832,-1.5832,-1.554,-1.449,-1.3414,-1.2436,-1.1365,-1.0301,-0.9529,-0.9331,-0.9232,-0.9031,-0.8928,-0.873,-0.8432,-0.8333,-0.8233,-0.8333,-0.8531,-0.8237,-0.8038,-0.8237,-0.8137,-0.8038,-0.8038,-0.8038,-0.8038,-0.8038,-0.8038,-0.8038,-0.8038,-0.8038,-0.8038,-0.8038,-0.8038,-0.8038,-0.8038,-0.7643,-0.7341,-3.3195,-3.3195,-3.3165,-3.3207,-3.3239,-3.2915,-3.1861,-3.1516,-3.1071,-2.9985,-2.9664,-2.9496,-2.904,-2.9028,-2.9028,-2.859,-2.851,-2.851,-2.851,-2.8657,-2.8882,-2.9052,-2.9275,-2.9419,-2.9509,-2.9287,0.0,-2.8803,-2.8791,-2.8724,-2.851,-2.851,-2.851,-2.851,-2.851,-2.851,-2.851,-2.851,-2.851,-2.851,-2.851,-2.851,-2.851,-2.851,-2.851,-2.8431,-2.7255,-2.6329,-2.5735,-2.4488,-2.3647,-2.3135,-2.3135,-2.3135,-2.3135,-2.3135,-2.3135,-2.3135,-2.3135,-2.3135,-2.3047,-2.2794,-2.253,-2.2344,-2.2008,-2.0997,-1.9712,-1.8972,-1.7863,-1.6662,-1.6015,-1.5832,-1.5832,-1.5832,-1.5912,-1.5794,-1.5114,-1.3912,-1.2787,-1.2093,-1.0806,-0.9718,-0.9617,-0.9465,-0.9322,-0.8914,-0.8965,-0.8928,-0.863,-0.8528,-0.8627,-0.8825,-0.8531,-0.8333,-0.8432,-0.8237,-0.8137,-0.8038,-0.8038,-0.8038,-0.8038,-0.8038,-0.8038,-0.8038,-0.8038,-0.8038,-0.8038,-0.8038,-0.8038,-0.8038,-0.7746,-0.7444,-3.4414,-3.4414,-3.4264,-3.3839,-3.377,-3.3409,-3.2087,-3.1516,-3.0921,-2.9935,-2.9947,-2.9806,-2.8949,-2.9328,-2.9406,-2.8657,-2.851,-2.851,-2.851,-2.8736,-2.8882,-2.9131,-2.9275,-2.9509,-2.9792,-2.9378,0.0,-2.8803,0.0,-2.8724,-2.851,-2.851,-2.851,-2.851,-2.851,-2.851,-2.851,-2.851,-2.851,-2.851,-2.851,-2.851,-2.851,-2.851,-2.851,-2.8339,-2.6577,-2.5735,-2.5579,-2.381,-2.3135,-2.3135,-2.3135,-2.3135,-2.3135,-2.3135,-2.3135,-2.3135,-2.3135,-2.3135,-2.3047,-2.2618,-2.2441,-2.2353,-2.1909,-2.1731,-2.1275,-1.943,-1.8788,-1.8234,-1.6386,-1.5838,-1.5852,-1.5852,-1.6079,-1.6299,-1.6293,-1.4801,-1.3448,-1.3443,-1.17,-1.0264,-1.0164,-1.0014,-0.9697,-0.9191,-0.9453,-0.9438,-0.8928,-0.8825,-0.8825,-0.8825,-0.8825,-0.8726,-0.8432,-0.8432,-0.8333,-0.8041,-0.8038,-0.8038,-0.8038,-0.8038,-0.8038,-0.8038,-0.8038,-0.8038,-0.8038,-0.8038,-0.8038,-0.8038,-0.7746,-0.7444,-3.4414,-3.4196,-3.3839,-3.3479,-3.3199,-3.2775,-3.1823,-3.1763,-3.1529,-3.0419,-3.0558,-3.0558,-2.9419,-2.9341,-2.9341,-2.8803,-2.8724,-2.8724,-2.8724,-2.904,-2.9263,-2.9341,-2.9521,-2.9702,-2.9792,-2.9521,0.0,0.0,-2.8736,-2.859,-2.851,-2.851,-2.851,-2.851,-2.851,-2.851,-2.851,-2.851,-2.851,-2.851,-2.851,-2.851,-2.851,-2.851,-2.8179,-2.7429,-2.6329,-2.5411,-2.4744,-2.356,-2.3135,-2.3135,-2.3135,-2.3135,-2.3135,-2.3135,-2.3135,-2.3135,-2.3135,-2.3135,-2.3047,-2.296,-2.2696,-2.2353,-2.2264,-2.1535,-2.0529,-2.0076,-1.888,-1.7598,-1.7044,-1.6559,-1.6159,-1.6159,-1.6386,-1.6394,-1.5589,-1.5135,-1.4468,-1.3744,-1.2412,-1.1187,-1.0369,-1.0123,-1.0091,-0.9987,-0.9835,-0.967,-0.9149,-0.9133,-0.913,-0.9327,-0.9027,-0.8726,-0.8726,-0.8531,-0.8333,-0.8041,-0.8038,-0.8038,-0.8038,-0.8038,-0.8038,-0.8038,-0.8038,-0.8038,-0.8038,-0.8038,-0.8038,-0.8038,-0.7942,-0.7743,-3.4414,-3.4264,-3.3991,-3.3632,-3.3269,-3.2846,-3.2417,-3.2114,-3.1823,-3.1158,-3.122,-3.1057,-2.9639,-2.9651,-2.9561,-2.8803,-2.8657,-2.8724,-2.8803,-2.904,-2.9275,-2.9419,-2.9611,-2.9792,-2.9792,-2.9599,-2.9341,0.0,-2.8816,-2.8578,-2.851,-2.851,-2.851,-2.851,-2.851,-2.851,-2.851,-2.851,-2.851,-2.851,-2.851,-2.851,-2.851,-2.851,-2.8007,-2.7174,0.0,-2.5326,-2.4413,-2.3474,-2.3135,-2.3135,-2.3135,-2.3135,-2.3135,-2.3135,-2.3135,-2.3135,-2.3135,-2.3057,-2.2969,-2.2794,-2.2706,-2.253,-2.2176,-2.1633,-2.0898,-1.9886,-1.8796,-1.7815,-1.7028,-1.6629,-1.6306,-1.6433,-1.6687,-1.6799,-1.6183,-1.576,-1.5006,-1.343,-1.2595,-1.1755,-1.0605,-1.0331,-1.0282,-1.0282,-1.0123,-0.9941,-0.9566,-0.9478,-0.943,-0.9628,-0.9327,-0.9027,-0.8825,-0.8627,-0.8432,-0.8038,-0.8038,-0.8038,-0.8038,-0.8038,-0.8038,-0.8038,-0.8038,-0.8038,-0.8038,-0.8038,-0.8038,-0.8038,-0.8038,-0.7842,-3.4414,-3.4346,-3.4264,-3.3908,-3.3563,-3.3269,-3.3269,-3.2676,-3.2015,-3.1942,-3.1942,-3.1563,-3.0012,-3.0088,-2.9947,-2.8895,-2.8657,-2.8578,-2.8803,-2.8961,-2.9197,-2.9419,-2.9611,-2.9792,-2.9792,-2.9599,-2.9341,-2.9131,-2.8882,-2.8724,-2.851,-2.851,-2.851,-2.851,-2.851,-2.851,-2.851,-2.851,-2.851,-2.851,-2.851,-2.851,-2.851,-2.851,-2.8007,-2.7174,-2.6246,-2.5326,-2.4413,-2.3474,-2.3135,-2.3135,-2.3135,-2.3135,-2.3135,-2.3135,-2.3135,-2.3135,-2.3135,-2.2969,-2.2794,-2.253,-2.2618,-2.2618,-2.2008,-2.1919,-2.1642,-1.9521,-1.8912,-1.8466,-1.687,-1.6431,-1.6453,-1.67,-1.6987,-1.7208,-1.7208,-1.6657,-1.5429,-1.328,-1.2738,-1.2309,-1.1126,-1.0675,-1.0469,-1.0469,-1.0314,-1.014,-0.9977,-0.9782,-0.9652,-0.9628,-0.9529,-0.9327,-0.8825,-0.8726,-0.8531,-0.8038,-0.8038,-0.8038,-0.8038,-0.8038,-0.8038,-0.8038,-0.8038,-0.8038,-0.8038,-0.8038,-0.8038,-0.8038,-0.8038,-0.7842,-3.4414,-3.4128,-3.3908,-3.3839,-3.3563,-3.3269,-3.3269,-3.3409,-3.3255,-3.269,-3.2832,-3.2747,-3.1783,-3.0908,-3.0241,-3.0024,-2.925,-2.8724,-2.8791,-2.9106,-2.9341,-2.9419,-2.9611,-2.9792,-2.9792,-2.9599,0.0,0.0,-2.8882,-2.8724,-2.851,-2.851,-2.851,-2.851,-2.851,-2.851,-2.851,-2.851,-2.851,-2.851,-2.851,-2.851,-2.851,-2.851,-2.8007,-2.7174,-2.6246,0.0,-2.4413,-2.3474,-2.3135,-2.3135,-2.3135,-2.3135,-2.3135,-2.3135,-2.3135,-2.3135,-2.3135,-2.3057,-2.3057,-2.296,-2.2618,-2.2274,-2.2264,-2.1998,-2.1553,-2.0348,-1.9644,-1.8855,-1.7794,-1.7322,-1.7014,-1.7061,-1.7295,-1.7508,-1.7508,-1.7437,-1.6935,-1.5535,-1.446,-1.3491,-1.2309,-1.1311,-1.0647,-1.0647,-1.0501,-1.0375,-1.0343,-1.0046,-0.9786,-0.9644,-0.943,-0.9133,-0.8825,-0.8627,-0.8333,-0.8041,-0.8038,-0.8038,-0.8038,-0.8038,-0.8038,-0.8038,-0.8038,-0.8038,-0.8038,-0.8038,-0.8038,-0.8038,-0.8038,-0.7942,-3.4414,-3.4264,-3.4128,-3.4128,-3.3839,-3.3632,-3.3839,-3.3839,-3.3701,-3.3339,-3.3409,-3.3255,-3.2448,-3.1783,-3.1119,-3.0393,-2.9781,-2.9316,-2.9106,-2.9197,-2.9353,-2.9611,-2.9702,-2.9792,-2.9792,-2.9702,-2.9521,-2.9275,-2.904,-2.8803,-2.851,-2.851,-2.851,-2.851,-2.851,-2.851,-2.851,-2.851,-2.851,-2.851,-2.851,-2.851,-2.851,-2.851,-2.8007,-2.7185,-2.6753,-2.5746,-2.4498,-2.3983,-2.356,-2.3135,-2.3135,-2.3135,-2.3135,-2.3135,-2.3135,-2.3135,-2.3135,-2.3057,-2.2969,-2.3057,-2.2794,-2.2451,-2.2264,-2.2097,-2.1553,-1.9977,-1.9406,-1.8869,-1.7519,-1.7223,-1.7188,-1.7335,-1.7482,-1.7582,-1.7582,-1.7582,-1.7259,-1.6074,-1.4888,-1.3706,-1.263,-1.1446,-1.0692,-1.0692,-1.0623,-1.0538,-1.0444,-1.0282,-1.0067,-0.9791,-0.9581,-0.9229,-0.8825,-0.8726,-0.8432,-0.8038,-0.8038,-0.8038,-0.8038,-0.8038,-0.8038,-0.8038,-0.8038,-0.8038,-0.8038,-0.8038,-0.8038,-0.8038,-0.8038,-0.8038,-3.4414,-3.4414,-3.4414,-3.4414,-3.4128,-3.3991,-3.4346,-3.4128,-3.3908,-3.3908,-3.3839,-3.3618,-3.2946,-3.2577,-3.2074,-3.1044,-3.0594,-3.0139,-2.9639,-2.9496,-2.9509,-2.9702,-2.9792,-2.9792,-2.9792,-2.9792,0.0,-2.9419,-2.9275,-2.9052,-2.851,-2.851,-2.851,-2.851,-2.851,-2.851,-2.851,-2.851,-2.851,-2.851,-2.851,-2.851,-2.851,-2.851,-2.8099,-2.7429,-2.7267,-2.6423,0.0,-2.4659,-2.4069,-2.3396,-2.3135,-2.3135,-2.3135,-2.3135,-2.3135,-2.3135,-2.3135,-2.2969,-2.2882,-2.3047,-2.2882,-2.2627,-2.2362,-2.2185,-2.166,-1.9804,-1.9341,-1.9016,-1.7505,-1.7218,-1.7301,-1.7528,-1.7582,-1.7582,-1.7582,-1.7582,-1.7364,-1.6399,-1.5316,-1.4245,-1.3275,-1.22,-1.1341,-1.1122,-1.1013,-1.0967,-1.0505,-1.0461,-1.0327,-1.0034,-0.971,-0.9383,-0.8977,-0.8844,-0.8531,-0.8137,-0.8038,-0.8038,-0.8038,-0.8038,-0.8038,-0.8038,-0.8038,-0.8038,-0.8038,-0.8038,-0.8038,-0.8038,-0.8038,-0.8038,-3.4414,-3.4414,-3.4414,-3.4414,-3.4346,-3.4346,-3.4414,-3.4346,-3.4346,-3.4346,-3.4059,-3.3908,-3.4196,-3.3241,-3.2434,-3.2648,-3.1901,-3.1106,-3.0317,-3.0393,-3.0241,-2.9496,-2.9689,-2.9792,-2.9792,-2.9792,-2.9702,-2.9419,-2.9561,-2.9328,-2.851,-2.851,-2.851,-2.851,-2.851,-2.851,-2.851,-2.851,-2.851,-2.851,-2.851,-2.851,-2.851,-2.851,-2.8431,-2.8339,-2.751,-2.7103,0.0,-2.5168,-2.4413,-2.4327,-2.3396,-2.3135,-2.3135,-2.3135,-2.3135,-2.3135,-2.3135,-2.3057,-2.3057,-2.3047,-2.2706,-2.2274,-2.2627,-2.2264,-2.1626,-2.1138,-2.0367,-1.947,-1.8829,-1.8135,-1.7549,-1.7575,-1.7582,-1.7582,-1.7582,-1.7582,-1.7582,-1.7477,-1.6505,-1.5755,-1.5648,-1.4567,-1.3491,-1.2417,-1.22,-1.1873,-1.0777,-1.053,-1.0424,-1.0387,-0.9864,-0.9458,-0.9458,-0.8814,-0.8432,-0.8333,-0.8137,-0.8038,-0.8038,-0.8038,-0.8038,-0.8038,-0.8038,-0.8038,-0.8038,-0.8038,-0.8038,-0.8038,-0.8038,-0.8038,-3.4414,-3.4414,-3.4414,-3.4414,-3.4414,-3.4414,-3.4414,-3.4414,-3.4414,-3.4414,-3.4264,-3.4196,-3.4346,-3.3962,-3.3465,-3.3157,-3.2635,-3.2132,-3.1489,-3.1341,-3.1057,-3.0367,-3.0393,-3.0279,0.0,0.0,-2.9702,-2.9419,-2.9341,-2.9118,-2.8724,-2.8882,-2.8895,-2.851,-2.851,-2.851,-2.851,-2.851,-2.851,-2.851,-2.851,-2.851,-2.851,-2.851,-2.851,-2.851,-2.8099,-2.7255,0.0,-2.5495,-2.4573,-2.3484,-2.3222,-2.3135,-2.3135,-2.3135,-2.3135,-2.3135,-2.3135,-2.3135,-2.3135,-2.3135,-2.2882,-2.2539,-2.253,-2.2353,-2.1937,-2.0893,-2.0815,-2.0547,-1.8835,-1.8044,-1.7582,-1.7582,-1.7582,-1.7582,-1.7582,-1.7582,-1.7582,-1.7582,-1.6717,-1.5861,-1.5861,-1.4888,-1.3922,-1.3491,-1.2847,-1.22,-1.1769,-1.1063,-1.059,-1.059,-1.016,-0.9804,-0.9489,-0.9217,-0.8833,-0.8439,-0.8336,-0.8137,-0.8038,-0.8038,-0.8038,-0.8038,-0.8038,-0.8038,-0.8038,-0.8038,-0.8038,-0.8038,-0.8038,-0.8038,-3.4481,-3.4481,-3.4414,-3.4414,-3.4414,-3.4414,-3.4414,-3.4414,-3.4414,-3.4414,-3.4414,-3.4414,-3.4414,-3.4414,-3.4196,-3.3673,-3.3451,-3.3157,-3.2506,-3.229,-3.2001,-3.1328,0.0,-3.0758,-3.0508,-3.0292,-2.9973,-2.9741,-2.9664,-2.9509,-2.9106,-2.9419,-2.9341,-2.851,-2.851,-2.851,-2.851,-2.851,-2.851,-2.851,-2.851,-2.851,-2.851,-2.851,-2.851,-2.851,-2.851,-2.7592,0.0,-2.6163,-2.5242,-2.3724,-2.381,-2.3897,-2.3897,-2.3897,-2.3724,-2.3474,-2.3474,-2.3309,-2.3135,-2.3135,-2.2969,-2.2794,-2.2618,-2.2441,-2.2195,-2.1482,-2.1529,-2.1374,-1.9132,-1.8292,-1.7996,-1.7687,-1.7582,-1.7582,-1.7582,-1.7582,-1.7582,-1.7582,-1.6935,-1.6399,-1.6399,-1.5749,-1.4995,-1.4674,-1.3922,-1.3171,-1.2521,-1.1664,-1.1122,-1.0692,-1.0469,-1.014,-0.9756,-0.9693,-0.9384,-0.8811,-0.8603,-0.8382,-0.8141,-0.8038,-0.8038,-0.8038,-0.8038,-0.8038,-0.8038,-0.8038,-0.8038,-0.8038,-0.8038,-0.8038,-3.4631,-3.4563,-3.4414,-3.4414,-3.4414,-3.4414,-3.4414,-3.4414,-3.4414,-3.4414,-3.4414,-3.4414,-3.4414,-3.4414,-3.4414,-3.4414,-3.4414,-3.4113,-3.3297,-3.3213,-3.2932,0.0,-3.1415,-3.1193,-3.2001,-3.1341,-3.0758,-3.0432,-3.0748,0.0,-2.9704,-3.0088,-2.9716,-2.851,-2.851,-2.851,-2.851,-2.851,-2.851,-2.851,-2.851,-2.851,-2.851,-2.851,-2.851,-2.851,-2.851,-2.8018,0.0,-2.7185,-2.6588,-2.5735,-2.5735,-2.5735,-2.5735,-2.5735,-2.5242,-2.4498,-2.4498,-2.3907,-2.3135,-2.3135,-2.3135,-2.3057,-2.2882,-2.2618,-2.2527,-2.3204,-2.2878,-2.1807,-1.9743,-1.922,-1.8916,-1.7891,-1.7582,-1.7582,-1.7582,-1.7582,-1.7582,-1.7582,-1.7582,-1.7582,-1.7582,-1.7582,-1.7153,-1.6074,-1.5861,-1.4995,-1.2738,-1.2413,-1.1987,-1.0798,-1.0688,-1.0615,-1.0444,-1.0055,-0.9669,-0.9489,-0.8973,-0.8599,-0.8439,-0.8137,-0.8038,-0.8038,-0.8038,-0.8038,-0.8038,-0.8038,-0.8038,-0.8038,-0.8038,-0.8038,-3.4698,-3.4631,-3.4563,-3.4414,-3.4414,-3.4414,-3.4414,-3.4414,-3.4414,-3.4414,-3.4414,-3.4414,-3.4414,-3.4414,-3.4414,-3.4414,-3.4414,-3.4332,-3.4045,0.0,0.0,-3.2861,-3.1696,-3.097,0.0,0.0,-3.062,-3.0011,-3.0947,-3.0921,-2.9561,-2.9858,-2.9626,-2.851,-2.851,-2.851,-2.851,-2.851,-2.851,-2.851,-2.851,-2.851,-2.851,-2.851,-2.851,-2.851,-2.851,-2.7914,0.0,-2.7092,-2.6588,-2.5568,-2.5746,-2.5819,-2.5819,-2.5819,-2.5663,-2.5326,-2.4744,-2.4327,-2.3983,-2.3309,-2.3135,-2.3057,-2.3057,-2.2969,-2.2959,-2.3304,-2.2499,-2.1548,-2.142,-2.028,-1.9124,-1.8819,-1.8094,-1.7582,-1.7582,-1.7582,-1.7582,-1.7582,-1.7582,-1.7582,-1.7582,-1.7582,-1.7477,-1.7147,-1.6399,-1.5642,-1.4888,-1.403,-1.3383,-1.3063,-1.3063,-1.2337,-1.0556,-1.0277,-1.0007,-0.9501,-0.938,-0.9101,-0.8733,-0.8432,-0.8233,-0.8233,-0.8137,-0.8092,-0.8197,-0.8197,-0.8197,-0.8194,-0.8089,-0.8038,-3.4817,-3.4765,-3.4698,-3.4549,-3.4481,-3.4414,-3.4414,-3.4414,-3.4414,-3.4414,-3.4414,-3.4414,-3.4414,-3.4414,-3.4414,-3.4414,-3.4414,-3.4414,-3.4414,0.0,0.0,-3.3227,0.0,0.0,0.0,-3.1402,-3.1341,-3.0279,-3.1442,-3.1502,-2.9935,-3.0152,-2.9845,-2.8657,-2.851,-2.851,-2.851,-2.851,-2.851,-2.851,-2.851,-2.851,-2.851,-2.851,-2.851,-2.851,-2.851,0.0,0.0,-2.751,-2.7092,-2.6163,-2.6659,-2.6835,-2.6835,-2.6835,-2.6577,-2.6246,-2.5673,-2.5084,-2.4413,-2.382,-2.3387,-2.3135,-2.3135,-2.3135,-2.3135,-2.3204,-2.2797,-2.2161,-2.2134,-2.1311,-2.0364,-1.9952,-1.902,-1.8199,-1.8199,-1.7891,-1.7582,-1.7582,-1.7582,-1.7582,-1.7582,-1.7582,-1.7582,-1.7582,-1.7041,-1.6399,-1.5968,-1.5209,-1.4567,-1.4137,-1.4132,-1.3434,-1.1921,-1.1379,-1.0928,-1.0518,-0.9923,-0.9399,-0.9126,-0.8663,-0.846,-0.8521,-0.8227,-0.8201,-0.835,-0.835,-0.835,-0.8347,-0.8252,-0.8204,0.0,-3.4817,-3.4698,-3.4698,-3.4563,-3.4414,-3.4414,-3.4414,0.0,-3.4414,-3.4414,-3.4414,-3.4414,-3.4414,-3.4414,-3.4414,-3.4414,-3.4414,0.0,-3.4414,0.0,0.0,-3.3894,0.0,-3.1254,-3.2349,-3.2563,-3.1106,-3.2101,-3.2173,-3.0683,-3.082,-3.0291,-2.887,-2.8657,-2.851,-2.851,-2.851,-2.851,-2.851,-2.851,-2.851,-2.851,-2.851,-2.851,0.0,-2.851,0.0,0.0,-2.8179,-2.8007,-2.7348,-2.8179,-2.851,-2.851,-2.851,-2.8007,-2.7267,-2.7185,-2.6091,-2.4584,-2.4413,-2.382,-2.3135,-2.3135,-2.3057,-2.3047,-2.2986,-2.3322,-2.3373,-2.2294,-2.2292,-2.2282,-2.1285,-2.0158,-1.9228,-1.9228,-1.8408,-1.7582,-1.7582,-1.7582,-1.7582,-1.7582,-1.7582,-1.7582,-1.7582,-1.7582,-1.7259,-1.618,-1.6074,-1.5642,-1.446,-1.4347,-1.4347,-1.4347,-1.3166,-1.2332,-1.224,-1.0691,-0.9788,-0.9509,-0.8844,-0.8535,-0.879,-0.8501,-0.8367,-0.8499,-0.8499,-0.8499,-0.8499,-0.8486,-0.8482,-3.5148,0.0,-3.4817,-3.4698,-3.4631,-3.4563,0.0,-3.4414,-3.4414,-3.4414,-3.4414,-3.4414,-3.4414,-3.4414,-3.4414,-3.4414,-3.4414,-3.4414,-3.4414,-3.4414,0.0,-3.3297,-3.3367,-3.3297,-3.2706,-3.3003,-3.2791,-3.1856,-3.3171,-3.3101,-3.097,-3.1341,-3.0895,-2.9341,-2.887,-2.8657,-2.851,-2.851,-2.851,-2.851,-2.851,-2.851,-2.851,-2.851,-2.851,-2.851,0.0,0.0,-2.8179,-2.8431,-2.8339,-2.8179,-2.8431,-2.851,-2.851,-2.851,-2.8351,-2.8099,-2.7429,-2.6423,-2.5242,-2.3897,-2.3309,-2.3135,-2.3135,-2.2969,-2.2901,-2.3086,-2.3147,-2.3202,-2.3411,-2.3048,-2.2635,-2.2424,-2.0955,-1.9428,-1.9228,-1.8408,-1.7582,-1.7582,-1.7582,-1.7582,-1.7582,-1.7582,-1.7582,-1.7582,-1.7582,-1.7477,-1.7259,-1.7153,-1.7041,-1.6829,-1.6829,-1.6829,-1.6829,-1.4137,-1.2332,-1.224,-1.1026,-1.0184,-0.9999,-0.9645,-0.9335,-0.9164,-0.8762,-0.8625,-0.8655,-0.8655,-0.8655,-0.8655,-0.8537,-0.8482,-3.5359,-3.5213,-3.5016,-3.4817,-3.4765,-3.4631,-3.4481,-3.4414,-3.4414,-3.4414,-3.4414,-3.4414,-3.4414,-3.4414,-3.4414,-3.4414,-3.4414,-3.4414,0.0,0.0,-3.3465,-3.3742,-3.3437,-3.3213,0.0,-3.352,-3.3451,-3.2648,-3.3742,-3.3534,-3.1563,-3.1636,-3.1057,-2.9419,-2.9118,-2.8803,-2.8657,-2.859,-2.851,-2.851,-2.851,-2.851,-2.851,-2.851,-2.851,-2.851,0.0,0.0,-2.851,-2.851,-2.851,-2.851,-2.851,-2.851,-2.851,-2.851,-2.851,-2.8431,-2.7926,-2.6917,-2.5484,-2.3724,-2.3135,-2.3135,-2.3135,-2.3057,-2.2969,-2.2969,-2.3092,-2.3286,-2.3505,-2.3457,-2.3478,-2.3492,-2.2255,-2.0955,-2.0254,-1.9228,-1.8199,-1.7687,-1.7582,-1.7582,-1.7582,-1.7582,-1.7582,-1.7582,-1.7582,-1.7582,-1.7582,-1.7582,-1.7582,-1.7582,-1.7582,-1.7582,-1.7582,-1.5429,-1.3981,-1.3859,-1.2699,-1.1962,-1.185,-1.1544,-1.0911,-1.0055,-0.9165,-0.8815,-0.8815,-0.8815,-0.8815,-0.8815,-0.873,-0.8693,-3.5439,-3.5359,-3.5213,-3.4935,-3.4817,-3.4683,-3.4481,-3.4414,-3.4414,-3.4414,-3.4414,-3.4414,-3.4414,-3.4414,-3.4414,0.0,0.0,0.0,-3.4414,-3.3255,-3.296,-3.4264,-3.3811,0.0,-3.3367,-3.3977,-3.4113,-3.3437,-3.4031,-3.3756,-3.2146,-3.1942,-3.1119,-2.9716,-2.9353,-2.9118,-2.9106,-2.8736,-2.859,-2.859,-2.851,-2.851,-2.851,-2.851,-2.851,-2.851,0.0,0.0,-2.851,-2.851,-2.851,-2.851,-2.851,-2.851,-2.851,-2.851,-2.851,-2.8431,-2.8167,-2.708,-2.5484,-2.3724,-2.3135,-2.3135,-2.3135,-2.3135,-2.3047,-2.2882,-2.3053,-2.3332,-2.3119,-2.368,-2.4241,-2.4212,-2.3526,-2.2698,-2.1711,-2.0318,-1.902,-1.8094,-1.7793,-1.7687,-1.7582,-1.7582,-1.7582,-1.7582,-1.7582,-1.7582,-1.7582,-1.7582,-1.7582,-1.7582,-1.7582,-1.7582,-1.7582,-1.6717,-1.618,-1.618,-1.4807,-1.3957,-1.3957,-1.3543,-1.2586,-1.0967,-0.9843,-0.9158,-0.894,-0.894,-0.894,-0.894,-0.894,-0.894,-3.5504,-3.5504,-3.5359,-3.5001,-3.4868,-3.4802,-3.4481,-3.4414,-3.4414,-3.4414,-3.4414,-3.4414,-3.4414,-3.4414,-3.4414,0.0,0.0,-3.4414,0.0,0.0,-3.4113,-3.4346,0.0,-3.4196,-3.4196,-3.4346,-3.4346,-3.4264,-3.4332,-3.3756,-3.2146,-3.2074,-3.1636,-3.067,-2.9781,-2.9639,-3.0304,-2.925,-2.8724,-2.8724,-2.8578,-2.851,-2.851,-2.851,-2.851,-2.851,0.0,-2.851,-2.851,-2.851,-2.851,-2.851,-2.851,-2.851,-2.851,-2.851,-2.851,-2.8259,-2.6753,-2.6069,-2.5484,-2.3724,-2.3135,-2.3135,-2.3135,-2.3135,-2.3047,-2.3047,-2.3096,-2.3232,-2.3602,-2.3796,-2.39,-2.4054,-2.3481,-2.2886,-2.2512,-2.1143,-1.9731,-1.9317,-1.8513,-1.7905,-1.7687,-1.7582,-1.7582,-1.7582,-1.7582,-1.7582,-1.7582,-1.7582,-1.7582,-1.7582,-1.7582,-1.7582,-1.7582,-1.7477,-1.7364,-1.7364,-1.5281,-1.4083,-1.4083,-1.3832,-1.2969,-1.1389,-1.0983,-1.0131,-0.894,-0.894,-0.894,-0.894,-0.894,-0.894,-3.54,-3.5504,-3.5424,-3.5001,-3.4935,-3.4868,-3.4616,-3.4481,-3.4414,-3.4549,-3.4481,-3.4414,-3.4414,-3.4414,-3.4414,-3.4414,0.0,-3.3894,-3.4346,-3.3687,-3.3465,0.0,0.0,-3.3894,-3.4346,-3.4414,-3.4414,-3.4414,-3.4414,-3.3894,-3.272,-3.272,-3.2349,-3.1563,-3.1119,-3.082,-3.0745,-3.0075,-2.9484,-2.8791,-2.8724,-2.8578,-2.851,-2.851,-2.851,-2.851,0.0,-2.851,-2.851,-2.851,-2.851,-2.851,-2.851,-2.851,-2.851,-2.851,-2.851,-2.8339,-2.701,-2.6246,-2.5579,-2.4327,-2.3474,-2.3135,-2.3135,-2.3135,-2.3135,-2.3135,-2.3135,-2.3184,-2.3389,-2.3613,-2.3838,-2.3842,-2.3727,-2.3416,-2.2955,-2.2154,-2.1127,-2.0002,-1.9324,-1.8617,-1.7905,-1.7694,-1.7582,-1.7582,-1.7582,-1.7582,-1.7582,-1.7582,-1.7582,-1.7582,-1.7582,-1.7582,-1.7582,-1.7582,-1.7582,-1.7582,-1.6611,-1.5962,-1.5962,-1.5097,-1.4019,-1.2729,-1.1647,-1.0457,-0.9158,-0.8937,-0.894,-0.894,-0.894,-0.894,-3.5115,-3.5385,-3.5439,-3.5082,-3.4935,-3.4868,-3.4683,-3.4481,-3.4414,-3.4631,-3.4481,-3.4414,-3.4414,-3.4414,0.0,-3.4414,-3.3894,-3.3673,-3.4332,-3.3381,-3.3101,-3.4264,-3.3894,-3.3742,-3.4332,-3.4414,-3.4414,-3.4414,-3.4414,-3.4045,-3.3213,-3.3213,-3.2932,-3.2362,-3.2218,-3.1856,-3.1476,-3.1119,-3.0367,-2.925,-2.8949,-2.8803,-2.8803,-2.8578,-2.851,-2.851,-2.851,-2.851,-2.851,-2.851,-2.851,-2.851,-2.851,-2.851,-2.851,-2.851,-2.851,-2.8351,-2.751,-2.6588,-2.5663,-2.4744,-2.3907,-2.3135,-2.3135,-2.3135,-2.3135,-2.3135,-2.3135,-2.3135,-2.3135,-2.3389,-2.3633,-2.3633,-2.3774,-2.3782,-2.3333,-2.3066,-2.2406,-2.0974,-2.0184,-1.9539,-1.8624,-1.8108,-1.7793,-1.7687,-1.7694,-1.7687,-1.7582,-1.7582,-1.7582,-1.7582,-1.7582,-1.7582,-1.7582,-1.7582,-1.7582,-1.7582,-1.7582,-1.7582,-1.7582,-1.6499,-1.5204,-1.3701,-1.2403,-1.1004,-0.9379,-0.9158,-0.8937,-0.894,-0.894,-0.894,-3.4532,-3.5026,-3.5439,-3.5213,-3.5001,-3.4802,-3.4481,-3.4414,-3.4414,-3.4414,-3.4414,-3.4414,-3.4414,-3.4414,-3.4414,-3.4414,-3.4332,-3.4332,-3.4414,0.0,-3.4264,-3.4414,-3.4346,-3.4346,-3.4414,-3.4414,-3.4414,-3.4414,-3.4414,-3.4045,-3.3213,-3.3213,-3.3143,-3.3143,-3.2434,-3.2362,-3.3003,-3.2362,-3.1489,-3.0456,-2.9328,-2.9172,-2.9845,-2.8961,-2.851,-2.851,-2.851,-2.851,-2.851,-2.851,-2.851,-2.851,-2.851,-2.851,-2.851,-2.851,-2.851,-2.8351,-2.751,-2.6588,-2.5663,-2.4744,-2.3907,-2.3135,-2.3135,-2.3135,-2.3135,-2.3135,-2.3135,-2.3135,-2.3135,-2.3164,-2.3184,-2.3184,-2.3516,-2.3838,-2.3777,-2.3542,-2.3308,-2.2832,-2.1553,-2.0269,-1.993,-1.9027,-1.8213,-1.8016,-1.8016,-1.7911,-1.7582,-1.7582,-1.7582,-1.7582,-1.7582,-1.7582,-1.7582,-1.7582,-1.7582,-1.7582,-1.7582,-1.7582,-1.7582,-1.7477,-1.6287,-1.3701,-1.3593,-1.2191,-0.9379,-0.9379,-0.9158,-0.894,-0.894,-0.894,-3.3815,-3.4053,-3.4289,-3.455,-3.451,-3.4549,-3.4846,-3.475,-3.4616,-3.4668,-3.4549,-3.4414,-3.4414,0.0,-3.4414,-3.4414,-3.4414,-3.4414,-3.4414,-3.4414,-3.4414,-3.4414,-3.4414,-3.4414,-3.4414,-3.4414,-3.4414,-3.4414,-3.4414,-3.4264,-3.3962,-3.3962,-3.3962,-3.3962,-3.3687,-3.3451,-3.3213,-3.2932,-3.2563,-3.2205,-3.0519,-2.9858,-2.9986,-2.9094,-2.8657,-2.851,-2.8657,-2.8657,-2.851,-2.851,-2.851,-2.851,-2.851,-2.851,-2.851,-2.851,-2.851,-2.8431,-2.8099,-2.7429,-2.6588,-2.6257,-2.5579,-2.4648,-2.4155,-2.3983,-2.382,-2.3222,-2.3135,-2.3135,-2.3135,-2.3135,-2.3135,-2.3135,-2.3262,-2.3457,-2.373,-2.376,-2.357,-2.34,-2.2628,-2.1712,-2.0531,-1.9642,-1.893,-1.8122,-1.7911,-1.7694,-1.7582,-1.7582,-1.7582,-1.7582,-1.7582,-1.7582,-1.7582,-1.7582,-1.7582,-1.7582,-1.7582,-1.7582,-1.7582,-1.7582,-1.6823,-1.5102,-1.4883,-1.3372,-1.068,-1.057,-0.9919,-0.894,-0.894,-0.894,-3.3126,-3.3335,-3.3604,-3.3913,-3.3969,-3.4025,-3.455,-3.472,-3.4817,-3.4868,-3.4668,-3.4481,-3.4414,-3.4414,0.0,0.0,-3.4414,-3.4414,-3.4414,-3.4414,-3.4414,-3.4414,-3.4414,-3.4414,-3.4414,-3.4414,-3.4414,-3.4414,-3.4414,-3.4414,-3.4414,-3.4414,-3.4414,-3.4414,-3.4414,-3.4113,-3.3589,-3.3589,-3.3589,-3.3589,-3.1709,-3.0683,-3.0519,-2.9316,-2.8724,-2.8669,-2.8736,-2.8657,-2.8578,-2.851,-2.851,-2.851,-2.8736,-2.8657,-2.851,-2.8736,-2.8657,-2.851,-2.851,-2.7926,-2.7185,-2.7185,-2.6588,-2.5663,-2.5073,-2.4744,-2.4327,-2.3734,-2.3309,-2.3135,-2.3135,-2.3135,-2.3135,-2.3135,-2.3135,-2.3223,-2.3516,-2.3691,-2.3774,-2.3589,-2.3318,-2.2788,-2.167,-2.0696,-1.9746,-1.8938,-1.8325,-1.801,-1.7898,-1.7793,-1.7694,-1.7582,-1.7582,-1.7582,-1.7582,-1.7582,-1.7582,-1.7582,-1.7582,-1.7582,-1.7582,-1.7582,-1.7041,-1.5968,-1.5642,-1.4234,-1.1651,-1.176,-1.0895,-0.9047,-0.9372,-0.9265,-3.2497,-3.2976,-3.3484,-3.3484,-3.3376,-3.333,-3.3499,-3.4248,-3.4854,-3.4854,-3.4817,-3.4631,-3.4414,-3.4414,0.0,-3.4414,-3.4414,-3.4414,-3.4414,-3.4414,-3.4414,-3.4414,-3.4414,-3.4414,-3.4414,-3.4414,-3.4414,-3.4414,-3.4414,-3.4414,-3.4414,-3.4414,-3.4414,-3.4414,-3.4414,-3.4414,-3.4414,-3.4414,-3.4414,-3.4414,-3.2662,-3.1796,-3.1723,-2.9691,-2.8882,-2.9052,-2.8669,-2.8657,-2.8803,-2.8578,-2.851,-2.859,-2.9197,-2.904,-2.859,-2.9184,-2.904,-2.851,-2.851,-2.7926,-2.7185,-2.7185,-2.6588,-2.5819,-2.583,-2.5242,-2.4498,-2.4498,-2.381,-2.3135,-2.3135,-2.3135,-2.3135,-2.3135,-2.3135,-2.3135,-2.3135,-2.3477,-2.3779,-2.3789,-2.3617,-2.3492,-2.3501,-2.2045,-2.0775,-2.0585,-1.9576,-1.8757,-1.8422,-1.8122,-1.7911,-1.7582,-1.7582,-1.7582,-1.7582,-1.7582,-1.7582,-1.7582,-1.7582,-1.7582,-1.7582,-1.7582,-1.7047,-1.5968,-1.5968,-1.4674,-1.1982,-1.2852,-1.1987,-0.9489,-1.0351,-1.0021,-3.1882,-3.1958,-3.2228,-3.2691,-3.2751,-3.287,-3.3395,-3.3439,-3.3533,-3.3857,-3.4309,-3.4631,-3.4414,-3.4414,0.0,-3.4414,-3.4414,-3.4414,-3.4414,-3.4414,-3.4414,-3.4414,-3.4414,-3.4414,-3.4414,-3.4414,-3.4414,-3.4414,-3.4414,-3.4414,-3.4414,-3.4414,-3.4414,-3.4414,-3.4414,-3.4414,-3.4414,-3.4414,-3.4414,-3.4414,-3.2818,-3.1942,-3.1723,-3.0012,-2.9197,-2.9131,-2.9118,-2.9118,-2.8973,-2.8803,-2.8657,-2.851,-2.8736,-2.8657,-2.851,-2.8736,-2.8657,-2.851,-2.851,-2.8351,-2.8099,-2.8099,-2.7926,-2.758,-2.701,-2.6163,-2.5326,-2.4659,-2.381,-2.3135,-2.3135,-2.3135,-2.3135,-2.3135,-2.3135,-2.3135,-2.3135,-2.3242,-2.3428,-2.373,-2.3712,-2.3699,-2.3505,-2.2218,-2.1094,-2.0546,-1.9361,-1.8534,-1.8422,-1.8122,-1.8016,-1.7911,-1.7694,-1.7582,-1.7582,-1.7582,-1.7582,-1.7582,-1.7582,-1.7582,-1.7582,-1.7582,-1.7477,-1.7153,-1.7153,-1.618,-1.4347,-1.4465,-1.3171,-1.0566,-1.0676,-1.0021,-3.164,-3.1482,-3.1571,-3.2018,-3.2064,-3.2109,-3.2452,-3.282,-3.3136,-3.3314,-3.398,-3.442,-3.4155,-3.4307,0.0,-3.4414,-3.4414,-3.4414,-3.4414,-3.4414,-3.4414,-3.4414,-3.4414,-3.4414,-3.4414,-3.4414,-3.4414,-3.4414,-3.4414,-3.4414,-3.4414,-3.4414,-3.4414,-3.4414,-3.4414,-3.4414,-3.4414,-3.4414,-3.4414,-3.4414,-3.3157,-3.2434,-3.229,-3.0304,-2.9341,-2.9197,-2.9275,-2.9197,-2.9052,-2.8882,-2.8882,-2.8961,-2.9118,-2.9184,-2.9184,-2.9184,-2.904,-2.8803,-2.859,-2.851,-2.851,-2.851,-2.851,-2.8431,-2.7846,-2.7092,-2.6257,-2.5746,-2.4659,-2.3647,-2.3647,-2.3396,-2.3135,-2.3135,-2.3135,-2.3135,-2.3135,-2.3135,-2.3213,-2.3486,-2.3672,-2.3822,-2.3824,-2.2997,-2.2055,-2.1432,-1.9864,-1.8743,-1.8639,-1.8325,-1.8122,-1.8016,-1.7799,-1.7582,-1.7582,-1.7582,-1.7582,-1.7582,-1.7582,-1.7582,-1.7582,-1.7582,-1.7582,-1.7582,-1.7582,-1.6929,-1.5636,-1.5761,-1.4578,-1.1978,-1.1647,-1.0887,-3.1796,-3.1524,-3.1482,-3.1482,-3.1409,-3.1292,-3.1132,-3.2288,-3.3259,-3.3119,-3.3654,-3.3987,-3.3665,-3.4113,-3.447,-3.4327,-3.4327,-3.4356,-3.4399,-3.4414,-3.4414,-3.4414,-3.4414,-3.4414,-3.4414,-3.4414,-3.4414,-3.4414,-3.4414,-3.4414,-3.4414,-3.4414,-3.4414,-3.4414,-3.4414,-3.4414,-3.4414,-3.4414,-3.4414,-3.4414,-3.3589,-3.3213,-3.3143,-3.0732,-2.9639,-2.9639,-2.9419,-2.9353,-2.9353,-2.9184,-2.9394,-2.9922,-3.0241,-3.0393,-3.0393,-3.0393,-3.0012,-2.9419,-2.8803,-2.859,-2.851,-2.8578,-2.851,-2.851,-2.859,-2.7926,-2.7185,-2.7185,-2.5924,-2.4584,-2.4584,-2.3907,-2.3222,-2.3222,-2.3135,-2.3135,-2.3135,-2.3135,-2.3135,-2.3135,-2.3457,-2.3867,-2.4287,-2.3853,-2.3196,-2.2624,-2.0783,-1.9376,-1.9071,-1.875,-1.8325,-1.8122,-1.7799,-1.7687,-1.7687,-1.7582,-1.7582,-1.7582,-1.7582,-1.7582,-1.7582,-1.7582,-1.7582,-1.7582,-1.7582,-1.7041,-1.6074,-1.6842,-1.5879,-1.3398,-1.3161,-1.2181,-3.2327,-3.1853,-3.1482,-3.1482,-3.1467,-3.1467,-3.1424,-3.1691,-3.199,-3.2195,-3.2862,-3.3306,-3.3006,-3.3059,-3.3258,-3.3652,-3.3674,-3.3848,-3.4341,-3.4414,-3.4414,-3.4414,-3.4414,-3.4414,-3.4414,-3.4414,-3.4414,-3.4414,-3.4414,0.0,-3.4414,-3.4414,-3.4414,-3.4414,-3.4414,-3.4414,-3.4414,-3.4414,-3.4414,0.0,-3.3589,-3.3213,-3.3143,-3.206,-3.1489,-3.1489,-3.1489,-3.1341,-3.1206,-3.1193,-3.1106,-3.1093,-3.118,-3.1254,-3.1254,-3.1254,-3.0657,-2.9845,-2.9691,-2.9172,-2.859,-2.904,-2.8895,-2.859,-2.904,-2.8303,-2.7185,-2.7185,-2.6423,-2.5495,-2.5495,-2.4819,-2.4241,-2.4241,-2.3647,-2.3135,-2.3135,-2.3135,-2.3135,-2.3135,-2.3213,-2.3418,-2.3848,-2.3419,-2.288,-2.2589,-2.1387,-2.0585,-2.0483,-1.9472,-1.8757,-1.866,-1.8233,-1.7911,-1.7911,-1.7694,-1.7582,-1.7582,-1.7582,-1.7582,-1.7582,-1.7582,-1.7582,-1.7582,-1.7582,-1.7477,-1.7259,-1.7166,-1.6311,-1.4583,-1.4358,-1.2945,-3.2986,-3.2571,-3.2256,-3.2023,-3.1697,-3.1482,-3.1482,-3.1482,-3.1571,-3.1738,-3.2317,-3.2763,-3.2517,-3.2706,-3.2966,-3.3063,-3.32,-3.3317,-3.3573,-3.3959,-3.4215,-3.4215,-3.4493,-3.4668,-3.4668,-3.4668,-3.4668,-3.4668,0.0,-3.4668,-3.4668,-3.4549,-3.4549,-3.4549,-3.4481,-3.4414,-3.4414,-3.4414,-3.4414,-3.4414,-3.3962,-3.3742,-3.3742,-3.2506,-3.2015,-3.2074,-3.2015,-3.1942,-3.1942,-3.1869,-3.1942,-3.2074,-3.1988,-3.2132,-3.229,-3.1623,-3.1044,-3.0532,-2.9999,-2.9549,-2.9184,-2.9639,-2.9651,-2.9341,-2.9419,-2.8858,-2.8223,-2.7926,-2.7174,-2.6505,-2.6505,-2.583,-2.4988,-2.4573,-2.382,-2.3135,-2.3135,-2.3135,-2.3135,-2.3135,-2.3135,-2.3271,-2.3711,-2.3456,-2.3126,-2.2957,-2.2272,-2.1692,-2.1692,-2.0483,-1.968,-1.968,-1.8743,-1.8115,-1.8016,-1.7905,-1.7694,-1.7582,-1.7582,-1.7582,-1.7582,-1.7582,-1.7582,-1.7582,-1.7582,-1.7582,-1.7582,-1.7483,-1.6842,-1.5767,-1.5114,-1.3599,-3.37,-3.3303,-3.2933,-3.2382,-3.1966,-3.164,-3.1524,-3.1582,-3.164,-3.1524,-3.1958,-3.2288,-3.208,-3.2525,-3.2803,-3.261,-3.2702,-3.2809,-3.2786,-3.3446,-3.3928,-3.3864,-3.4425,-3.4824,-3.4758,-3.4861,-3.4935,-3.4935,0.0,-3.4935,-3.4935,-3.4817,-3.4698,-3.4698,-3.4549,-3.4414,-3.4414,-3.4414,-3.4414,-3.4414,-3.4414,-3.4414,-3.4346,-3.2889,-3.2376,-3.2519,-3.2304,-3.2376,-3.2519,-3.2304,-3.2533,-3.2988,-3.2818,-3.303,-3.3339,-3.2173,-3.1663,-3.1355,-3.0519,-3.0139,-3.0075,-3.0532,-3.0607,-3.0456,-3.0012,-2.9716,-2.9419,-2.8961,-2.8155,-2.751,-2.751,-2.6753,-2.583,-2.5168,-2.4241,-2.3474,-2.3135,-2.3135,-2.3135,-2.3135,-2.3135,-2.3271,-2.3711,-2.3615,-2.3632,-2.3771,-2.3189,-2.2715,-2.2785,-2.1489,-2.0585,-2.0585,-1.9354,-1.8429,-1.8122,-1.8016,-1.7911,-1.7687,-1.7582,-1.7582,-1.7582,-1.7582,-1.7582,-1.7582,-1.7582,-1.7582,-1.7582,-1.7582,-1.7371,-1.6736,-1.5767,-1.425,-3.4136,-3.3319,-3.2382,-3.1739,-3.1966,-3.212,0.0,0.0,-3.212,0.0,-3.1541,-3.1601,-3.147,-3.1485,-3.1664,-3.2014,-3.2102,-3.2308,-3.2867,-3.3468,-3.3636,-3.3199,-3.411,-3.4625,-3.4159,-3.4596,-3.4935,0.0,-3.4935,-3.4935,-3.4935,-3.4868,-3.4817,-3.4698,-3.4698,-3.4563,-3.4414,-3.4414,-3.4414,-3.4414,-3.4414,-3.4414,-3.4414,-3.4196,-3.4045,-3.4128,-3.4045,-3.4045,-3.4128,-3.4045,-3.4128,-3.4196,-3.4128,-3.4196,-3.4196,-3.4045,-3.3395,-3.2648,-3.2492,-3.1901,-3.1389,-3.1915,-3.1769,-3.1389,-3.1842,-3.1119,-3.0165,-3.0088,-2.9328,-2.8554,-2.8554,-2.7822,-2.701,-2.6846,-2.608,-2.4988,-2.3474,-2.3135,-2.3135,-2.3135,-2.3135,-2.3271,-2.3711,-2.3787,-2.4026,-2.4762,-2.4038,-2.3508,-2.3845,-2.2089,-2.0885,-2.0885,-1.968,-1.8869,-1.8764,-1.8338,-1.8016,-1.7911,-1.7694,-1.7582,-1.7582,-1.7582,-1.7582,-1.7582,-1.7582,-1.7582,-1.7582,-1.7582,-1.7483,-1.7067,-1.663,-1.5102,-3.4267,-3.3527,-3.268,-3.2176,-3.1966,-3.1811,-3.1582,-3.1697,-3.1796,-3.1524,-3.1482,-3.1467,-3.1409,-3.1409,-3.1455,-3.156,-3.1664,-3.1871,-3.2435,-3.3135,-3.3495,-3.3259,-3.3999,-3.4288,-3.3794,-3.3936,0.0,0.0,-3.4649,-3.4812,-3.5198,-3.5148,-3.5016,-3.4949,-3.4831,-3.4631,-3.4563,-3.4481,-3.4414,-3.4414,-3.4414,-3.4414,-3.4414,-3.4414,-3.4414,-3.4414,-3.4414,-3.4414,-3.4414,-3.4414,-3.4414,-3.4414,-3.4414,-3.4414,-3.4346,-3.3894,-3.3451,-3.3003,-3.2889,-3.2533,-3.2232,-3.2747,-3.2733,-3.2519,-3.2434,-3.2001,-3.1415,-3.1031,-3.0304,-2.9626,-2.9471,-2.8767,-2.7903,-2.7336,-2.6835,-2.6246,-2.4904,-2.4231,-2.3734,-2.3222,-2.3135,-2.3203,-2.3389,-2.3633,-2.3916,-2.4297,-2.4371,-2.445,-2.4621,-2.3556,-2.2484,-2.1887,-2.068,-1.9672,-1.875,-1.8331,-1.8115,-1.7799,-1.7687,-1.7582,-1.7582,-1.7582,-1.7582,-1.7582,-1.7582,-1.7582,-1.7582,-1.7582,-1.7483,-1.7179,-1.6842,-1.5648,-3.4545,-3.402,-3.3531,-3.2788,-3.2367,-3.216,0.0,0.0,-3.212,0.0,-3.1951,-3.1951,-3.1951,-3.1682,-3.1582,-3.1766,-3.1724,-3.1894,-3.2296,-3.3075,-3.3528,-3.3346,-3.4032,-3.428,-3.3741,-3.3848,0.0,0.0,-3.4698,-3.4926,-3.5379,-3.5435,-3.5398,-3.5205,-3.5109,-3.4949,-3.475,-3.4549,-3.4481,-3.4414,-3.4414,-3.4414,-3.4414,-3.4414,-3.4414,-3.4414,-3.4414,-3.4414,-3.4414,-3.4414,-3.4414,-3.4414,-3.4414,-3.4414,-3.4346,-3.3742,-3.352,-3.3451,-3.3185,-3.3129,-3.3199,-3.3479,-3.3563,-3.3479,-3.303,-3.2804,-3.2506,-3.2046,-3.1328,-3.0607,-3.0519,-2.9845,-2.9015,-2.8211,-2.7822,-2.7255,-2.583,-2.4999,-2.4241,-2.3309,-2.3135,-2.3135,-2.3135,-2.3408,-2.3662,-2.3769,-2.4336,-2.4824,-2.5039,-2.4447,-2.3682,-2.2976,-2.1887,-2.0672,-1.9443,-1.8938,-1.8527,-1.8213,-1.7793,-1.7582,-1.7582,-1.7582,-1.7582,-1.7582,-1.7582,-1.7582,-1.7582,-1.7582,-1.7483,-1.7279,-1.6955,-1.6086,-3.5182,-3.4922,-3.4717,-3.3479,-3.3598,-3.3869,0.0,0.0,-3.3815,-3.3251,-3.313,-3.313,-3.313,-3.2201,-3.1838,-3.2933,-3.2695,-3.2547,-3.3093,-3.3678,-3.3864,-3.3298,-3.4233,-3.4718,-3.4211,-3.4754,0.0,0.0,-3.5137,-3.521,-3.5184,-3.5886,-3.5879,-3.5125,-3.575,-3.5703,-3.4868,-3.475,-3.4563,-3.4414,-3.4414,-3.4414,-3.4414,-3.4414,-3.4414,-3.4414,-3.4414,-3.4414,-3.4414,-3.4414,-3.4414,-3.4414,-3.4414,-3.4414,-3.4414,-3.4332,-3.4346,-3.4346,-3.4346,-3.4346,-3.4346,-3.4346,-3.4346,-3.4346,-3.4346,-3.3742,-3.3143,-3.3143,-3.2434,-3.1723,-3.1723,-3.0983,-3.0241,-3.0165,-2.9574,-2.8223,-2.5242,-2.4498,-2.4241,-2.3309,-2.3135,-2.3135,-2.3135,-2.3154,-2.331,-2.3721,-2.3828,-2.415,-2.4961,-2.4202,-2.3675,-2.3943,-2.2793,-2.1988,-2.1887,-2.0483,-1.9576,-1.9576,-1.8318,-1.7582,-1.7582,-1.7582,-1.7582,-1.7582,-1.7582,-1.7582,-1.7582,-1.7582,-1.7582,-1.7582,-1.7279,-1.6418,-3.5318,-3.5044,-3.4828,-3.3719,-3.3303,-3.3108,-3.2895,-3.2641,-3.2492,-3.2641,-3.2695,-3.2911,-3.3646,-3.3108,-3.2718,-3.313,-3.3039,-3.3108,-3.3713,-3.3984,-3.4034,-3.3815,-3.4143,-3.4185,-3.363,0.0,0.0,0.0,0.0,-3.4731,-3.5172,-3.5439,-3.5451,-3.5163,-3.4954,-3.4695,-3.4316,-3.425,-3.4405,-3.4735,-3.4735,-3.4683,-3.4563,-3.4563,-3.4481,-3.4414,-3.4414,-3.4414,-3.4414,-3.4414,-3.4414,-3.4414,-3.4414,-3.4414,-3.4414,-3.4414,-3.4414,-3.4414,-3.4414,-3.4414,-3.4414,-3.4414,-3.4414,-3.4414,-3.4414,-3.4196,-3.3962,-3.3962,-3.3381,-3.2577,-3.1942,-3.1132,-3.0317,-2.9651,-2.9275,-2.8633,-2.6976,-2.5484,-2.4413,-2.4069,-2.3474,-2.3135,-2.3135,-2.3135,-2.3193,-2.335,-2.3613,-2.3994,-2.458,-2.46,-2.4439,-2.4141,-2.3683,-2.2994,-2.1887,-2.1285,-2.0475,-1.9443,-1.8923,-1.8304,-1.7582,-1.7582,-1.7582,-1.7582,-1.7582,-1.7582,-1.7582,-1.7582,-1.7582,-1.7582,-1.7279,-1.6961,-3.5891,-3.5559,-3.5278,-3.4399,-3.3869,-3.3578,-3.3527,-3.3108,-3.2841,-3.3214,-3.3282,-3.3491,-3.4234,-3.4052,-3.3783,-3.3783,-3.37,-3.3818,-3.4284,-3.4349,-3.4349,-3.4349,-3.4349,-3.4267,-3.3953,0.0,0.0,0.0,0.0,0.0,-3.5075,-3.5316,-3.5393,-3.5228,-3.4558,-3.4031,-3.3765,-3.3701,-3.3923,-3.4286,-3.4286,-3.4236,-3.412,-3.4273,-3.4295,-3.4161,-3.4312,-3.4414,-3.4414,-3.4414,-3.4414,-3.4414,-3.4414,-3.4414,-3.4414,-3.4414,-3.4414,-3.4414,-3.4414,-3.4414,-3.4414,-3.4414,-3.4414,-3.4414,-3.4414,-3.4414,-3.4414,-3.4414,-3.3811,-3.3073,-3.2434,-3.1489,-3.0456,-2.9521,-2.9287,-2.904,-2.845,-2.6883,-2.54,-2.4734,-2.4145,-2.3551,-2.3135,-2.3135,-2.3135,-2.3135,-2.3389,-2.373,-2.415,-2.458,-2.4716,-2.4444,-2.4515,-2.4106,-2.3003,-2.2391,-2.1676,-2.0554,-2.0048,-1.9435,-1.8722,-1.8304,-1.8101,-1.8101,-1.7786,-1.7582,-1.7582,-1.7582,-1.7582,-1.7582,-1.7378,-1.706,0.0,0.0,0.0,-3.5503,-3.5429,-3.5475,-3.5337,-3.5182,-3.5088,-3.5088,-3.4994,-3.4883,-3.493,-3.4947,-3.4947,-3.493,-3.4769,-3.4704,-3.4883,-3.4947,-3.4947,-3.4947,-3.4947,-3.5071,0.0,0.0,0.0,0.0,-3.5102,-3.4947,-3.4899,-3.5578,-3.5738,-3.5261,-3.4638,-3.3968,-3.3255,-3.3193,-3.3146,-3.3066,-3.3004,-3.3004,-3.3033,-3.3445,-3.3659,-3.3703,-3.4147,-3.4356,-3.4356,-3.4399,-3.4414,-3.4414,-3.4414,-3.4414,-3.4414,-3.4414,-3.4414,-3.4414,-3.4414,-3.4414,-3.4414,-3.4414,-3.4414,-3.4414,-3.4414,-3.4414,-3.4414,-3.4414,-3.3825,-3.3213,-3.3143,-3.206,-3.0683,-2.9998,-2.9599,-2.9419,-2.9419,-2.8609,-2.7302,-2.5294,-2.4872,-2.4457,-2.3387,-2.3135,-2.3135,-2.3144,-2.3135,-2.3301,-2.374,-2.415,-2.458,-2.5019,-2.5276,-2.5342,-2.5333,-2.3908,-2.2994,-2.2885,-2.1684,-2.0987,-2.0885,-1.9849,-1.9228,-1.9228,-1.8199,-1.7582,-1.7582,-1.7582,-1.7582,-1.7582,-1.7582,-1.6617,-3.7358,0.0,0.0,0.0,0.0,0.0,-3.529,-3.4841,-3.4462,-3.4577,-3.4545,-3.4769,-3.5464,-3.5588,-3.5532,-3.5464,-3.5283,-3.5224,-3.5241,-3.5481,-3.5599,-3.5599,-3.5599,-3.5644,0.0,0.0,0.0,0.0,-3.5705,-3.5526,-3.5287,-3.5224,-3.4988,-3.4446,-3.4238,-3.4089,-3.3929,-3.356,-3.3572,-3.3954,-3.3531,-3.33,-3.3176,-3.3291,-3.3317,-3.3221,-3.3333,-3.3279,-3.3223,-3.4089,-3.4414,-3.4414,-3.4414,-3.4414,-3.4414,-3.4414,-3.4414,-3.4414,-3.4414,-3.4414,-3.4414,-3.4414,-3.4414,-3.4414,-3.4414,-3.4414,-3.4414,-3.4414,-3.4264,-3.3825,-3.2648,-3.1294,-3.0062,-2.9869,-2.9702,-2.9702,-2.9702,-2.9456,-2.8791,-2.7302,-2.6472,-2.563,-2.4542,-2.4296,-2.4049,-2.3222,-2.3135,-2.3301,-2.374,-2.415,-2.458,-2.5019,-2.5372,-2.5538,-2.5333,-2.4932,-2.4106,-2.2994,-2.2584,-2.1887,-2.0987,-1.9849,-1.9228,-1.9228,-1.8199,-1.7582,-1.7582,-1.7582,-1.7582,-1.7582,-1.7378,-1.608,-3.756,-3.7228,-3.6921,-3.69,0.0,0.0,-3.5959,-3.5562,-3.5279,0.0,-3.5307,-3.5487,-3.6028,-3.6105,-3.6079,-3.6028,-3.6062,-3.5924,-3.547,-3.5705,-3.5907,-3.5907,-3.5907,-3.595,0.0,-3.5994,-3.595,-3.6156,-3.5994,-3.582,-3.5616,-3.5407,-3.5021,-3.435,-3.4301,-3.4145,-3.3761,-3.349,-3.3472,-3.3846,-3.3537,-3.3206,-3.2884,-3.3096,-3.299,-3.2667,-3.2886,-3.2941,-3.2859,-3.3427,-3.3842,-3.4051,-3.4312,-3.4414,-3.4414,-3.4414,-3.4414,-3.4414,-3.4414,-3.4414,-3.4414,-3.4414,-3.4414,-3.4414,-3.4414,-3.4414,-3.4414,-3.4414,-3.3977,-3.3171,-3.1928,-3.0709,-2.9792,-2.9792,-2.9792,-2.9792,-2.9689,-2.9611,-2.9275,-2.8119,-2.7464,-2.6719,-2.5535,-2.4957,-2.4478,-2.381,-2.3309,-2.3232,-2.3486,-2.4043,-2.4512,-2.4775,-2.5361,-2.5635,-2.544,-2.5333,-2.4922,-2.4007,-2.371,-2.3003,-2.1785,-2.0562,-1.9642,-1.9228,-1.8199,-1.7582,-1.7582,-1.7582,-1.7582,-1.7582,-1.6942,-1.5541,-3.7703,-3.734,-3.7076,-3.7055,-3.7055,0.0,-3.6978,-3.6904,-3.6847,-3.6746,-3.6671,-3.6636,-3.6654,-3.6654,-3.6636,-3.6681,-3.6964,-3.6821,-3.5749,-3.5864,-3.6105,-3.6105,-3.6105,-3.6207,-3.6568,-3.6308,-3.6224,-3.6609,-3.6224,-3.595,-3.5933,-3.5864,-3.5448,-3.464,-3.4688,-3.4284,-3.3443,-3.3391,-3.3339,-3.3339,-3.3235,-3.2933,-3.2508,-3.2926,-3.2801,-3.2333,-3.2824,-3.3015,-3.2954,-3.2904,-3.3064,-3.3478,-3.3978,-3.424,-3.4312,-3.4312,-3.4356,-3.4414,-3.4414,-3.4414,-3.4414,-3.4414,-3.4414,-3.4414,-3.4414,-3.4414,-3.4414,-3.4414,-3.3311,-3.2074,-3.1267,-3.0482,-2.9934,-2.9792,-2.9792,-2.9702,-2.9509,-2.9341,-2.9094,-2.8255,-2.7947,-2.7383,-2.6202,-2.5136,-2.4498,-2.4327,-2.3647,-2.3135,-2.3135,-2.3887,-2.4414,-2.4414,-2.5205,-2.5742,-2.5742,-2.544,-2.5333,-2.5333,-2.4735,-2.3917,-2.2994,-2.1591,-2.0269,-1.9228,-1.8206,-1.7582,-1.7582,-1.7582,-1.7582,-1.7582,-1.6399,-1.5102,-3.8216,-3.7897,-3.765,0.0,-3.8101,0.0,-3.7505,-3.7649,-3.7718,-3.702,-3.714,-3.7435,-3.7613,-3.7488,-3.7505,-3.7885,-3.7812,-3.7506,-3.686,-3.7052,-3.7281,-3.7281,-3.7281,0.0,-3.7392,-3.7299,-3.7299,-3.7392,-3.6719,-3.6249,-3.6147,-3.5571,-3.5118,-3.4818,-3.5085,-3.5161,-3.4958,-3.4544,-3.4333,-3.4333,-3.3531,-3.3145,-3.3055,-3.3112,-3.3121,-3.3029,-3.3115,-3.3123,-3.306,-3.3475,-3.3365,-3.2879,-3.2896,-3.3209,-3.3659,-3.3659,-3.3978,-3.4414,-3.4414,-3.4414,-3.4414,-3.4414,-3.4414,-3.4414,-3.4414,-3.4414,-3.4414,-3.4414,-3.3742,-3.2791,-3.2074,-3.1267,-3.0558,-2.9934,-2.9792,-2.9792,-2.9702,-2.9197,-2.8621,-2.845,-2.8131,-2.7221,-2.5368,-2.4872,-2.4467,-2.3474,-2.3222,-2.3135,-2.3135,-2.3887,-2.4414,-2.4414,-2.5205,-2.5742,-2.5742,-2.5635,-2.5538,-2.5333,-2.443,-2.3628,-2.322,-2.1097,-1.9879,-1.9569,-1.8311,-1.7582,-1.7582,-1.7582,-1.7582,-1.7582,-1.6187,-1.4894,0.0,0.0,0.0,-3.8696,0.0,0.0,0.0,-3.8373,-3.8436,-3.7995,-3.8077,-3.8273,-3.8392,-3.8437,-3.8475,-3.8575,-3.8588,-3.8493,-3.82,-3.8029,-3.7948,-3.7948,-3.7948,0.0,-3.7948,-3.7948,-3.7913,-3.7739,-3.7301,-3.6956,-3.69,-3.6539,-3.6079,-3.5571,-3.5688,-3.5571,-3.5148,-3.4897,-3.4816,-3.5005,-3.4333,-3.3969,-3.3887,-3.3732,-3.3475,-3.3198,-3.2949,-3.2895,-3.3108,-3.3037,-3.2931,-3.2851,-3.3063,-3.3291,-3.3554,-3.3586,-3.3725,-3.3978,-3.4312,-3.4414,-3.4414,-3.4414,-3.4414,-3.4414,-3.4414,-3.4414,-3.4414,-3.4414,-3.3811,-3.3003,-3.229,-3.1489,-3.0683,-3.0011,-2.9792,-2.9792,-2.9611,-2.9275,-2.8688,-2.7718,-2.7302,-2.6801,-2.5797,-2.5052,-2.4478,-2.3897,-2.3396,-2.3135,-2.3135,-2.3887,-2.4414,-2.4414,-2.5205,-2.5742,-2.5742,-2.5216,-2.4815,-2.451,-2.3411,-2.2299,-2.1473,-2.0158,-1.925,-1.8632,-1.8003,-1.7582,-1.7582,-1.7582,-1.7582,-1.7582,-1.5648,-1.4352,0.0,0.0,0.0,0.0,0.0,-3.9082,0.0,0.0,0.0,0.0,0.0,0.0,0.0,0.0,0.0,0.0,0.0,0.0,0.0,-3.9037,0.0,-3.8548,-3.8493,0.0,-3.8462,-3.8387,-3.8277,-3.8114,-3.7809,-3.7631,-3.7613,-3.7559,-3.7132,-3.6298,-3.6274,-3.589,-3.5195,-3.5118,-3.5211,-3.5424,-3.5118,-3.4866,-3.4657,-3.4366,-3.3917,-3.3355,-3.3002,-3.3002,-3.313,-3.2664,-3.2718,-3.3043,-3.3322,-3.3486,-3.3472,-3.3372,-3.3433,-3.3594,-3.4118,-3.438,-3.4414,-3.4481,-3.4414,-3.4414,-3.4414,-3.4414,-3.4414,-3.4414,-3.3962,-3.3227,-3.2506,-3.1709,-3.0908,-3.0216,-2.9934,-2.9702,-2.9509,-2.9341,-2.8767,-2.7221,-2.6565,-2.6235,-2.5986,-2.4988,-2.4327,-2.4241,-2.356,-2.3135,-2.3135,-2.3818,-2.4326,-2.4404,-2.5127,-2.5538,-2.5421,-2.4599,-2.389,-2.3493,-2.2291,-2.1073,-1.9937,-1.9332,-1.861,-1.7582,-1.7582,-1.7582,-1.7582,-1.7582,-1.7582,-1.7582,-1.5209,-1.4024,0.0,0.0,0.0,0.0,-3.9364,0.0,0.0,0.0,-3.9458,-3.9298,0.0,0.0,0.0,0.0,0.0,0.0,0.0,0.0,-4.0521,-4.0333,-3.9974,-3.9421,-3.92,-3.9099,0.0,-3.8711,-3.8554,-3.8755,-3.8231,-3.7825,-3.7684,-3.7343,-3.6929,-3.647,-3.6399,-3.6333,-3.6207,-3.5871,-3.5684,-3.5577,-3.5228,-3.4994,-3.4883,-3.4851,-3.4497,-3.4034,-3.4431,-3.4102,-3.3251,-3.3713,-3.3594,-3.3108,-3.2379,-3.2497,-3.2942,-3.239,-3.2849,-3.3703,-3.3986,-3.42,-3.4414,-3.4631,-3.4563,-3.4414,-3.4414,-3.4414,-3.4414,-3.4414,-3.4332,-3.4113,-3.3297,-3.2506,-3.1783,-3.097,-3.0279,-2.9792,-2.9792,-2.9118,-2.8542,-2.8303,-2.6812,-2.5242,-2.409,-2.3754,-2.3493,-2.3309,-2.3135,-2.3135,-2.3135,-2.3564,-2.4004,-2.4375,-2.4853,-2.49,-2.4365,-2.4187,-2.3692,-2.2685,-2.1582,-2.0885,-2.0775,-1.9346,-1.8206,-1.7582,-1.7582,-1.7582,-1.7582,-1.7582,-1.7582,-1.7582,-1.5209,-1.4132,0.0,0.0,0.0,0.0,0.0,0.0,-3.9772,0.0,-4.0036,0.0,0.0,0.0,0.0,0.0,0.0,0.0,-4.0587,0.0,0.0,0.0,-4.0184,0.0,0.0,0.0,0.0,0.0,0.0,0.0,-3.882,-3.8505,-3.818,-3.8162,-3.7839,-3.7214,-3.7157,-3.6946,-3.6446,-3.6298,-3.6165,-3.6054,-3.5705,-3.5453,-3.5304,-3.5088,-3.4851,-3.4546,-3.4448,-3.4333,-3.4202,-3.4134,-3.4134,-3.4102,-3.3423,-3.2851,-3.2391,-3.2229,-3.237,-3.2819,-3.3711,-3.4089,-3.4252,-3.4566,-3.4631,-3.4563,-3.4414,-3.4414,-3.4414,-3.4414,-3.4414,-3.4196,-3.3437,-3.2932,-3.2577,-3.1783,-3.1355,-3.1009,-3.0558,-3.0152,-2.9601,-2.8688,-2.7799,-2.6883,-2.5663,-2.4337,-2.3503,-2.3329,-2.3232,-2.2872,-2.2325,-2.2683,-2.2823,-2.2662,-2.3053,-2.3259,-2.3158,-2.2584,-2.1988,-2.1387,-2.0166,-1.9346,-1.925,-1.8527,-1.801,-1.7582,-1.7582,-1.7582,-1.7582,-1.7582,-1.7582,-1.7582,-1.5209,-1.4024,-4.0792,0.0,0.0,0.0,0.0,0.0,0.0,0.0,0.0,0.0,0.0,0.0,0.0,0.0,0.0,0.0,0.0,-4.062,0.0,-4.0338,0.0,0.0,0.0,0.0,0.0,0.0,0.0,0.0,0.0,-3.9069,-3.87,-3.8737,-3.8535,-3.7943,-3.7754,-3.738,-3.689,-3.6711,-3.6586,-3.6481,-3.6232,-3.595,-3.5677,-3.5424,-3.5102,-3.4739,-3.4497,-3.4431,-3.4464,-3.4184,-3.4234,-3.4415,-3.4018,-3.3266,-3.2398,-3.2452,-3.242,-3.2452,-3.3466,-3.4032,-3.4435,-3.486,-3.5118,-3.5169,-3.4668,-3.4668,-3.4787,-3.4549,-3.4481,-3.4332,-3.3673,-3.3367,-3.3073,-3.2506,-3.2074,-3.1636,-3.1044,-3.0758,-3.0241,-2.9094,-2.8633,-2.8211,-2.7302,-2.5568,-2.4251,-2.3907,-2.3647,-2.3125,-2.2227,-2.2311,-2.2318,-2.1795,-2.2092,-2.2158,-2.2047,-2.1387,-2.068,-2.0181,-1.9153,-1.8429,-1.8122,-1.8016,-1.7905,-1.7582,-1.7582,-1.7582,-1.7582,-1.7582,-1.7582,-1.7582,-1.553,-1.446,0.0,0.0,0.0,-4.0645,0.0,0.0,0.0,0.0,-4.0474,0.0,0.0,0.0,0.0,0.0,0.0,-4.0778,0.0,0.0,0.0,0.0,0.0,0.0,0.0,0.0,0.0,0.0,0.0,0.0,0.0,0.0,-3.9186,-3.8741,-3.8491,-3.8478,-3.7843,-3.7632,-3.7859,-3.721,-3.6803,-3.6706,-3.6666,-3.6381,-3.5907,-3.5864,-3.5357,-3.4431,-3.4883,-3.4448,-3.3495,-3.3917,-3.3764,-3.3235,-3.3251,-3.3182,-3.313,-3.3161,-3.3115,-3.3096,-3.333,-3.4189,-3.5263,-3.57,-3.6259,-3.6477,-3.5285,-3.5365,-3.5672,-3.4883,-3.4698,-3.4631,-3.4414,-3.3811,-3.3213,-3.3143,-3.206,-3.097,-3.0895,-3.0343,-2.9792,-2.9792,-2.904,-2.8383,-2.8131,-2.7139,-2.6058,-2.4957,-2.4563,-2.4155,-2.3135,-2.3057,-2.3022,-2.2804,-2.2811,-2.2268,-2.1025,-2.0885,-2.0483,-1.9376,-1.9078,-1.8757,-1.8422,-1.8115,-1.7905,-1.7582,-1.7582,-1.7582,-1.7582,-1.7582,-1.7582,-1.7582,-1.6393,-1.5861,0.0,0.0,-4.0937,-4.0825,0.0,0.0,0.0,0.0,0.0,0.0,0.0,0.0,0.0,0.0,0.0,-4.0328,-4.0204,0.0,0.0,0.0,0.0,0.0,0.0,0.0,0.0,0.0,0.0,0.0,0.0,0.0,0.0,-3.9626,-3.9414,-3.898,-3.8726,-3.8505,-3.8314,-3.7931,-3.7667,-3.7488,-3.7323,-3.6943,-3.6422,-3.6422,-3.6028,-3.5386,-3.5554,-3.5207,-3.4561,-3.4691,-3.4578,-3.4317,-3.4317,-3.4317,-3.4251,-3.3459,-3.3181,-3.3295,-3.4344,-3.5227,-3.5985,-3.6551,-3.6814,-3.6859,-3.6306,-3.6024,-3.5849,-3.5544,-3.5184,-3.4817,-3.4631,-3.4414,-3.4182,-3.4045,-3.3157,-3.2277,-3.1783,-3.1057,-3.0419,-2.9856,-2.9546,-2.93,-2.9209,-2.8633,-2.7476,-2.5147,-2.4659,-2.3973,-2.2413,-2.2148,-2.2097,-2.1854,-2.1275,-2.0802,-2.0923,-2.0285,-1.968,-1.9272,-1.9175,-1.8959,-1.8422,-1.8318,-1.8115,-1.7582,-1.7582,-1.7582,-1.7582,-1.7582,-1.7582,-1.7582,-1.7153,-1.6611,-4.0933,-4.0977,0.0,-4.0952,-4.0974,0.0,-4.1035,0.0,-4.1125,0.0,0.0,0.0,0.0,0.0,0.0,-4.01,-3.9792,0.0,0.0,-3.8983,0.0,0.0,0.0,0.0,0.0,0.0,0.0,0.0,0.0,0.0,0.0,0.0,-3.9806,-3.9453,-3.9226,-3.898,-3.8733,-3.846,-3.8252,-3.8114,-3.7929,-3.7578,-3.7117,-3.702,-3.6706,-3.6232,-3.6232,-3.5907,-3.547,-3.5453,-3.5379,-3.5118,-3.5118,-3.5148,-3.5131,-3.4169,-3.3681,-3.3686,-3.4835,-3.5712,-3.6358,-3.6943,-3.7324,-3.7413,-3.6859,-3.6399,-3.6146,-3.631,-3.5738,-3.5053,-3.5389,-3.5102,-3.475,-3.4563,-3.3894,-3.3073,-3.229,-3.1489,-3.0683,-2.9921,-2.9792,-2.9792,-2.9689,-2.9131,-2.8063,-2.6152,-2.5326,-2.4392,-2.2921,-2.2403,-2.2041,-2.1763,-2.1198,-2.0908,-2.0923,-2.0285,-1.968,-1.9272,-1.9175,-1.8966,-1.8541,-1.8429,-1.8317,-1.8211,-1.7907,-1.7907,-1.8117,-1.7795,-1.7582,-1.7582,-1.7582,-1.7259]},{"header":{"parameterUnit":"m.s-1","parameterCategory":1,"la1":30.6,"la2":29.2853,"lo1":-89.7004,"lo2":-87.6739,"dy":0.0162,"dx":0.0183,"nx":112,"ny":82,"refTime":"2024-04-13T06:00:00:Z","depth":0,"parameterNumber":3,"parameterNumberName":"V-component_of_WINDS"},"data":[0.0,0.0,0.0,0.0,0.0,0.0,0.0,0.0,0.0,0.0,0.0,0.0,0.0,0.0,0.0,0.0,0.0,0.0,0.0,0.0,0.0,0.0,0.0,0.0,0.0,0.0,0.0,0.0,0.0,0.0,0.0,0.0,0.0,0.0,0.0,0.0,0.0,0.0,0.0,0.0,0.0,0.0,0.0,0.0,0.0,0.0,0.0,0.0,0.0,0.0,0.0,0.0,0.0,0.0,0.0,0.0,0.0,0.0,0.0,0.0,0.0,0.0,0.0,0.0,0.0,0.0,0.0,0.0,0.0,0.0,0.0,0.0,0.0,0.0,0.0,0.0,0.0,0.0,0.0,0.0,0.0,0.0,0.0,0.0,0.0,0.0,0.0,0.0,0.0,0.0,-4.0952,-4.1094,-4.1095,-4.0996,-4.0718,-4.0694,-4.0694,-4.0694,0.0,0.0,0.0,0.0,0.0,0.0,0.0,0.0,0.0,0.0,0.0,0.0,0.0,0.0,0.0,0.0,0.0,0.0,0.0,0.0,0.0,0.0,0.0,0.0,0.0,0.0,0.0,0.0,0.0,0.0,0.0,0.0,0.0,0.0,0.0,0.0,0.0,0.0,0.0,0.0,0.0,0.0,0.0,0.0,0.0,0.0,0.0,0.0,0.0,0.0,0.0,0.0,0.0,0.0,0.0,0.0,0.0,0.0,0.0,0.0,0.0,0.0,0.0,0.0,0.0,0.0,0.0,0.0,0.0,0.0,0.0,0.0,0.0,0.0,0.0,0.0,0.0,0.0,0.0,0.0,0.0,0.0,0.0,0.0,0.0,0.0,0.0,0.0,0.0,0.0,0.0,0.0,0.0,0.0,0.0,0.0,0.0,0.0,0.0,0.0,0.0,0.0,0.0,0.0,-4.0957,-4.11,-4.1109,-4.0991,-4.0718,-4.0694,-4.0694,-4.0694,0.0,0.0,0.0,0.0,0.0,0.0,0.0,0.0,0.0,0.0,0.0,0.0,0.0,0.0,0.0,0.0,0.0,0.0,0.0,0.0,0.0,0.0,0.0,0.0,0.0,0.0,0.0,0.0,0.0,0.0,0.0,0.0,0.0,0.0,0.0,0.0,0.0,0.0,0.0,0.0,0.0,0.0,0.0,0.0,0.0,0.0,0.0,0.0,0.0,0.0,0.0,0.0,0.0,0.0,0.0,0.0,0.0,0.0,0.0,0.0,0.0,0.0,0.0,0.0,0.0,0.0,0.0,0.0,0.0,0.0,0.0,0.0,0.0,0.0,0.0,0.0,0.0,0.0,0.0,0.0,0.0,0.0,0.0,0.0,0.0,0.0,0.0,0.0,0.0,0.0,0.0,0.0,0.0,0.0,0.0,0.0,0.0,0.0,0.0,0.0,0.0,0.0,0.0,-4.0996,-4.1021,-4.1095,-4.102,-4.0904,-4.0718,-4.0629,-4.0615,-4.0694,-4.0699,0.0,0.0,0.0,0.0,0.0,0.0,0.0,0.0,0.0,0.0,0.0,0.0,0.0,0.0,0.0,0.0,0.0,0.0,0.0,0.0,0.0,0.0,0.0,0.0,0.0,0.0,0.0,0.0,0.0,0.0,0.0,0.0,0.0,0.0,0.0,0.0,0.0,0.0,0.0,0.0,0.0,0.0,0.0,0.0,0.0,0.0,0.0,0.0,0.0,0.0,0.0,0.0,0.0,0.0,0.0,0.0,0.0,0.0,0.0,0.0,0.0,0.0,0.0,0.0,0.0,0.0,0.0,0.0,0.0,0.0,0.0,0.0,0.0,0.0,0.0,0.0,0.0,0.0,0.0,0.0,0.0,0.0,0.0,0.0,0.0,0.0,0.0,0.0,0.0,0.0,0.0,0.0,0.0,0.0,0.0,0.0,0.0,0.0,0.0,0.0,0.0,0.0,-4.1049,-4.1111,-4.1095,-4.1013,-4.0887,-4.0718,-4.0602,-4.0588,-4.0694,-4.0699,0.0,0.0,0.0,0.0,0.0,0.0,0.0,0.0,0.0,0.0,0.0,0.0,0.0,0.0,0.0,0.0,0.0,0.0,0.0,0.0,0.0,0.0,0.0,0.0,0.0,0.0,0.0,0.0,0.0,0.0,0.0,0.0,0.0,0.0,0.0,0.0,0.0,0.0,0.0,0.0,0.0,0.0,0.0,0.0,0.0,0.0,0.0,0.0,0.0,0.0,0.0,0.0,0.0,0.0,0.0,0.0,0.0,0.0,0.0,0.0,0.0,0.0,0.0,0.0,0.0,0.0,0.0,0.0,0.0,0.0,0.0,0.0,0.0,0.0,0.0,0.0,0.0,0.0,0.0,0.0,0.0,0.0,0.0,0.0,0.0,0.0,0.0,0.0,0.0,0.0,0.0,0.0,0.0,0.0,0.0,0.0,0.0,0.0,0.0,0.0,0.0,0.0,-4.1064,-4.1111,-4.1095,-4.1081,-4.0986,-4.0718,-4.0687,-4.0699,-4.0694,-4.0694,0.0,0.0,0.0,0.0,0.0,0.0,0.0,0.0,0.0,0.0,0.0,0.0,0.0,0.0,0.0,0.0,0.0,0.0,0.0,0.0,0.0,0.0,0.0,0.0,0.0,0.0,0.0,0.0,0.0,0.0,0.0,0.0,0.0,0.0,0.0,0.0,0.0,0.0,0.0,0.0,0.0,0.0,0.0,0.0,0.0,0.0,0.0,0.0,0.0,0.0,0.0,0.0,0.0,0.0,0.0,0.0,0.0,0.0,0.0,0.0,0.0,0.0,0.0,0.0,0.0,0.0,0.0,0.0,0.0,0.0,0.0,0.0,0.0,0.0,0.0,0.0,0.0,0.0,0.0,0.0,0.0,0.0,0.0,0.0,0.0,0.0,0.0,0.0,0.0,0.0,0.0,0.0,0.0,0.0,0.0,0.0,0.0,0.0,0.0,0.0,0.0,0.0,-4.1052,-4.1094,-4.11,-4.1037,-4.0898,-4.0723,-4.0617,-4.0623,-4.0694,0.0,0.0,0.0,0.0,0.0,0.0,0.0,0.0,0.0,0.0,0.0,0.0,0.0,0.0,0.0,0.0,0.0,0.0,0.0,0.0,0.0,0.0,0.0,0.0,0.0,0.0,0.0,0.0,0.0,0.0,0.0,0.0,0.0,0.0,0.0,0.0,0.0,0.0,0.0,0.0,0.0,0.0,0.0,0.0,0.0,0.0,0.0,0.0,0.0,0.0,0.0,0.0,0.0,0.0,0.0,0.0,0.0,0.0,0.0,0.0,0.0,0.0,0.0,0.0,0.0,0.0,0.0,0.0,0.0,0.0,0.0,0.0,0.0,0.0,0.0,0.0,0.0,0.0,0.0,0.0,0.0,0.0,0.0,0.0,0.0,0.0,0.0,0.0,0.0,0.0,0.0,0.0,0.0,0.0,0.0,0.0,0.0,0.0,0.0,0.0,0.0,0.0,-4.0991,-4.1054,-4.1101,-4.1109,-4.1017,-4.0898,-4.0723,-4.0617,-4.059,-4.0687,0.0,0.0,0.0,0.0,0.0,0.0,0.0,0.0,0.0,0.0,0.0,0.0,0.0,0.0,0.0,0.0,0.0,0.0,0.0,0.0,0.0,0.0,0.0,0.0,0.0,0.0,0.0,0.0,0.0,0.0,0.0,0.0,0.0,0.0,0.0,0.0,0.0,0.0,0.0,0.0,0.0,0.0,0.0,0.0,0.0,0.0,0.0,0.0,0.0,0.0,0.0,0.0,0.0,0.0,0.0,0.0,0.0,0.0,0.0,0.0,0.0,0.0,0.0,0.0,0.0,0.0,0.0,0.0,0.0,0.0,0.0,0.0,0.0,0.0,0.0,0.0,0.0,0.0,0.0,0.0,0.0,0.0,0.0,0.0,0.0,0.0,0.0,0.0,0.0,0.0,0.0,0.0,0.0,0.0,0.0,0.0,0.0,0.0,0.0,0.0,0.0,0.0,-4.0994,-4.1052,-4.1109,-4.1096,-4.1091,-4.0993,-4.073,-4.0699,-4.0692,0.0,0.0,0.0,0.0,0.0,0.0,0.0,0.0,0.0,0.0,0.0,0.0,0.0,0.0,0.0,0.0,0.0,0.0,0.0,0.0,0.0,0.0,0.0,0.0,0.0,0.0,0.0,0.0,0.0,0.0,0.0,0.0,0.0,0.0,0.0,0.0,0.0,0.0,0.0,0.0,0.0,0.0,0.0,0.0,0.0,0.0,0.0,0.0,0.0,0.0,0.0,0.0,0.0,0.0,0.0,0.0,0.0,0.0,0.0,0.0,0.0,0.0,0.0,0.0,0.0,0.0,0.0,0.0,0.0,0.0,0.0,0.0,0.0,0.0,0.0,0.0,0.0,0.0,0.0,0.0,0.0,0.0,0.0,0.0,0.0,0.0,0.0,0.0,0.0,0.0,0.0,0.0,0.0,0.0,0.0,0.0,0.0,0.0,0.0,0.0,0.0,0.0,0.0,-4.1051,-4.1087,-4.1104,-4.1101,-4.1052,-4.096,-4.0789,-4.0648,-4.0808,-4.1437,0.0,0.0,0.0,0.0,0.0,0.0,0.0,0.0,0.0,0.0,0.0,0.0,0.0,0.0,0.0,0.0,0.0,0.0,0.0,0.0,0.0,0.0,0.0,0.0,0.0,0.0,0.0,0.0,0.0,0.0,0.0,0.0,0.0,0.0,0.0,0.0,0.0,0.0,0.0,0.0,0.0,0.0,0.0,0.0,0.0,0.0,0.0,0.0,0.0,0.0,0.0,0.0,0.0,0.0,0.0,0.0,0.0,0.0,0.0,0.0,0.0,0.0,0.0,0.0,0.0,0.0,0.0,0.0,0.0,0.0,0.0,0.0,0.0,0.0,0.0,0.0,0.0,0.0,0.0,0.0,0.0,0.0,0.0,0.0,0.0,0.0,0.0,0.0,0.0,0.0,0.0,0.0,0.0,0.0,0.0,0.0,0.0,0.0,0.0,0.0,0.0,0.0,-4.1601,-4.1925,-4.2142,-4.2139,-4.2025,-4.1902,-4.1779,-4.1589,-4.1724,-4.2248,0.0,0.0,0.0,0.0,0.0,0.0,0.0,0.0,0.0,0.0,0.0,0.0,0.0,0.0,0.0,0.0,0.0,0.0,0.0,0.0,0.0,0.0,0.0,0.0,0.0,0.0,0.0,0.0,0.0,0.0,0.0,0.0,0.0,0.0,0.0,0.0,0.0,0.0,0.0,0.0,0.0,0.0,0.0,0.0,0.0,0.0,0.0,0.0,0.0,0.0,0.0,0.0,0.0,0.0,0.0,0.0,0.0,0.0,0.0,0.0,0.0,0.0,0.0,0.0,0.0,0.0,0.0,0.0,0.0,0.0,0.0,0.0,0.0,0.0,0.0,0.0,0.0,0.0,0.0,0.0,0.0,0.0,0.0,0.0,0.0,0.0,0.0,0.0,0.0,0.0,0.0,0.0,0.0,0.0,0.0,0.0,0.0,0.0,0.0,0.0,0.0,0.0,-4.2499,-4.3188,-4.3673,-4.3656,-4.3486,-4.3306,-4.3201,-4.3065,-4.303,-4.3102,0.0,0.0,0.0,0.0,0.0,0.0,0.0,0.0,0.0,0.0,0.0,0.0,0.0,0.0,0.0,0.0,0.0,0.0,0.0,0.0,0.0,0.0,0.0,0.0,0.0,0.0,0.0,0.0,0.0,0.0,0.0,0.0,0.0,0.0,0.0,0.0,0.0,0.0,0.0,0.0,0.0,0.0,0.0,0.0,0.0,0.0,0.0,0.0,0.0,0.0,0.0,0.0,0.0,0.0,0.0,0.0,0.0,0.0,0.0,0.0,-3.4662,0.0,0.0,0.0,0.0,0.0,0.0,0.0,0.0,0.0,0.0,0.0,0.0,0.0,0.0,0.0,0.0,0.0,0.0,0.0,0.0,0.0,0.0,0.0,0.0,0.0,0.0,0.0,0.0,0.0,0.0,0.0,0.0,0.0,0.0,0.0,0.0,0.0,0.0,0.0,0.0,0.0,-4.328,-4.3434,-4.3493,-4.3403,-4.3238,-4.3143,-4.3125,-4.2956,-4.3158,-4.3828,-4.3321,0.0,0.0,0.0,0.0,0.0,0.0,0.0,0.0,0.0,0.0,0.0,0.0,0.0,0.0,0.0,0.0,0.0,0.0,0.0,0.0,0.0,0.0,0.0,0.0,0.0,0.0,0.0,0.0,0.0,0.0,0.0,0.0,0.0,0.0,0.0,0.0,0.0,0.0,0.0,0.0,0.0,0.0,0.0,0.0,0.0,0.0,0.0,0.0,0.0,0.0,0.0,0.0,0.0,0.0,0.0,0.0,0.0,0.0,0.0,0.0,-3.4994,0.0,0.0,0.0,0.0,0.0,0.0,0.0,0.0,0.0,0.0,0.0,0.0,0.0,0.0,0.0,0.0,0.0,0.0,0.0,0.0,0.0,0.0,0.0,0.0,0.0,0.0,0.0,0.0,0.0,0.0,0.0,0.0,0.0,0.0,0.0,0.0,0.0,0.0,0.0,0.0,-4.4137,-4.4425,-4.4627,-4.4558,-4.4415,-4.4356,-4.4345,-4.4149,-4.425,-4.469,-4.4364,0.0,0.0,0.0,0.0,0.0,0.0,0.0,0.0,0.0,0.0,0.0,0.0,0.0,0.0,0.0,0.0,0.0,0.0,0.0,0.0,0.0,0.0,0.0,0.0,0.0,0.0,0.0,0.0,0.0,0.0,0.0,0.0,0.0,0.0,0.0,0.0,0.0,0.0,0.0,0.0,0.0,0.0,0.0,0.0,0.0,0.0,0.0,0.0,0.0,0.0,0.0,0.0,0.0,-3.4947,-3.4883,-3.5321,-3.4787,-3.4578,-3.4739,-3.5291,-3.5446,-3.5383,-3.5441,0.0,0.0,0.0,0.0,0.0,0.0,0.0,0.0,0.0,0.0,0.0,0.0,0.0,0.0,0.0,0.0,0.0,0.0,0.0,0.0,0.0,0.0,0.0,0.0,-4.0486,-4.0915,0.0,0.0,0.0,0.0,0.0,0.0,0.0,0.0,0.0,0.0,0.0,0.0,-4.4982,-4.5522,-4.5867,-4.5832,-4.5722,-4.5658,-4.5658,-4.551,-4.54,-4.5399,-4.5399,-4.5438,0.0,0.0,0.0,0.0,0.0,0.0,0.0,0.0,0.0,0.0,0.0,0.0,0.0,0.0,0.0,0.0,0.0,0.0,0.0,0.0,0.0,0.0,0.0,0.0,0.0,0.0,0.0,0.0,0.0,0.0,0.0,0.0,-3.3613,-3.3831,0.0,0.0,0.0,0.0,0.0,0.0,0.0,0.0,0.0,0.0,0.0,0.0,0.0,-3.5503,-3.5354,-3.5446,-3.5446,-3.5354,-3.5337,-3.5429,-3.5577,-3.5487,-3.5441,-3.5487,-3.5532,0.0,-3.4787,-3.4897,0.0,0.0,0.0,0.0,0.0,0.0,0.0,0.0,0.0,0.0,0.0,0.0,0.0,0.0,0.0,0.0,0.0,0.0,0.0,0.0,0.0,0.0,-3.9994,-4.0738,-4.1156,-4.1474,0.0,-4.2087,-4.2551,-4.2962,-4.3048,0.0,0.0,0.0,0.0,0.0,0.0,0.0,-4.5699,-4.5744,-4.5752,-4.5563,-4.553,-4.5494,-4.5438,-4.5419,-4.54,-4.54,-4.54,-4.5457,-4.5568,-4.5452,0.0,0.0,0.0,0.0,0.0,0.0,0.0,0.0,0.0,0.0,0.0,0.0,0.0,0.0,0.0,0.0,0.0,0.0,0.0,0.0,0.0,0.0,0.0,0.0,0.0,0.0,0.0,0.0,0.0,-3.3639,-3.3761,-3.4539,-3.4242,-3.4158,0.0,0.0,0.0,0.0,0.0,0.0,0.0,0.0,0.0,-3.5577,-3.5549,-3.5503,-3.5458,-3.5503,-3.5503,-3.5458,-3.5492,-3.5537,-3.5566,-3.5475,-3.5694,-3.6173,-3.6173,-3.6269,-3.6446,-3.5576,-3.5379,-3.5549,0.0,0.0,0.0,0.0,-3.5622,-3.5622,-3.5622,-3.5622,0.0,-3.5827,0.0,0.0,0.0,0.0,0.0,0.0,0.0,0.0,0.0,0.0,-4.0793,-4.1052,-4.1643,-4.2255,-4.2565,-4.3284,-4.3866,0.0,-4.3854,-4.4208,-4.5239,0.0,0.0,0.0,0.0,-4.5859,-4.5814,-4.5727,-4.5651,-4.5568,-4.5568,-4.5531,-4.5513,-4.5513,-4.5495,-4.5476,-4.5458,-4.5477,-4.5494,-4.561,-4.5501,0.0,0.0,0.0,0.0,0.0,0.0,0.0,0.0,0.0,0.0,0.0,0.0,0.0,0.0,0.0,0.0,0.0,0.0,0.0,0.0,0.0,0.0,0.0,0.0,0.0,0.0,0.0,0.0,-3.4107,-3.4229,-3.5048,-3.4953,-3.5013,0.0,0.0,0.0,0.0,0.0,0.0,-3.5577,-3.5549,-3.5566,-3.5622,-3.5566,-3.552,-3.5594,-3.5594,-3.5678,-3.5864,-3.5807,-3.5925,-3.611,-3.6001,-3.6303,-3.6902,-3.6902,-3.7287,-3.7821,-3.6671,-3.6197,-3.6197,-3.6197,-3.6197,-3.6197,-3.6197,-3.6197,-3.6197,-3.6197,-3.6197,-3.6197,-3.6197,-3.6697,-3.7376,-3.768,0.0,0.0,0.0,0.0,-4.1716,-4.1705,-4.176,-4.1797,-4.1839,-4.2502,-4.322,-4.3536,-4.4241,-4.4772,0.0,-4.4587,-4.4905,-4.575,0.0,0.0,0.0,0.0,-4.5737,-4.5742,-4.5651,-4.5586,-4.5586,-4.5586,-4.5586,-4.5586,-4.5586,-4.5586,-4.5513,-4.5513,-4.5495,-4.5438,-4.5582,-4.5638,-4.5619,0.0,0.0,0.0,0.0,0.0,0.0,0.0,0.0,0.0,0.0,0.0,0.0,0.0,0.0,0.0,0.0,0.0,0.0,0.0,0.0,0.0,0.0,0.0,0.0,0.0,0.0,0.0,0.0,0.0,-3.488,-3.5237,0.0,0.0,0.0,0.0,-3.5622,-3.5577,-3.5577,-3.5622,-3.5577,-3.5577,-3.5622,-3.5577,-3.5549,-3.5492,-3.5492,-3.5845,-3.6565,-3.6565,-3.7,-3.7804,-3.7787,-3.7821,-3.7855,-3.7855,-3.7872,-3.7905,-3.7821,-3.7787,-3.7787,-3.7787,-3.7787,-3.7787,-3.7787,-3.7787,-3.7787,-3.7787,-3.7787,-3.7787,-3.7787,-3.8082,-3.8581,-3.9622,-4.0038,0.0,0.0,-4.1144,-4.1309,-4.2062,-4.2469,-4.2835,-4.3639,-4.4098,-4.4382,-4.4669,-4.4806,-4.4962,0.0,-4.5241,-4.5342,-4.5587,0.0,-4.565,-4.5794,-4.5794,-4.5757,-4.562,-4.5603,-4.5586,-4.5586,-4.5586,-4.5586,-4.5586,-4.5586,-4.5586,-4.5605,-4.555,-4.5495,-4.5495,-4.5513,-4.5582,-4.5684,-4.4901,0.0,0.0,0.0,0.0,0.0,0.0,0.0,0.0,0.0,0.0,0.0,0.0,0.0,0.0,0.0,0.0,0.0,0.0,0.0,0.0,0.0,0.0,0.0,0.0,0.0,0.0,0.0,0.0,-3.4723,-3.4944,0.0,-3.5577,-3.527,-3.5224,-3.5577,-3.527,-3.5224,-3.5577,-3.5622,-3.5622,-3.5622,-3.6096,-3.6366,-3.6337,-3.6827,-3.7199,-3.7452,-3.7452,-3.7604,-3.7905,-3.7905,-3.8159,-3.8616,-3.8616,-3.887,-3.9309,-3.9309,-3.8751,-3.7905,-3.7905,-3.7905,-3.7905,-3.7905,-3.7905,-3.7905,-3.7905,-3.7905,-3.7953,-3.8184,-3.838,-3.8807,-4.0352,-4.0825,-4.1085,-4.2247,-4.2619,-4.2708,-4.3002,-4.3287,-4.3596,-4.3931,-4.4336,-4.4676,-4.4776,-4.4981,-4.5194,-4.5277,-4.5338,-4.54,-4.5522,-4.5509,-4.5528,-4.5703,-4.5661,-4.5618,-4.5603,-4.5586,-4.5586,-4.5586,-4.5586,-4.5586,-4.5586,-4.5586,-4.5586,-4.5586,-4.5568,-4.555,-4.5495,-4.5531,-4.5566,-4.5563,-4.5327,-4.4932,0.0,0.0,0.0,0.0,0.0,0.0,0.0,0.0,0.0,0.0,0.0,0.0,0.0,0.0,0.0,0.0,0.0,0.0,0.0,0.0,0.0,0.0,0.0,0.0,0.0,-3.4184,-3.4643,-3.448,-3.4849,-3.5224,-3.5577,-3.527,-3.5224,-3.5577,-3.527,-3.5341,-3.5949,-3.6011,-3.6129,-3.6383,-3.6891,-3.7161,-3.7161,-3.7652,-3.8024,-3.8278,-3.8278,-3.8396,-3.8633,-3.8633,-3.8903,-3.936,-3.936,-3.9631,-4.007,-4.007,-3.9512,-3.8633,-3.8633,-3.8633,-3.8633,-3.8633,-3.8633,-3.8633,-3.8633,-3.8633,-3.8681,-3.8965,-3.9042,-3.9313,-4.068,-4.1256,-4.1719,-4.2849,-4.3322,-4.3497,-4.3497,-4.3828,-4.4121,-4.4121,-4.4565,-4.4957,-4.4957,-4.5132,-4.5297,-4.5297,-4.5338,-4.54,-4.5436,-4.5438,-4.5458,-4.5613,-4.5565,-4.5513,-4.5586,-4.5586,-4.5586,-4.5586,-4.5586,-4.5586,-4.5586,-4.5586,-4.5586,-4.5586,-4.5586,-4.5586,-4.555,-4.5568,-4.5586,-4.5531,-4.5568,-4.5197,-4.436,0.0,0.0,0.0,0.0,0.0,0.0,0.0,0.0,0.0,0.0,0.0,0.0,0.0,0.0,0.0,0.0,0.0,0.0,0.0,0.0,0.0,0.0,0.0,-3.3039,-3.3951,-3.4529,-3.4036,-3.4927,-3.556,-3.556,-3.556,-3.5577,-3.5611,-3.5611,-3.5949,-3.6772,-3.6806,-3.7144,-3.7889,-3.7922,-3.7939,-3.7939,-3.7973,-3.8328,-3.9022,-3.9022,-3.9394,-4.007,-4.007,-4.007,-4.007,-4.007,-4.007,-4.007,-4.007,-4.007,-4.007,-4.007,-4.007,-4.007,-4.007,-4.007,-4.007,-4.007,-4.007,-4.007,-4.007,-4.0121,-4.0204,-4.078,-4.1358,-4.1937,-4.2559,-4.3105,-4.3497,-4.3497,-4.3949,-4.4402,-4.4402,-4.4838,-4.5297,-4.5297,-4.5297,-4.5297,-4.5297,-4.5297,-4.5317,-4.5398,-4.5398,-4.5419,-4.5476,-4.5495,0.0,-4.5586,-4.5586,-4.5586,-4.5586,-4.5586,-4.5586,-4.5586,-4.5586,-4.5586,-4.5586,-4.5586,-4.5586,-4.5586,-4.5586,-4.5586,-4.5586,-4.5586,-4.5247,-4.451,0.0,0.0,0.0,0.0,0.0,0.0,0.0,0.0,0.0,0.0,0.0,0.0,0.0,0.0,0.0,0.0,0.0,0.0,0.0,0.0,0.0,-3.2695,-3.2803,-3.3093,-3.3697,-3.4084,-3.3986,-3.4284,-3.4431,-3.4431,-3.4431,-3.4856,-3.5804,-3.5902,-3.6379,-3.755,-3.7601,-3.7702,-3.7905,-3.8413,-3.87,-3.87,-3.9225,-3.958,-3.9783,-3.9783,-3.9884,-4.007,-4.007,-4.007,-4.007,-4.007,-4.007,-4.007,-4.007,-4.007,-4.007,-4.007,-4.007,-4.007,-4.007,-4.007,-4.007,-4.007,-4.007,-4.007,-4.007,-4.0353,-4.0754,-4.1375,-4.1919,-4.2444,-4.3087,-4.3375,-4.3497,-4.3497,-4.3795,-4.4151,-4.4346,-4.4695,-4.4981,-4.5256,-4.5297,-4.5317,-4.5359,-4.5359,-4.5359,-4.5338,-4.538,-4.5419,-4.5419,-4.5513,0.0,-4.5586,-4.5586,-4.5586,-4.5586,-4.5586,-4.5586,-4.5586,-4.5586,-4.5586,-4.5586,-4.5586,-4.5586,-4.5586,-4.5586,-4.5586,-4.5586,-4.5586,-4.5247,0.0,0.0,0.0,0.0,0.0,0.0,0.0,0.0,0.0,0.0,0.0,0.0,0.0,0.0,0.0,0.0,0.0,0.0,0.0,0.0,0.0,0.0,-3.2342,-3.2547,-3.3093,-3.3423,-3.3646,-3.3665,-3.4127,-3.4422,-3.4455,-3.4697,-3.531,-3.6324,-3.6357,-3.6937,-3.828,-3.8331,-3.8449,-3.8802,-3.9225,-3.9445,-3.9445,-3.9868,-4.007,-4.007,-4.007,-4.007,-4.007,-4.007,-4.007,-4.007,-4.007,-4.007,-4.007,-4.007,-4.007,0.0,0.0,0.0,0.0,0.0,-4.007,-4.007,-4.007,-4.007,-4.007,-4.007,-4.0303,-4.0707,-4.1241,-4.1835,-4.2404,-4.2995,-4.3339,-4.3497,-4.3497,-4.3749,-4.4048,-4.421,-4.4519,-4.4843,-4.5045,-4.5194,-4.5317,-4.5338,-4.5398,0.0,-4.5338,-4.5361,-4.5419,-4.5438,-4.5513,-4.5568,-4.5605,-4.5586,-4.5586,-4.5586,-4.5586,-4.5586,-4.5586,-4.5586,0.0,0.0,0.0,-4.5586,-4.5586,-4.5586,0.0,0.0,0.0,-4.5387,-4.4947,0.0,0.0,0.0,-4.3587,-4.3258,0.0,0.0,0.0,0.0,0.0,0.0,0.0,0.0,0.0,0.0,0.0,0.0,0.0,0.0,0.0,0.0,-3.2354,-3.2576,-3.3313,-3.3382,-3.335,-3.3324,-3.4334,-3.5045,-3.5057,-3.5551,-3.6206,-3.6828,-3.6793,-3.7364,-3.8791,0.0,0.0,0.0,0.0,-3.9901,-3.9901,-3.9901,-3.9918,-4.002,-4.002,-4.002,-4.007,-4.007,-4.007,-4.007,-4.007,-4.007,-4.007,-4.007,-4.007,-4.007,-4.007,-4.007,-4.007,-4.007,-4.007,-4.007,-4.007,0.0,0.0,-4.007,-4.0238,-4.0468,-4.0874,-4.149,-4.2162,-4.2655,-4.3124,-4.3497,-4.3497,-4.3716,-4.3942,-4.4005,-4.4346,-4.4745,-4.4776,-4.5023,-4.5256,-4.5298,-4.5359,-4.5399,-4.5419,-4.5419,-4.5438,-4.5495,-4.5513,-4.5531,-4.5586,-4.5586,-4.5586,-4.5586,0.0,0.0,-4.5586,-4.5586,-4.5586,-4.5586,-4.5586,-4.5586,-4.5586,-4.5586,-4.5586,-4.5586,-4.5586,-4.5586,-4.5586,-4.5586,-4.5586,-4.5584,-4.4203,-4.3573,0.0,0.0,0.0,0.0,0.0,0.0,0.0,0.0,0.0,0.0,0.0,0.0,0.0,0.0,0.0,-3.3481,-3.3367,-3.3568,-3.4731,-3.4544,-3.4172,-3.4045,-3.4722,-3.507,-3.4665,-3.4716,-3.5227,-3.6188,-3.6381,-3.7006,-3.8098,-3.8345,-3.8482,-3.8613,-3.8629,-3.8629,-3.8629,-3.8629,-3.8903,-3.9365,0.0,0.0,-4.007,-4.007,-4.007,-4.007,-4.007,-4.007,-4.007,-4.007,-4.007,-4.007,-4.007,-4.007,-4.007,-4.007,-4.007,-4.007,-4.007,-4.007,-4.007,-4.007,-4.0451,-4.0972,-4.1464,-4.208,0.0,-4.3214,-4.341,-4.3497,-4.3497,-4.3566,-4.3649,-4.3942,-4.4079,-4.4279,-4.4701,-4.4843,-4.5004,-4.5321,-4.5381,-4.5438,-4.5532,-4.5532,-4.5495,-4.5495,-4.555,-4.5586,-4.5586,-4.5586,-4.5586,-4.5586,-4.5586,-4.5586,-4.5586,-4.5586,-4.5586,-4.5586,-4.5586,-4.5586,-4.5586,-4.5586,-4.5586,-4.5586,-4.5586,-4.5586,-4.5586,-4.5586,-4.5586,-4.5586,-4.5293,-4.5175,0.0,0.0,0.0,0.0,0.0,0.0,0.0,0.0,0.0,0.0,0.0,-3.1571,-3.2364,0.0,-3.3023,-3.3955,-3.4037,-3.416,-3.4789,-3.4988,-3.4824,-3.4384,-3.4971,-3.5307,-3.5043,-3.5216,-3.5765,-3.6672,-3.6704,-3.7123,-3.8117,-3.8165,-3.8238,-3.8278,-3.8278,-3.8278,-3.8278,-3.8278,-3.8446,-3.8739,-3.8739,-3.8903,-3.9172,-3.9172,-3.9348,-3.9644,-3.9644,-3.9799,-4.007,-4.007,-4.007,-4.007,-4.007,-4.007,-4.007,-4.007,-4.007,-4.007,-4.007,-4.007,-4.0121,-4.0188,-4.058,-4.1139,-4.1725,-4.2302,-4.292,-4.3375,-4.3497,-4.3497,-4.3497,-4.3497,-4.3548,-4.3716,-4.3878,-4.4091,-4.4519,-4.4701,-4.4915,-4.5281,-4.538,-4.5419,-4.5495,-4.5495,-4.5513,-4.5531,-4.5586,-4.5586,-4.5586,-4.5586,-4.5586,-4.5586,-4.5586,-4.5586,-4.5586,-4.5586,-4.5586,-4.5586,-4.5586,-4.5586,-4.5586,-4.5586,-4.5586,-4.5586,-4.5586,-4.5586,-4.5586,-4.5586,-4.5586,-4.5586,-4.564,-4.5673,0.0,0.0,0.0,0.0,0.0,0.0,0.0,-2.9176,-2.9337,-3.0833,-3.1294,-3.1723,-3.2942,-3.3282,-3.3612,-3.4285,-3.4526,-3.4722,-3.4845,-3.5337,-3.5476,-3.4922,-3.5353,-3.5676,-3.5615,-3.6029,-3.6507,-3.7058,-3.6921,-3.7131,-3.7879,-3.7854,-3.787,-3.7953,-3.7953,-3.7953,-3.7953,-3.7953,-3.801,-3.8124,-3.8124,-3.8181,-3.8278,-3.8278,-3.8629,-3.9206,-3.9312,-3.9644,-4.007,-4.007,-4.007,-4.007,-4.007,-4.007,-4.007,-4.007,-4.007,-4.007,-4.007,-4.007,-4.0138,-4.0255,-4.058,-4.1094,-4.1682,-4.2302,-4.2844,-4.3268,-4.3444,-4.3497,-4.3497,-4.3497,-4.3497,-4.3497,-4.3716,-4.3999,-4.4346,-4.4572,-4.4843,-4.5235,-4.5359,-4.5399,-4.54,-4.5476,-4.5513,-4.5586,-4.5586,-4.5586,-4.5586,-4.5586,-4.5586,-4.5586,-4.5586,-4.5586,-4.5586,-4.5586,-4.5586,-4.5586,-4.5586,-4.5586,-4.5586,-4.5586,-4.5586,-4.5586,-4.5586,-4.5586,-4.5586,-4.5586,-4.5586,-4.5586,-4.5676,-4.5706,-2.7268,-2.7146,-2.7456,-2.8287,-2.7973,-2.7829,0.0,-2.9926,-3.07,-3.2169,-3.2961,-3.3442,-3.3743,-3.3952,-3.4315,-3.4973,-3.5232,-3.5584,-3.6184,-3.6322,-3.6353,-3.6276,-3.6322,-3.6306,-3.6166,-3.6305,-3.6352,-3.6148,-3.6414,-3.6523,-3.643,-3.6585,-3.6662,-3.6723,-3.6723,-3.6723,-3.6723,-3.6723,-3.6952,-3.7519,-3.7519,-3.7796,-3.8278,-3.8278,-3.8629,-3.9259,-3.9747,-4.002,-4.007,-4.007,-4.007,-4.007,-4.007,-4.007,-4.007,-4.007,-4.007,-4.007,-4.007,-4.007,-4.0138,-4.0255,-4.0436,-4.0693,-4.1213,-4.1803,-4.236,-4.2844,-4.3214,-4.3497,-4.3497,-4.3497,-4.3497,-4.3497,-4.3513,-4.373,-4.4289,-4.4411,-4.4643,-4.5277,-4.5379,-4.5399,-4.54,-4.5476,-4.5513,-4.5586,-4.5586,-4.5586,-4.5586,-4.5586,-4.5586,-4.5586,-4.5586,-4.5586,-4.5586,-4.5586,-4.5586,-4.5586,-4.5586,-4.5586,-4.5586,-4.5586,-4.5586,-4.5586,-4.5586,-4.5586,-4.5586,-4.5586,-4.5586,-4.5586,-4.5676,-4.5709,-2.7523,-2.7335,-2.7615,-2.8265,-2.8223,-2.8369,-2.9734,-3.0273,-3.0848,-3.2408,-3.2939,-3.3436,-3.4333,-3.4653,-3.5003,-3.5676,-3.5937,-3.6168,-3.6445,-3.6492,-3.6492,-3.6352,-3.6352,-3.6352,-3.6352,-3.6289,-3.6226,-3.6304,-3.6226,-3.6226,-3.6352,-3.6429,-3.6492,-3.6492,-3.6492,-3.6492,-3.6492,-3.6492,-3.6616,-3.6907,-3.6907,-3.6997,-3.7282,-3.7282,-3.7562,-3.8197,-3.8794,-3.9242,-3.9592,-3.9592,-3.9799,-4.007,-4.007,-4.007,-4.007,-4.007,-4.007,-4.007,-4.007,-4.007,-4.0121,-4.0337,-4.0597,-4.0926,-4.1276,-4.1973,-4.2634,-4.2844,-4.3196,-4.3497,-4.3497,-4.3497,-4.3497,-4.3497,-4.3497,-4.3597,-4.406,-4.4289,-4.4519,-4.4957,-4.5216,-4.5339,-4.54,-4.5419,-4.5476,-4.5586,-4.5586,-4.5586,-4.5586,-4.5586,-4.5586,-4.5586,-4.5586,-4.5586,-4.5586,-4.5586,-4.5586,-4.5586,-4.5586,-4.5586,-4.5586,-4.5586,-4.5586,-4.5586,-4.5586,-4.5586,-4.5586,-4.5586,-4.5586,-4.5586,-4.5671,-4.5703,-2.8142,-2.8007,-2.8111,-2.8529,-2.8634,-2.899,-3.0405,-3.0842,-3.1358,-3.2942,-3.3357,-3.3828,-3.4967,-3.5307,-3.5583,-3.6134,-3.6352,-3.6492,-3.6492,-3.6492,-3.6414,-3.6211,-3.6196,-3.6274,-3.6352,-3.6163,-3.6163,-3.6414,-3.6226,-3.6226,-3.6492,-3.6492,-3.6492,-3.6492,-3.6492,-3.6492,-3.6492,-3.6492,-3.6492,-3.6492,-3.6492,-3.6492,-3.6492,-3.6662,-3.7013,-3.746,-3.8238,-3.8794,-3.9206,-3.9365,-3.9696,-4.007,-4.007,-4.007,-4.007,-4.007,-4.007,-4.007,-4.007,-4.007,-4.0121,-4.0419,-4.0676,-4.0972,-4.1265,-4.1881,-4.2537,-4.2673,-4.3032,-4.3375,-4.3479,-4.3497,-4.3497,-4.3497,-4.3497,-4.3582,-4.3942,-4.4221,-4.4465,-4.4751,-4.5068,-4.5338,-4.5361,-4.5381,-4.5419,-4.5532,-4.5587,-4.5586,-4.5586,-4.5586,-4.5586,-4.5586,-4.5586,-4.5586,-4.5586,-4.5586,-4.5586,-4.5586,-4.5586,-4.5586,-4.5586,-4.5586,-4.5586,-4.5586,-4.5586,-4.5586,-4.5586,-4.5586,-4.5586,-4.5603,-4.5668,-4.57,-2.9222,-2.9222,-2.9235,-2.9248,-2.9248,-2.9644,-3.1212,-3.1956,-3.2811,-3.4334,-3.503,-3.5494,-3.5672,-3.5864,-3.6006,-3.6211,-3.6352,-3.6492,-3.6492,-3.6492,-3.6414,-3.6211,-3.6196,-3.6148,0.0,-3.6148,-3.6196,-3.6211,-3.6352,-3.6492,-3.6492,-3.6492,-3.6492,-3.6492,-3.6492,-3.6492,-3.6492,-3.6492,-3.6492,-3.6492,-3.6492,-3.6492,-3.6492,-3.7134,-3.7358,-3.7476,-3.8645,-3.9189,-3.9259,-3.985,-4.007,-4.007,-4.007,-4.007,-4.007,-4.007,-4.007,-4.007,-4.007,-4.007,-4.0121,-4.0419,-4.0534,-4.0583,-4.0823,-4.1209,-4.1648,-4.2074,-4.2555,-4.2995,-4.341,-4.3497,-4.3497,-4.3497,-4.3497,-4.3582,-4.3942,-4.4221,-4.4465,-4.4751,-4.5068,-4.5297,-4.5297,-4.5361,-4.54,-4.5399,-4.5515,-4.5586,-4.5586,-4.5586,-4.5586,-4.5586,-4.5586,-4.5586,-4.5586,-4.5586,-4.5586,-4.5586,-4.5586,-4.5586,-4.5586,-4.5586,-4.5586,-4.5586,-4.5586,-4.5586,-4.5586,-4.5586,-4.5586,-4.5603,-4.5668,-4.57,-2.9274,-2.9274,-2.9437,-3.009,-3.0268,-3.0761,-3.2647,-3.3175,-3.3686,-3.4937,-3.5439,-3.5718,-3.5894,-3.6022,-3.6211,-3.6352,-3.6492,-3.6492,-3.6492,-3.6414,-3.6211,-3.61,-3.5958,-3.5879,-3.5831,0.0,0.0,-3.6196,-3.6274,-3.6352,-3.6492,-3.6492,-3.6492,-3.6492,-3.6492,-3.6492,-3.6492,-3.6492,-3.6492,-3.6492,-3.6492,-3.6492,-3.6492,-3.6723,-3.6769,-3.6846,-3.7637,-3.8238,-3.8629,-3.9242,-3.9747,-4.007,-4.007,-4.007,-4.007,-4.007,-4.007,-4.007,-4.007,-4.007,-4.0121,-4.0288,-4.0436,-4.0534,-4.068,-4.1328,-4.199,-4.2175,-4.2732,-4.3339,-4.3444,-4.3497,-4.3497,-4.3497,-4.3497,-4.3582,-4.3942,-4.4221,-4.4465,-4.4751,-4.5068,-4.5317,-4.5359,-4.5379,-4.54,-4.54,-4.5438,-4.5495,-4.5513,-4.5531,-4.5513,-4.5476,-4.555,-4.5586,-4.555,-4.5568,-4.5586,-4.5586,-4.5586,-4.5586,-4.5586,-4.5586,-4.5586,-4.5586,-4.5586,-4.5586,-4.5586,-4.5586,-4.5586,-4.5586,-4.5673,-4.5703,-2.9889,-2.9889,-3.0125,-3.0831,-3.0996,-3.151,-3.3282,-3.3796,-3.4206,-3.5264,-3.5509,-3.5623,-3.6022,-3.6006,-3.6006,-3.6429,-3.6492,-3.6492,-3.6492,-3.6352,-3.6148,-3.6037,-3.5831,-3.5688,-3.5638,-3.5846,0.0,-3.6211,-3.6196,-3.6274,-3.6492,-3.6492,-3.6492,-3.6492,-3.6492,-3.6492,-3.6492,-3.6492,-3.6492,-3.6492,-3.6492,-3.6492,-3.6492,-3.6492,-3.6492,-3.6554,-3.7342,-3.7953,-3.8334,-3.9189,-3.9747,-4.007,-4.007,-4.007,-4.007,-4.007,-4.007,-4.007,-4.007,-4.007,-4.0121,-4.0288,-4.0436,-4.0517,-4.0745,-4.1209,-4.1796,-4.2115,-4.2598,-4.3124,-4.341,-4.3497,-4.3497,-4.3497,-4.3718,-4.3989,-4.4206,-4.4804,-4.5341,-4.5531,-4.5893,-4.6216,-4.6237,-4.6009,-4.5819,-4.586,-4.5592,-4.54,-4.5457,-4.5457,-4.5438,-4.54,-4.5476,-4.5513,-4.5495,-4.555,-4.5568,-4.5586,-4.5586,-4.5586,-4.5586,-4.5586,-4.5586,-4.5586,-4.5586,-4.5586,-4.5586,-4.5586,-4.5586,-4.5586,-4.5676,-4.5706,-3.0986,-3.0986,-3.1123,-3.1556,-3.1629,-3.1982,-3.3227,-3.3796,-3.4341,-3.5204,-3.5219,-3.5365,-3.607,-3.5737,-3.5672,-3.6352,-3.6492,-3.6492,-3.6492,-3.6289,-3.6148,-3.5973,-3.5831,-3.5638,-3.5504,-3.5797,0.0,-3.6211,0.0,-3.6274,-3.6492,-3.6492,-3.6492,-3.6492,-3.6492,-3.6492,-3.6492,-3.6492,-3.6492,-3.6492,-3.6492,-3.6492,-3.6492,-3.6492,-3.6492,-3.66,-3.778,-3.8334,-3.8463,-3.9627,-4.007,-4.007,-4.007,-4.007,-4.007,-4.007,-4.007,-4.007,-4.007,-4.007,-4.0121,-4.0387,-4.0485,-4.0534,-4.0776,-4.0871,-4.1088,-4.1906,-4.2198,-4.244,-4.325,-4.3516,-4.3552,-4.3552,-4.4176,-4.4782,-4.4764,-4.5895,-4.6899,-4.688,-4.7365,-4.7777,-4.7818,-4.7111,-4.6619,-4.6741,-4.5952,-4.5376,-4.54,-4.54,-4.54,-4.54,-4.54,-4.5419,-4.5495,-4.5495,-4.5513,-4.5605,-4.5586,-4.5586,-4.5586,-4.5586,-4.5586,-4.5586,-4.5586,-4.5586,-4.5586,-4.5586,-4.5586,-4.5586,-4.5676,-4.5706,-3.0986,-3.1198,-3.1556,-3.1909,-3.22,-3.2632,-3.3534,-3.3618,-3.3811,-3.4839,-3.4691,-3.4691,-3.5688,-3.5752,-3.5752,-3.6211,-3.6274,-3.6274,-3.6274,-3.6022,-3.5816,-3.5752,-3.5653,-3.5554,-3.5504,-3.5653,0.0,0.0,-3.6289,-3.6429,-3.6492,-3.6492,-3.6492,-3.6492,-3.6492,-3.6492,-3.6492,-3.6492,-3.6492,-3.6492,-3.6492,-3.6492,-3.6492,-3.6492,-3.6723,-3.7238,-3.7953,-3.8574,-3.9028,-3.9799,-4.007,-4.007,-4.007,-4.007,-4.007,-4.007,-4.007,-4.007,-4.007,-4.007,-4.0121,-4.0171,-4.032,-4.0534,-4.0583,-4.0931,-4.1401,-4.1622,-4.2157,-4.275,-4.2995,-4.3707,-4.4397,-4.4397,-4.5021,-4.5662,-4.5922,-4.6238,-4.6594,-4.6772,-4.7143,-4.7509,-4.7754,-4.7627,-4.7474,-4.7496,-4.677,-4.5986,-4.5475,-4.5399,-4.538,-4.5339,-4.538,-4.5419,-4.5419,-4.5476,-4.5513,-4.5605,-4.5586,-4.5586,-4.5586,-4.5586,-4.5586,-4.5586,-4.5586,-4.5586,-4.5586,-4.5586,-4.5586,-4.5586,-4.5622,-4.5657,-3.0986,-3.1123,-3.1421,-3.1776,-3.2128,-3.2561,-3.2988,-3.3255,-3.3534,-3.4153,-3.407,-3.4192,-3.5479,-3.5494,-3.5544,-3.6211,-3.6352,-3.6274,-3.6211,-3.6022,-3.5831,-3.5688,-3.5604,-3.5504,-3.5504,-3.5589,-3.5752,0.0,-3.6226,-3.6414,-3.6492,-3.6492,-3.6492,-3.6492,-3.6492,-3.6492,-3.6492,-3.6492,-3.6492,-3.6492,-3.6492,-3.6492,-3.6492,-3.6492,-3.6831,-3.7401,0.0,-3.8629,-3.9259,-3.985,-4.007,-4.007,-4.007,-4.007,-4.007,-4.007,-4.007,-4.007,-4.007,-4.0138,-4.0188,-4.0288,-4.0337,-4.0436,-4.0631,-4.0901,-4.1237,-4.1692,-4.2216,-4.2745,-4.3505,-4.4181,-4.48,-4.5149,-4.5847,-4.6471,-4.6668,-4.7101,-4.7593,-4.802,-4.8266,-4.8498,-4.8842,-4.8602,-4.8372,-4.8372,-4.7627,-4.6768,-4.5988,-4.5568,-4.5338,-4.5297,-4.5339,-4.538,-4.54,-4.5438,-4.5495,-4.5586,-4.5586,-4.5586,-4.5586,-4.5586,-4.5586,-4.5586,-4.5586,-4.5586,-4.5586,-4.5586,-4.5586,-4.5586,-4.5586,-4.564,-3.0986,-3.1061,-3.1123,-3.1482,-3.185,-3.2128,-3.2128,-3.2676,-3.3297,-3.3367,-3.3367,-3.3699,-3.5139,-3.5073,-3.5219,-3.6163,-3.6352,-3.6414,-3.6211,-3.6085,-3.5894,-3.5688,-3.5604,-3.5504,-3.5504,-3.5589,-3.5752,-3.5973,-3.6148,-3.6274,-3.6492,-3.6492,-3.6492,-3.6492,-3.6492,-3.6492,-3.6492,-3.6492,-3.6492,-3.6492,-3.6492,-3.6492,-3.6492,-3.6492,-3.6831,-3.7401,-3.801,-3.8629,-3.9259,-3.985,-4.007,-4.007,-4.007,-4.007,-4.007,-4.007,-4.007,-4.007,-4.007,-4.0188,-4.0288,-4.0436,-4.0387,-4.0387,-4.0745,-4.0793,-4.0918,-4.1864,-4.2228,-4.2723,-4.4236,-4.4838,-4.5204,-4.5883,-4.6673,-4.7278,-4.7278,-4.8034,-4.8934,-4.956,-4.9702,-4.983,-5.0188,-4.9686,-4.9251,-4.9251,-4.8525,-4.7704,-4.694,-4.6023,-4.5411,-4.5297,-4.5317,-4.5339,-4.54,-4.5419,-4.5476,-4.5586,-4.5586,-4.5586,-4.5586,-4.5586,-4.5586,-4.5586,-4.5586,-4.5586,-4.5586,-4.5586,-4.5586,-4.5586,-4.5586,-4.564,-3.0986,-3.1272,-3.1482,-3.1556,-3.185,-3.2128,-3.2128,-3.1982,-3.2114,-3.269,-3.2547,-3.2605,-3.3492,-3.4327,-3.4942,-3.5154,-3.58,-3.6274,-3.6196,-3.5943,-3.5752,-3.5688,-3.5604,-3.5504,-3.5504,-3.5589,0.0,0.0,-3.6148,-3.6274,-3.6492,-3.6492,-3.6492,-3.6492,-3.6492,-3.6492,-3.6492,-3.6492,-3.6492,-3.6492,-3.6492,-3.6492,-3.6492,-3.6492,-3.6831,-3.7401,-3.801,0.0,-3.9259,-3.985,-4.007,-4.007,-4.007,-4.007,-4.007,-4.007,-4.007,-4.007,-4.007,-4.0138,-4.0138,-4.0171,-4.0387,-4.06,-4.0583,-4.0728,-4.0965,-4.149,-4.2367,-4.3363,-4.4041,-4.5422,-4.6746,-4.6874,-4.7517,-4.8104,-4.8104,-4.8234,-4.8495,-4.89,-4.9209,-4.9483,-4.983,-4.9986,-5.0092,-5.0092,-4.9404,-4.8812,-4.8659,-4.7264,-4.6042,-4.5373,-4.5338,-4.5399,-4.54,-4.5438,-4.5513,-4.5605,-4.5586,-4.5586,-4.5586,-4.5586,-4.5586,-4.5586,-4.5586,-4.5586,-4.5586,-4.5586,-4.5586,-4.5586,-4.5586,-4.5622,-3.0986,-3.1123,-3.1272,-3.1272,-3.1556,-3.1776,-3.1556,-3.1556,-3.1703,-3.2055,-3.1982,-3.2114,-3.2875,-3.3492,-3.4109,-3.481,-3.5335,-3.5721,-3.5943,-3.5894,-3.5767,-3.5604,-3.5554,-3.5504,-3.5504,-3.5554,-3.5653,-3.5831,-3.6022,-3.6211,-3.6492,-3.6492,-3.6492,-3.6492,-3.6492,-3.6492,-3.6492,-3.6492,-3.6492,-3.6492,-3.6492,-3.6492,-3.6492,-3.6492,-3.6831,-3.7417,-3.7679,-3.8351,-3.9206,-3.9523,-3.9799,-4.007,-4.007,-4.007,-4.007,-4.007,-4.007,-4.007,-4.007,-4.0138,-4.0188,-4.0138,-4.0288,-4.0502,-4.0583,-4.0697,-4.0965,-4.1648,-4.2583,-4.3655,-4.476,-4.6065,-4.7223,-4.7627,-4.8031,-4.8306,-4.8306,-4.8306,-4.8402,-4.8746,-4.908,-4.9424,-4.973,-5.0076,-5.0302,-5.0302,-4.9977,-4.9576,-4.9137,-4.8372,-4.736,-4.6061,-4.5566,-4.536,-4.54,-4.5419,-4.5495,-4.5586,-4.5586,-4.5586,-4.5586,-4.5586,-4.5586,-4.5586,-4.5586,-4.5586,-4.5586,-4.5586,-4.5586,-4.5586,-4.5586,-4.5586,-3.0986,-3.0986,-3.0986,-3.0986,-3.1272,-3.1421,-3.1061,-3.1272,-3.1482,-3.1482,-3.1556,-3.1763,-3.2376,-3.272,-3.3213,-3.4177,-3.4581,-3.4978,-3.5479,-3.5623,-3.5638,-3.5554,-3.5504,-3.5504,-3.5504,-3.5504,0.0,-3.5688,-3.5831,-3.6037,-3.6492,-3.6492,-3.6492,-3.6492,-3.6492,-3.6492,-3.6492,-3.6492,-3.6492,-3.6492,-3.6492,-3.6492,-3.6492,-3.6492,-3.6785,-3.7238,-3.7358,-3.7911,0.0,-3.9082,-3.947,-3.9918,-4.007,-4.007,-4.007,-4.007,-4.007,-4.007,-4.007,-4.0188,-4.0238,-4.0121,-4.0238,-4.0404,-4.0551,-4.0648,-4.0953,-4.199,-4.2935,-4.3996,-4.5603,-4.6671,-4.7535,-4.8159,-4.8306,-4.8306,-4.8306,-4.8306,-4.8364,-4.8658,-4.8949,-4.9271,-4.9541,-4.9857,-5.012,-5.0169,-5.0193,-4.9983,-4.9423,-4.9213,-4.8582,-4.7207,-4.6178,-4.5607,-4.5649,-4.5496,-4.5476,-4.5568,-4.5586,-4.5586,-4.5586,-4.5586,-4.5586,-4.5586,-4.5586,-4.5586,-4.5586,-4.5586,-4.5586,-4.5586,-4.5586,-4.5586,-3.0986,-3.0986,-3.0986,-3.0986,-3.1061,-3.1061,-3.0986,-3.1061,-3.1061,-3.1061,-3.1347,-3.1482,-3.1198,-3.2101,-3.2861,-3.2648,-3.3325,-3.4095,-3.4876,-3.481,-3.4942,-3.5623,-3.5539,-3.5504,-3.5504,-3.5504,-3.5554,-3.5688,-3.5544,-3.5737,-3.6492,-3.6492,-3.6492,-3.6492,-3.6492,-3.6492,-3.6492,-3.6492,-3.6492,-3.6492,-3.6492,-3.6492,-3.6492,-3.6492,-3.6554,-3.66,-3.7178,-3.7476,0.0,-3.8756,-3.9259,-3.9312,-3.9918,-4.007,-4.007,-4.007,-4.007,-4.007,-4.007,-4.0138,-4.0138,-4.0121,-4.0337,-4.06,-4.0404,-4.0583,-4.1103,-4.2166,-4.343,-4.4778,-4.6024,-4.7244,-4.8214,-4.8288,-4.8306,-4.8306,-4.8306,-4.8306,-4.8306,-4.8344,-4.8623,-4.885,-4.8885,-4.9177,-4.9483,-4.9803,-4.9857,-4.9936,-5.0164,-4.9538,-4.9041,-4.8869,-4.7422,-4.6489,-4.6489,-4.588,-4.5495,-4.5513,-4.5568,-4.5586,-4.5586,-4.5586,-4.5586,-4.5586,-4.5586,-4.5586,-4.5586,-4.5586,-4.5586,-4.5586,-4.5586,-4.5586,-3.0986,-3.0986,-3.0986,-3.0986,-3.0986,-3.0986,-3.0986,-3.0986,-3.0986,-3.0986,-3.1123,-3.1198,-3.1061,-3.1394,-3.1896,-3.216,-3.2635,-3.3129,-3.3768,-3.3905,-3.4192,-3.478,-3.481,-3.4986,0.0,0.0,-3.5554,-3.5688,-3.5752,-3.5958,-3.6274,-3.6148,-3.6163,-3.6492,-3.6492,-3.6492,-3.6492,-3.6492,-3.6492,-3.6492,-3.6492,-3.6492,-3.6492,-3.6492,-3.6492,-3.6492,-3.6785,-3.7342,0.0,-3.8518,-3.9135,-3.9867,-4.002,-4.007,-4.007,-4.007,-4.007,-4.007,-4.007,-4.007,-4.007,-4.007,-4.0238,-4.0453,-4.0436,-4.0534,-4.0827,-4.1677,-4.2914,-4.4316,-4.5472,-4.7007,-4.8306,-4.8306,-4.8306,-4.8306,-4.8306,-4.8306,-4.8306,-4.8306,-4.855,-4.8816,-4.8816,-4.908,-4.9363,-4.9483,-4.9674,-4.9857,-4.9981,-4.9902,-4.9824,-4.9824,-4.8318,-4.7136,-4.6642,-4.6338,-4.5976,-4.5533,-4.5532,-4.5568,-4.5586,-4.5586,-4.5586,-4.5586,-4.5586,-4.5586,-4.5586,-4.5586,-4.5586,-4.5586,-4.5586,-4.5586,-3.0911,-3.0911,-3.0986,-3.0986,-3.0986,-3.0986,-3.0986,-3.0986,-3.0986,-3.0986,-3.0986,-3.0986,-3.0986,-3.0986,-3.1198,-3.1676,-3.1882,-3.216,-3.2791,-3.3003,-3.3283,-3.3891,0.0,-3.4461,-3.4787,-3.5001,-3.5249,-3.5444,-3.5509,-3.5638,-3.5943,-3.5688,-3.5752,-3.6492,-3.6492,-3.6492,-3.6492,-3.6492,-3.6492,-3.6492,-3.6492,-3.6492,-3.6492,-3.6492,-3.6492,-3.6492,-3.6492,-3.7118,0.0,-3.8067,-3.8684,-3.9679,-3.9627,-3.9575,-3.9575,-3.9575,-3.9679,-3.985,-3.985,-3.9969,-4.007,-4.007,-4.0188,-4.0288,-4.0387,-4.0485,-4.0666,-4.1267,-4.2713,-4.4314,-4.5624,-4.7037,-4.8132,-4.8267,-4.8306,-4.8306,-4.8306,-4.8306,-4.8306,-4.8306,-4.8495,-4.8658,-4.8658,-4.8832,-4.9048,-4.9145,-4.9363,-4.9589,-4.9757,-5.0025,-5.0169,-5.0302,-4.9251,-4.8223,-4.7425,-4.7119,-4.6643,-4.586,-4.586,-4.5782,-4.5587,-4.5586,-4.5586,-4.5586,-4.5586,-4.5586,-4.5586,-4.5586,-4.5586,-4.5586,-4.5586,-4.5586,-3.0773,-3.0849,-3.0986,-3.0986,-3.0986,-3.0986,-3.0986,-3.0986,-3.0986,-3.0986,-3.0986,-3.0986,-3.0986,-3.0986,-3.0986,-3.0986,-3.0986,-3.1259,-3.2015,-3.2074,-3.2362,0.0,-3.3837,-3.4041,-3.3283,-3.3905,-3.4461,-3.4854,-3.4601,0.0,-3.54,-3.5073,-3.5415,-3.6492,-3.6492,-3.6492,-3.6492,-3.6492,-3.6492,-3.6492,-3.6492,-3.6492,-3.6492,-3.6492,-3.6492,-3.6492,-3.6492,-3.6846,0.0,-3.7417,-3.7796,-3.8334,-3.8334,-3.8334,-3.8334,-3.8334,-3.8684,-3.9206,-3.9206,-3.9592,-4.007,-4.007,-4.007,-4.0138,-4.0238,-4.0387,-4.0639,-4.1223,-4.3026,-4.5211,-4.7083,-4.7572,-4.7715,-4.8172,-4.8306,-4.8306,-4.8306,-4.8306,-4.8306,-4.8306,-4.8306,-4.8306,-4.8306,-4.8306,-4.8439,-4.8746,-4.8816,-4.9048,-4.9702,-4.9784,-4.9929,-5.0259,-5.0283,-4.9939,-4.9137,-4.834,-4.7522,-4.6642,-4.6704,-4.6397,-4.5533,-4.5568,-4.5586,-4.5586,-4.5586,-4.5586,-4.5586,-4.5586,-4.5586,-4.5586,-4.5586,-4.5586,-3.0698,-3.0773,-3.0849,-3.0986,-3.0986,-3.0986,-3.0986,-3.0986,-3.0986,-3.0986,-3.0986,-3.0986,-3.0986,-3.0986,-3.0986,-3.0986,-3.0986,-3.1048,-3.1334,0.0,0.0,-3.2434,-3.3547,-3.4245,0.0,0.0,-3.461,-3.5294,-3.437,-3.4341,-3.5544,-3.527,-3.5464,-3.6492,-3.6492,-3.6492,-3.6492,-3.6492,-3.6492,-3.6492,-3.6492,-3.6492,-3.6492,-3.6492,-3.6492,-3.6492,-3.6492,-3.6876,0.0,-3.746,-3.7796,-3.8446,-3.8351,-3.8278,-3.8278,-3.8278,-3.8407,-3.8629,-3.9028,-3.9312,-3.9523,-3.9969,-4.007,-4.0138,-4.0138,-4.0188,-4.0374,-4.1189,-4.2763,-4.4425,-4.5417,-4.6641,-4.7632,-4.7775,-4.8075,-4.8306,-4.8306,-4.8306,-4.8306,-4.8306,-4.8306,-4.8306,-4.8306,-4.8306,-4.8344,-4.8421,-4.8658,-4.8866,-4.908,-4.9333,-4.9512,-4.9618,-4.9618,-4.9481,-4.9133,-4.8872,-4.8111,-4.6699,-4.6624,-4.6282,-4.5458,-4.5495,-4.5531,-4.5531,-4.5568,-4.5893,-4.649,-4.649,-4.649,-4.6471,-4.5874,-4.5586,-3.0533,-3.0622,-3.0698,-3.0836,-3.0911,-3.0986,-3.0986,-3.0986,-3.0986,-3.0986,-3.0986,-3.0986,-3.0986,-3.0986,-3.0986,-3.0986,-3.0986,-3.0986,-3.0986,0.0,0.0,-3.2087,0.0,0.0,0.0,-3.3822,-3.3905,-3.4986,-3.3865,-3.3782,-3.5204,-3.4993,-3.5255,-3.6352,-3.6492,-3.6492,-3.6492,-3.6492,-3.6492,-3.6492,-3.6492,-3.6492,-3.6492,-3.6492,-3.6492,-3.6492,-3.6492,0.0,0.0,-3.7178,-3.746,-3.8067,-3.7722,-3.7621,-3.7621,-3.7621,-3.778,-3.801,-3.8423,-3.881,-3.9259,-3.9644,-3.9901,-4.007,-4.007,-4.007,-4.0273,-4.1223,-4.2427,-4.3729,-4.4638,-4.5964,-4.7115,-4.7291,-4.7674,-4.8035,-4.8035,-4.8172,-4.8306,-4.8306,-4.8306,-4.8306,-4.8306,-4.8306,-4.8306,-4.8306,-4.8458,-4.8658,-4.8781,-4.8982,-4.9177,-4.9302,-4.9283,-4.9276,-4.9181,-4.9289,-4.8791,-4.7442,-4.7191,-4.672,-4.5878,-4.563,-4.5648,-4.5975,-4.6068,-4.6509,-4.7355,-4.7355,-4.7355,-4.7336,-4.6797,-4.6528,0.0,-3.0533,-3.0698,-3.0698,-3.0849,-3.0986,-3.0986,-3.0986,0.0,-3.0986,-3.0986,-3.0986,-3.0986,-3.0986,-3.0986,-3.0986,-3.0986,-3.0986,0.0,-3.0986,0.0,0.0,-3.1468,0.0,-3.3959,-3.2918,-3.2706,-3.4095,-3.3241,-3.3171,-3.4528,-3.438,-3.4846,-3.6133,-3.6352,-3.6492,-3.6492,-3.6492,-3.6492,-3.6492,-3.6492,-3.6492,-3.6492,-3.6492,-3.6492,0.0,-3.6492,0.0,0.0,-3.6723,-3.6831,-3.7298,-3.6723,-3.6492,-3.6492,-3.6492,-3.6831,-3.7358,-3.7417,-3.8141,-3.9152,-3.9259,-3.9644,-4.007,-4.007,-4.0138,-4.0324,-4.1255,-4.2074,-4.3048,-4.4471,-4.5453,-4.6196,-4.6707,-4.7204,-4.7591,-4.7591,-4.7955,-4.8306,-4.8306,-4.8306,-4.8306,-4.8306,-4.8306,-4.8306,-4.8306,-4.8306,-4.8402,-4.8711,-4.8746,-4.8866,-4.9209,-4.9221,-4.9221,-4.9221,-4.957,-4.9462,-4.864,-4.8224,-4.7578,-4.6738,-4.6033,-4.6052,-4.6858,-4.7011,-4.7451,-4.8202,-4.8202,-4.8202,-4.8202,-4.8125,-4.8105,-3.0152,0.0,-3.0533,-3.0698,-3.0773,-3.0849,0.0,-3.0986,-3.0986,-3.0986,-3.0986,-3.0986,-3.0986,-3.0986,-3.0986,-3.0986,-3.0986,-3.0986,-3.0986,-3.0986,0.0,-3.2015,-3.1942,-3.2015,-3.2563,-3.229,-3.2506,-3.3422,-3.2173,-3.2245,-3.4245,-3.3905,-3.4312,-3.5752,-3.6133,-3.6352,-3.6492,-3.6492,-3.6492,-3.6492,-3.6492,-3.6492,-3.6492,-3.6492,-3.6492,-3.6492,0.0,0.0,-3.6723,-3.6554,-3.66,-3.6723,-3.6554,-3.6492,-3.6492,-3.6492,-3.6616,-3.6785,-3.7238,-3.7911,-3.8684,-3.9575,-3.9969,-4.007,-4.007,-4.0188,-4.0272,-4.0391,-4.112,-4.2073,-4.2894,-4.404,-4.5152,-4.5975,-4.6791,-4.7488,-4.7591,-4.7955,-4.8306,-4.8306,-4.8306,-4.8306,-4.8306,-4.8306,-4.8306,-4.8306,-4.8306,-4.8344,-4.8402,-4.8439,-4.8458,-4.8532,-4.8532,-4.8532,-4.8532,-4.9302,-4.9462,-4.864,-4.8729,-4.8433,-4.7554,-4.7408,-4.747,-4.7702,-4.8452,-4.8913,-4.9086,-4.9086,-4.9086,-4.9086,-4.8413,-4.8105,-2.9934,-3.0075,-3.0305,-3.0533,-3.0622,-3.0773,-3.0911,-3.0986,-3.0986,-3.0986,-3.0986,-3.0986,-3.0986,-3.0986,-3.0986,-3.0986,-3.0986,-3.0986,0.0,0.0,-3.1896,-3.1603,-3.1869,-3.2074,0.0,-3.1809,-3.1882,-3.2648,-3.1603,-3.1823,-3.3699,-3.363,-3.4192,-3.5688,-3.5958,-3.6211,-3.6352,-3.6429,-3.6492,-3.6492,-3.6492,-3.6492,-3.6492,-3.6492,-3.6492,-3.6492,0.0,0.0,-3.6492,-3.6492,-3.6492,-3.6492,-3.6492,-3.6492,-3.6492,-3.6492,-3.6492,-3.6554,-3.6892,-3.7562,-3.8502,-3.9679,-4.007,-4.007,-4.007,-4.0138,-4.0188,-4.0188,-4.0815,-4.158,-4.1972,-4.3203,-4.4388,-4.4888,-4.5884,-4.6791,-4.7142,-4.7591,-4.8035,-4.8267,-4.8306,-4.8306,-4.8306,-4.8306,-4.8306,-4.8306,-4.8306,-4.8306,-4.8306,-4.8306,-4.8306,-4.8306,-4.8306,-4.8306,-4.8306,-4.8934,-4.9164,-4.8732,-4.8663,-4.8427,-4.7972,-4.7625,-4.7734,-4.834,-4.9451,-4.999,-4.999,-4.999,-4.999,-4.999,-4.951,-4.9298,-2.9869,-2.9934,-3.0075,-3.0368,-3.0533,-3.0685,-3.0911,-3.0986,-3.0986,-3.0986,-3.0986,-3.0986,-3.0986,-3.0986,-3.0986,0.0,0.0,0.0,-3.0986,-3.2114,-3.239,-3.1123,-3.1529,0.0,-3.1942,-3.1408,-3.1259,-3.1869,-3.132,-3.1616,-3.3143,-3.3367,-3.4109,-3.5415,-3.5767,-3.5958,-3.5943,-3.6289,-3.6429,-3.6429,-3.6492,-3.6492,-3.6492,-3.6492,-3.6492,-3.6492,0.0,0.0,-3.6492,-3.6492,-3.6492,-3.6492,-3.6492,-3.6492,-3.6492,-3.6492,-3.6492,-3.6554,-3.6708,-3.7445,-3.8502,-3.9679,-4.007,-4.007,-4.007,-4.007,-4.0121,-4.0238,-4.0747,-4.124,-4.1494,-4.2501,-4.3507,-4.368,-4.4716,-4.5775,-4.6295,-4.7008,-4.7674,-4.8075,-4.8229,-4.8267,-4.8306,-4.8306,-4.8306,-4.8306,-4.8306,-4.8306,-4.8306,-4.8306,-4.8306,-4.8306,-4.8306,-4.8306,-4.8306,-4.855,-4.8711,-4.8711,-4.8431,-4.8277,-4.8277,-4.7623,-4.7804,-4.8962,-5.0057,-5.0643,-5.0702,-5.0702,-5.0702,-5.0702,-5.0702,-5.0702,-2.9792,-2.9792,-2.9934,-3.0292,-3.0444,-3.052,-3.0911,-3.0986,-3.0986,-3.0986,-3.0986,-3.0986,-3.0986,-3.0986,-3.0986,0.0,0.0,-3.0986,0.0,0.0,-3.1259,-3.1061,0.0,-3.1198,-3.1198,-3.1061,-3.1061,-3.1123,-3.1048,-3.1616,-3.3143,-3.3213,-3.363,-3.4514,-3.5335,-3.5479,-3.4861,-3.58,-3.6274,-3.6274,-3.6414,-3.6492,-3.6492,-3.6492,-3.6492,-3.6492,0.0,-3.6492,-3.6492,-3.6492,-3.6492,-3.6492,-3.6492,-3.6492,-3.6492,-3.6492,-3.6492,-3.6662,-3.7679,-3.8108,-3.8502,-3.9679,-4.007,-4.007,-4.007,-4.007,-4.0121,-4.0121,-4.0206,-4.0443,-4.1086,-4.1425,-4.1816,-4.2515,-4.37,-4.4674,-4.4907,-4.6127,-4.7342,-4.7512,-4.7915,-4.8208,-4.8267,-4.8306,-4.8306,-4.8306,-4.8306,-4.8306,-4.8306,-4.8306,-4.8306,-4.8306,-4.8306,-4.8306,-4.8306,-4.8344,-4.8364,-4.8364,-4.8837,-4.9114,-4.9114,-4.9044,-4.9259,-4.9828,-5.0059,-5.0358,-5.0702,-5.0702,-5.0702,-5.0702,-5.0702,-5.0702,-2.9704,-2.9792,-2.9856,-3.0292,-3.0368,-3.0444,-3.0761,-3.0911,-3.0986,-3.0836,-3.0911,-3.0986,-3.0986,-3.0986,-3.0986,-3.0986,0.0,-3.1468,-3.1061,-3.169,-3.1896,0.0,0.0,-3.1468,-3.1061,-3.0986,-3.0986,-3.0986,-3.0986,-3.1468,-3.2577,-3.2577,-3.2918,-3.3699,-3.4109,-3.438,-3.4447,-3.5059,-3.5608,-3.6196,-3.6274,-3.6414,-3.6492,-3.6492,-3.6492,-3.6492,0.0,-3.6492,-3.6492,-3.6492,-3.6492,-3.6492,-3.6492,-3.6492,-3.6492,-3.6492,-3.6492,-3.66,-3.7519,-3.801,-3.8463,-3.9312,-3.985,-4.007,-4.007,-4.007,-4.007,-4.007,-4.007,-4.0155,-4.051,-4.0899,-4.1288,-4.1714,-4.2586,-4.358,-4.4331,-4.5172,-4.6092,-4.7122,-4.753,-4.7875,-4.8208,-4.8286,-4.8306,-4.8306,-4.8306,-4.8306,-4.8306,-4.8306,-4.8306,-4.8306,-4.8306,-4.8306,-4.8306,-4.8306,-4.8306,-4.8306,-4.8586,-4.8763,-4.8763,-4.8996,-4.9295,-4.9664,-4.9949,-5.0272,-5.0643,-5.0683,-5.0702,-5.0702,-5.0702,-5.0702,-2.9465,-2.9691,-2.9869,-3.0228,-3.0368,-3.0444,-3.0685,-3.0911,-3.0986,-3.0773,-3.0911,-3.0986,-3.0986,-3.0986,0.0,-3.0986,-3.1468,-3.1676,-3.1048,-3.1955,-3.2245,-3.1123,-3.1468,-3.1603,-3.1048,-3.0986,-3.0986,-3.0986,-3.0986,-3.1334,-3.2074,-3.2074,-3.2362,-3.2932,-3.3073,-3.3422,-3.3754,-3.4109,-3.478,-3.58,-3.607,-3.6211,-3.6211,-3.6414,-3.6492,-3.6492,-3.6492,-3.6492,-3.6492,-3.6492,-3.6492,-3.6492,-3.6492,-3.6492,-3.6492,-3.6492,-3.6492,-3.6616,-3.7178,-3.7796,-3.8407,-3.9028,-3.9592,-4.007,-4.007,-4.007,-4.007,-4.007,-4.007,-4.007,-4.007,-4.051,-4.0933,-4.0933,-4.1595,-4.2466,-4.3425,-4.4075,-4.4939,-4.629,-4.698,-4.7464,-4.7893,-4.8111,-4.8229,-4.8267,-4.8286,-4.8267,-4.8306,-4.8306,-4.8306,-4.8306,-4.8306,-4.8306,-4.8306,-4.8306,-4.8306,-4.8306,-4.8306,-4.8306,-4.8306,-4.8604,-4.8963,-4.9405,-4.9746,-5.0155,-5.0603,-5.0643,-5.0683,-5.0702,-5.0702,-5.0702,-2.8976,-2.939,-2.9869,-3.0075,-3.0292,-3.052,-3.0911,-3.0986,-3.0986,-3.0986,-3.0986,-3.0986,-3.0986,-3.0986,-3.0986,-3.0986,-3.1048,-3.1048,-3.0986,0.0,-3.1123,-3.0986,-3.1061,-3.1061,-3.0986,-3.0986,-3.0986,-3.0986,-3.0986,-3.1334,-3.2074,-3.2074,-3.2146,-3.2146,-3.2861,-3.2932,-3.229,-3.2932,-3.3768,-3.4728,-3.5737,-3.5864,-3.5255,-3.6085,-3.6492,-3.6492,-3.6492,-3.6492,-3.6492,-3.6492,-3.6492,-3.6492,-3.6492,-3.6492,-3.6492,-3.6492,-3.6492,-3.6616,-3.7178,-3.7796,-3.8407,-3.9028,-3.9592,-4.007,-4.007,-4.007,-4.007,-4.007,-4.007,-4.007,-4.007,-4.0121,-4.0155,-4.0155,-4.073,-4.1288,-4.1391,-4.2912,-4.4301,-4.457,-4.5959,-4.7178,-4.7237,-4.7692,-4.8072,-4.8187,-4.8187,-4.8226,-4.8306,-4.8306,-4.8306,-4.8306,-4.8306,-4.8306,-4.8306,-4.8306,-4.8306,-4.8306,-4.8306,-4.8306,-4.8306,-4.8344,-4.8676,-4.9405,-4.9435,-4.9819,-5.0603,-5.0603,-5.0643,-5.0702,-5.0702,-5.0702,-2.8249,-2.8574,-2.89,-2.9378,-2.9605,-2.9769,-3.0291,-3.0609,-3.0761,-3.0672,-3.0836,-3.0986,-3.0986,0.0,-3.0986,-3.0986,-3.0986,-3.0986,-3.0986,-3.0986,-3.0986,-3.0986,-3.0986,-3.0986,-3.0986,-3.0986,-3.0986,-3.0986,-3.0986,-3.1123,-3.1394,-3.1394,-3.1394,-3.1394,-3.169,-3.1882,-3.2074,-3.2362,-3.2706,-3.3059,-3.4647,-3.527,-3.5109,-3.5928,-3.6352,-3.6492,-3.6352,-3.6352,-3.6492,-3.6492,-3.6492,-3.6492,-3.6492,-3.6492,-3.6492,-3.6492,-3.6492,-3.6554,-3.6785,-3.7238,-3.7796,-3.8026,-3.8463,-3.9065,-3.9418,-3.9523,-3.9644,-4.002,-4.007,-4.007,-4.007,-4.007,-4.007,-4.007,-4.029,-4.0629,-4.1102,-4.1783,-4.274,-4.4009,-4.4893,-4.5776,-4.6937,-4.7421,-4.7752,-4.8148,-4.8226,-4.8286,-4.8306,-4.8306,-4.8306,-4.8306,-4.8306,-4.8306,-4.8306,-4.8306,-4.8306,-4.8306,-4.8306,-4.8306,-4.8306,-4.8306,-4.8513,-4.9015,-4.9062,-4.9475,-5.0245,-5.0268,-5.044,-5.0702,-5.0702,-5.0702,-2.7673,-2.7971,-2.8197,-2.871,-2.8885,-2.906,-2.9378,-3.0049,-3.0533,-3.0444,-3.0672,-3.0911,-3.0986,-3.0986,0.0,0.0,-3.0986,-3.0986,-3.0986,-3.0986,-3.0986,-3.0986,-3.0986,-3.0986,-3.0986,-3.0986,-3.0986,-3.0986,-3.0986,-3.0986,-3.0986,-3.0986,-3.0986,-3.0986,-3.0986,-3.1259,-3.1736,-3.1736,-3.1736,-3.1736,-3.3561,-3.4528,-3.4647,-3.5721,-3.6274,-3.6367,-3.6289,-3.6352,-3.6414,-3.6492,-3.6492,-3.6492,-3.6289,-3.6352,-3.6492,-3.6289,-3.6352,-3.6492,-3.6492,-3.6892,-3.7417,-3.7417,-3.7796,-3.8407,-3.8794,-3.9028,-3.9312,-3.9696,-3.9969,-4.007,-4.007,-4.007,-4.007,-4.007,-4.007,-4.0223,-4.073,-4.1035,-4.1595,-4.2997,-4.3854,-4.4724,-4.5947,-4.6757,-4.7378,-4.777,-4.805,-4.8169,-4.819,-4.8229,-4.8286,-4.8306,-4.8306,-4.8306,-4.8306,-4.8306,-4.8306,-4.8306,-4.8306,-4.8306,-4.8306,-4.8306,-4.8458,-4.8781,-4.8866,-4.9234,-4.9968,-4.9943,-5.0178,-5.0663,-5.0565,-5.0604,-2.7268,-2.767,-2.8097,-2.8097,-2.8255,-2.8341,-2.8109,-2.925,-3.0432,-3.0432,-3.0533,-3.0773,-3.0986,-3.0986,0.0,-3.0986,-3.0986,-3.0986,-3.0986,-3.0986,-3.0986,-3.0986,-3.0986,-3.0986,-3.0986,-3.0986,-3.0986,-3.0986,-3.0986,-3.0986,-3.0986,-3.0986,-3.0986,-3.0986,-3.0986,-3.0986,-3.0986,-3.0986,-3.0986,-3.0986,-3.2662,-3.3506,-3.3575,-3.5385,-3.6148,-3.6037,-3.6367,-3.6352,-3.6211,-3.6414,-3.6492,-3.6429,-3.5894,-3.6022,-3.6429,-3.5879,-3.6022,-3.6492,-3.6492,-3.6892,-3.7417,-3.7417,-3.7796,-3.8278,-3.8294,-3.8684,-3.9206,-3.9206,-3.9627,-4.007,-4.007,-4.007,-4.007,-4.007,-4.007,-4.007,-4.007,-4.0663,-4.1187,-4.1204,-4.2826,-4.4182,-4.4199,-4.5703,-4.6936,-4.7062,-4.7554,-4.7925,-4.7992,-4.8148,-4.8226,-4.8306,-4.8306,-4.8306,-4.8306,-4.8306,-4.8306,-4.8306,-4.8306,-4.8306,-4.8306,-4.8306,-4.8476,-4.8781,-4.8781,-4.9145,-4.991,-4.9693,-4.9929,-5.0582,-5.0313,-5.038,-2.6634,-2.6816,-2.7042,-2.7431,-2.7603,-2.7704,-2.8021,-2.8813,-2.9538,-3.0086,-3.0488,-3.0773,-3.0986,-3.0986,0.0,-3.0986,-3.0986,-3.0986,-3.0986,-3.0986,-3.0986,-3.0986,-3.0986,-3.0986,-3.0986,-3.0986,-3.0986,-3.0986,-3.0986,-3.0986,-3.0986,-3.0986,-3.0986,-3.0986,-3.0986,-3.0986,-3.0986,-3.0986,-3.0986,-3.0986,-3.2533,-3.3367,-3.3575,-3.5139,-3.5894,-3.5973,-3.5958,-3.5958,-3.61,-3.6211,-3.6352,-3.6492,-3.6289,-3.6352,-3.6492,-3.6289,-3.6352,-3.6492,-3.6492,-3.6616,-3.6785,-3.6785,-3.6892,-3.7103,-3.7519,-3.8067,-3.8629,-3.9082,-3.9627,-4.007,-4.007,-4.007,-4.007,-4.007,-4.007,-4.007,-4.007,-4.0257,-4.0578,-4.1102,-4.1698,-4.2535,-4.3975,-4.5054,-4.6021,-4.6972,-4.7621,-4.797,-4.7992,-4.8148,-4.8187,-4.8226,-4.8286,-4.8306,-4.8306,-4.8306,-4.8306,-4.8306,-4.8306,-4.8306,-4.8306,-4.8306,-4.8344,-4.8439,-4.8439,-4.8711,-4.9221,-4.9227,-4.9589,-5.0249,-5.0225,-5.038,-2.6314,-2.6533,-2.6609,-2.6866,-2.7024,-2.7183,-2.7594,-2.8155,-2.8805,-2.9344,-2.9799,-3.0186,-3.0485,-3.0755,0.0,-3.0986,-3.0986,-3.0986,-3.0986,-3.0986,-3.0986,-3.0986,-3.0986,-3.0986,-3.0986,-3.0986,-3.0986,-3.0986,-3.0986,-3.0986,-3.0986,-3.0986,-3.0986,-3.0986,-3.0986,-3.0986,-3.0986,-3.0986,-3.0986,-3.0986,-3.216,-3.2861,-3.3003,-3.4861,-3.5752,-3.5894,-3.5831,-3.5894,-3.6037,-3.6148,-3.6148,-3.6085,-3.5958,-3.5879,-3.5879,-3.5879,-3.6022,-3.6211,-3.6429,-3.6492,-3.6492,-3.6492,-3.6492,-3.6554,-3.6952,-3.746,-3.8026,-3.8351,-3.9082,-3.9747,-3.9747,-3.9918,-4.007,-4.007,-4.007,-4.007,-4.007,-4.007,-4.0206,-4.0679,-4.1001,-4.168,-4.3202,-4.4177,-4.522,-4.6489,-4.7371,-4.7888,-4.7929,-4.805,-4.8148,-4.8187,-4.8247,-4.8306,-4.8306,-4.8306,-4.8306,-4.8306,-4.8306,-4.8306,-4.8306,-4.8306,-4.8306,-4.8306,-4.8306,-4.8477,-4.8847,-4.8869,-4.9214,-4.9891,-4.9949,-5.014,-2.6094,-2.6452,-2.6533,-2.6533,-2.6589,-2.6726,-2.6943,-2.7455,-2.8031,-2.8286,-2.8743,-2.9285,-2.9654,-3.018,-3.0631,-3.0908,-3.0908,-3.0934,-3.0973,-3.0986,-3.0986,-3.0986,-3.0986,-3.0986,-3.0986,-3.0986,-3.0986,-3.0986,-3.0986,-3.0986,-3.0986,-3.0986,-3.0986,-3.0986,-3.0986,-3.0986,-3.0986,-3.0986,-3.0986,-3.0986,-3.1736,-3.2074,-3.2146,-3.4432,-3.5479,-3.5479,-3.5688,-3.5767,-3.5767,-3.5879,-3.5657,-3.519,-3.4942,-3.481,-3.481,-3.481,-3.5139,-3.5688,-3.6211,-3.6429,-3.6492,-3.6414,-3.6492,-3.6492,-3.6429,-3.6892,-3.7417,-3.7417,-3.8254,-3.9152,-3.9152,-3.9592,-4.002,-4.002,-4.007,-4.007,-4.007,-4.007,-4.007,-4.007,-4.0629,-4.1339,-4.2066,-4.3253,-4.4558,-4.5877,-4.6954,-4.7657,-4.7801,-4.7907,-4.805,-4.8148,-4.8247,-4.8267,-4.8267,-4.8306,-4.8306,-4.8306,-4.8306,-4.8306,-4.8306,-4.8306,-4.8306,-4.8306,-4.8306,-4.8458,-4.8746,-4.8569,-4.8872,-4.9569,-4.9551,-4.9781,-2.537,-2.6025,-2.6533,-2.6533,-2.6521,-2.6521,-2.6602,-2.671,-2.7082,-2.7864,-2.8316,-2.8698,-2.9073,-2.9248,-2.9554,-3.0168,-3.032,-3.0477,-3.0921,-3.0986,-3.0986,-3.0986,-3.0986,-3.0986,-3.0986,-3.0986,-3.0986,-3.0986,-3.0986,0.0,-3.0986,-3.0986,-3.0986,-3.0986,-3.0986,-3.0986,-3.0986,-3.0986,-3.0986,0.0,-3.1736,-3.2074,-3.2146,-3.3199,-3.3768,-3.3768,-3.3768,-3.3905,-3.4056,-3.4041,-3.4095,-3.4081,-3.4027,-3.3959,-3.3959,-3.3959,-3.4499,-3.5255,-3.5385,-3.5864,-3.6429,-3.6022,-3.6163,-3.6429,-3.6022,-3.6554,-3.7417,-3.7417,-3.7911,-3.8518,-3.8518,-3.8957,-3.9365,-3.9365,-3.9747,-4.007,-4.007,-4.007,-4.007,-4.007,-4.0206,-4.0561,-4.1305,-4.2467,-4.3952,-4.5807,-4.666,-4.7062,-4.7107,-4.7597,-4.7925,-4.7984,-4.8126,-4.8226,-4.8226,-4.8286,-4.8306,-4.8306,-4.8306,-4.8306,-4.8306,-4.8306,-4.8306,-4.8306,-4.8306,-4.8344,-4.8402,-4.8476,-4.875,-4.9233,-4.9259,-4.9608,-2.4409,-2.4992,-2.5429,-2.5816,-2.6245,-2.6533,-2.6533,-2.6533,-2.6609,-2.7107,-2.7601,-2.7982,-2.8267,-2.8556,-2.8911,-2.9509,-2.9502,-2.9606,-2.9965,-3.0177,-3.0271,-3.0271,-3.0517,-3.0672,-3.0672,-3.0672,-3.0672,-3.0672,0.0,-3.0672,-3.0672,-3.0836,-3.0836,-3.0836,-3.0911,-3.0986,-3.0986,-3.0986,-3.0986,-3.0986,-3.1394,-3.1603,-3.1603,-3.2791,-3.3297,-3.3213,-3.3297,-3.3367,-3.3367,-3.3437,-3.3367,-3.3213,-3.3269,-3.3129,-3.3003,-3.3616,-3.4177,-3.4662,-3.5124,-3.5529,-3.5879,-3.5479,-3.5494,-3.5752,-3.5688,-3.6117,-3.6616,-3.6892,-3.7401,-3.7854,-3.7854,-3.8294,-3.8849,-3.9135,-3.9644,-4.007,-4.007,-4.007,-4.007,-4.007,-4.007,-4.0307,-4.1068,-4.2535,-4.3955,-4.5055,-4.5919,-4.6519,-4.6519,-4.7107,-4.7511,-4.7511,-4.7888,-4.813,-4.8187,-4.8208,-4.8286,-4.8306,-4.8306,-4.8306,-4.8306,-4.8306,-4.8306,-4.8306,-4.8306,-4.8306,-4.8306,-4.8363,-4.8569,-4.8887,-4.9052,-4.9453,-2.3379,-2.3975,-2.448,-2.53,-2.5886,-2.6314,-2.6452,-2.6383,-2.6314,-2.6452,-2.6816,-2.7213,-2.7399,-2.7779,-2.8265,-2.8724,-2.8679,-2.8646,-2.8879,-2.9074,-2.9234,-2.9308,-2.9794,-3.0139,-3.0215,-3.0304,-3.0368,-3.0368,0.0,-3.0368,-3.0368,-3.0533,-3.0698,-3.0698,-3.0836,-3.0986,-3.0986,-3.0986,-3.0986,-3.0986,-3.0986,-3.0986,-3.1061,-3.2461,-3.2946,-3.2804,-3.3017,-3.2946,-3.2804,-3.3017,-3.2818,-3.2417,-3.2533,-3.2318,-3.2055,-3.3171,-3.3659,-3.3919,-3.4647,-3.4978,-3.5059,-3.4662,-3.4595,-3.4728,-3.5139,-3.5415,-3.5688,-3.6085,-3.6693,-3.7178,-3.7178,-3.7679,-3.8294,-3.8756,-3.9365,-3.985,-4.007,-4.007,-4.007,-4.007,-4.007,-4.0307,-4.1068,-4.2603,-4.3752,-4.401,-4.5024,-4.581,-4.595,-4.6613,-4.7062,-4.7062,-4.7603,-4.801,-4.8148,-4.8187,-4.8226,-4.8267,-4.8306,-4.8306,-4.8306,-4.8306,-4.8306,-4.8306,-4.8306,-4.8306,-4.8306,-4.8306,-4.8382,-4.8605,-4.8887,-4.929,-2.2809,-2.3986,-2.53,-2.6164,-2.5886,-2.5664,0.0,0.0,-2.5664,0.0,-2.6584,-2.6634,-2.6759,-2.6891,-2.7163,-2.7952,-2.8029,-2.8209,-2.8697,-2.8208,-2.8099,-2.8733,-2.8749,-2.8925,-2.9563,-3.0074,-3.0368,0.0,-3.0368,-3.0368,-3.0368,-3.0444,-3.0533,-3.0698,-3.0698,-3.0849,-3.0986,-3.0986,-3.0986,-3.0986,-3.0986,-3.0986,-3.0986,-3.1198,-3.1334,-3.1272,-3.1334,-3.1334,-3.1272,-3.1334,-3.1272,-3.1198,-3.1272,-3.1198,-3.1198,-3.1334,-3.1969,-3.2648,-3.2777,-3.3325,-3.3808,-3.3339,-3.3478,-3.3808,-3.3408,-3.4109,-3.5008,-3.5073,-3.5737,-3.6383,-3.6383,-3.6921,-3.7519,-3.7637,-3.8124,-3.8849,-3.985,-4.007,-4.007,-4.007,-4.007,-4.0307,-4.1068,-4.1408,-4.2036,-4.3325,-4.4043,-4.4681,-4.5321,-4.631,-4.6908,-4.6908,-4.7511,-4.7902,-4.7943,-4.8087,-4.8187,-4.8226,-4.8286,-4.8306,-4.8306,-4.8306,-4.8306,-4.8306,-4.8306,-4.8306,-4.8306,-4.8306,-4.8363,-4.8532,-4.8642,-4.9015,-2.2681,-2.3694,-2.485,-2.5594,-2.5886,-2.6107,-2.6383,-2.6245,-2.6094,-2.6452,-2.6533,-2.6521,-2.6589,-2.6589,-2.6746,-2.7194,-2.7163,-2.7101,-2.6976,-2.6832,-2.6883,-2.7174,-2.7409,-2.789,-2.8609,-2.8984,0.0,0.0,-2.9593,-2.9732,-3.0062,-3.0152,-3.0305,-3.0381,-3.0546,-3.0773,-3.0849,-3.0911,-3.0986,-3.0986,-3.0986,-3.0986,-3.0986,-3.0986,-3.0986,-3.0986,-3.0986,-3.0986,-3.0986,-3.0986,-3.0986,-3.0986,-3.0986,-3.0986,-3.1061,-3.1468,-3.1882,-3.229,-3.2461,-3.2818,-3.3087,-3.2605,-3.2591,-3.2804,-3.2861,-3.3283,-3.3837,-3.4163,-3.4861,-3.5464,-3.5593,-3.6165,-3.686,-3.7282,-3.7621,-3.801,-3.8903,-3.9348,-3.9696,-4.002,-4.007,-4.0189,-4.051,-4.0933,-4.1424,-4.2083,-4.3076,-4.3883,-4.419,-4.5251,-4.6098,-4.6406,-4.6999,-4.7493,-4.7907,-4.8068,-4.813,-4.8247,-4.8267,-4.8306,-4.8306,-4.8306,-4.8306,-4.8306,-4.8306,-4.8306,-4.8306,-4.8306,-4.8363,-4.8513,-4.8569,-4.8885,-2.222,-2.2947,-2.3588,-2.4707,-2.5288,-2.5581,0.0,0.0,-2.5664,0.0,-2.5873,-2.5873,-2.5873,-2.6233,-2.6383,-2.607,-2.6151,-2.5943,-2.5346,-2.5265,-2.538,-2.5587,-2.5879,-2.6423,-2.7201,-2.741,0.0,0.0,-2.8098,-2.8282,-2.8778,-2.908,-2.9309,-2.9541,-2.9986,-3.0381,-3.0609,-3.0836,-3.0911,-3.0986,-3.0986,-3.0986,-3.0986,-3.0986,-3.0986,-3.0986,-3.0986,-3.0986,-3.0986,-3.0986,-3.0986,-3.0986,-3.0986,-3.0986,-3.1061,-3.1603,-3.1809,-3.1882,-3.2187,-3.2273,-3.22,-3.1909,-3.185,-3.1909,-3.2318,-3.2519,-3.2791,-3.3185,-3.3891,-3.4595,-3.4647,-3.5255,-3.5991,-3.66,-3.6921,-3.7342,-3.8294,-3.8865,-3.9365,-3.9969,-4.007,-4.007,-4.007,-4.0544,-4.0984,-4.117,-4.2151,-4.2997,-4.3369,-4.4331,-4.5252,-4.5833,-4.6406,-4.6981,-4.7524,-4.777,-4.7951,-4.8072,-4.8229,-4.8306,-4.8306,-4.8306,-4.8306,-4.8306,-4.8306,-4.8306,-4.8306,-4.8306,-4.8363,-4.8457,-4.855,-4.8783,-2.0931,-2.14,-2.1694,-2.3661,-2.3526,-2.3169,0.0,0.0,-2.335,-2.4047,-2.4181,-2.4181,-2.4181,-2.5499,-2.6013,-2.448,-2.4862,-2.5087,-2.4264,-2.3582,-2.3383,-2.4082,-2.4082,-2.431,-2.5084,-2.5599,0.0,0.0,-2.6,-2.5935,-2.6035,-2.6433,-2.716,-2.8191,-2.8692,-2.9431,-3.0444,-3.0609,-3.0849,-3.0986,-3.0986,-3.0986,-3.0986,-3.0986,-3.0986,-3.0986,-3.0986,-3.0986,-3.0986,-3.0986,-3.0986,-3.0986,-3.0986,-3.0986,-3.0986,-3.1048,-3.1061,-3.1061,-3.1061,-3.1061,-3.1061,-3.1061,-3.1061,-3.1061,-3.1061,-3.1603,-3.2146,-3.2146,-3.2861,-3.3575,-3.3575,-3.4259,-3.4942,-3.5008,-3.5559,-3.6616,-3.8684,-3.9206,-3.9365,-3.9969,-4.007,-4.007,-4.007,-4.0104,-4.0375,-4.1085,-4.1271,-4.183,-4.3234,-4.3886,-4.4527,-4.5269,-4.5968,-4.6358,-4.6406,-4.7107,-4.7554,-4.7554,-4.8032,-4.8306,-4.8306,-4.8306,-4.8306,-4.8306,-4.8306,-4.8306,-4.8306,-4.8306,-4.8306,-4.8306,-4.8457,-4.8714,-2.07,-2.1161,-2.1552,-2.3283,-2.3975,-2.4276,-2.4564,-2.4933,-2.5158,-2.4933,-2.4862,-2.4576,-2.3559,-2.4276,-2.4767,-2.4181,-2.4337,-2.4276,-2.3497,-2.3139,-2.3065,-2.335,-2.3356,-2.3605,-2.4322,0.0,0.0,0.0,0.0,-2.5466,-2.5789,-2.5985,-2.6233,-2.6618,-2.7432,-2.8473,-2.983,-2.9905,-3.0173,-3.0596,-3.0596,-3.0685,-3.0849,-3.0849,-3.0911,-3.0986,-3.0986,-3.0986,-3.0986,-3.0986,-3.0986,-3.0986,-3.0986,-3.0986,-3.0986,-3.0986,-3.0986,-3.0986,-3.0986,-3.0986,-3.0986,-3.0986,-3.0986,-3.0986,-3.0986,-3.1198,-3.1394,-3.1394,-3.1955,-3.272,-3.3367,-3.4124,-3.4876,-3.5494,-3.5831,-3.6321,-3.7472,-3.8502,-3.9259,-3.947,-3.985,-4.007,-4.007,-4.007,-4.0172,-4.0443,-4.0899,-4.1559,-4.2574,-4.326,-4.409,-4.5164,-4.5494,-4.5868,-4.6406,-4.6707,-4.7089,-4.7524,-4.7733,-4.7995,-4.8306,-4.8306,-4.8306,-4.8306,-4.8306,-4.8306,-4.8306,-4.8306,-4.8306,-4.8306,-4.8457,-4.8569,-1.969,-2.0324,-2.0884,-2.2339,-2.3169,-2.3621,-2.3694,-2.4276,-2.4636,-2.4131,-2.407,-2.3779,-2.2767,-2.2968,-2.3327,-2.3327,-2.3379,-2.3243,-2.2692,-2.2628,-2.2628,-2.2628,-2.2628,-2.2681,-2.301,0.0,0.0,0.0,0.0,0.0,-2.4446,-2.4614,-2.5013,-2.5712,-2.6637,-2.7804,-2.9094,-2.9167,-2.9359,-2.9804,-2.9804,-2.9892,-3.0054,-3.0323,-3.0475,-3.0624,-3.0895,-3.0986,-3.0986,-3.0986,-3.0986,-3.0986,-3.0986,-3.0986,-3.0986,-3.0986,-3.0986,-3.0986,-3.0986,-3.0986,-3.0986,-3.0986,-3.0986,-3.0986,-3.0986,-3.0986,-3.0986,-3.0986,-3.1529,-3.2218,-3.2861,-3.3768,-3.4728,-3.5653,-3.5846,-3.6022,-3.6415,-3.7515,-3.8557,-3.9011,-3.9401,-3.9782,-4.007,-4.007,-4.007,-4.007,-4.051,-4.1102,-4.183,-4.2574,-4.3464,-4.4555,-4.4917,-4.5337,-4.5885,-4.6165,-4.6484,-4.699,-4.723,-4.7506,-4.7834,-4.7995,-4.8093,-4.8093,-4.821,-4.8306,-4.8306,-4.8306,-4.8306,-4.8306,-4.8401,-4.8513,0.0,0.0,0.0,-2.0809,-2.0974,-2.0896,-2.1128,-2.1349,-2.1502,-2.1502,-2.1655,-2.1797,-2.1721,-2.1731,-2.1731,-2.1721,-2.1832,-2.1897,-2.1797,-2.1731,-2.1731,-2.1731,-2.1731,-2.1492,0.0,0.0,0.0,0.0,-2.1405,-2.1731,-2.1807,-2.2232,-2.3431,-2.5501,-2.634,-2.7262,-2.8277,-2.835,-2.8435,-2.8618,-2.869,-2.869,-2.8715,-2.946,-2.9779,-2.9818,-3.0611,-3.0934,-3.0934,-3.0973,-3.0986,-3.0986,-3.0986,-3.0986,-3.0986,-3.0986,-3.0986,-3.0986,-3.0986,-3.0986,-3.0986,-3.0986,-3.0986,-3.0986,-3.0986,-3.0986,-3.0986,-3.0986,-3.1542,-3.2074,-3.2146,-3.3199,-3.4528,-3.5279,-3.5589,-3.5688,-3.5688,-3.629,-3.7235,-3.858,-3.8854,-3.9139,-3.9901,-4.007,-4.007,-4.0087,-4.007,-4.0358,-4.1119,-4.183,-4.2574,-4.3335,-4.4224,-4.4793,-4.4776,-4.5442,-4.5868,-4.59,-4.6501,-4.6863,-4.6908,-4.7335,-4.7591,-4.7591,-4.8035,-4.8306,-4.8306,-4.8306,-4.8306,-4.8306,-4.8306,-4.8605,-1.7025,0.0,0.0,0.0,0.0,0.0,-2.0787,-2.1456,-2.206,-2.2134,-2.222,-2.1832,-2.0682,-2.0547,-2.0722,-2.0682,-2.0991,-2.1165,-2.1175,-2.0692,-2.045,-2.045,-2.045,-2.0372,0.0,0.0,0.0,0.0,-2.0304,-2.0615,-2.1098,-2.1691,-2.2505,-2.3674,-2.3974,-2.4654,-2.5917,-2.6457,-2.6944,-2.7373,-2.8011,-2.8315,-2.846,-2.8686,-2.8835,-2.9006,-2.9233,-2.9443,-2.9652,-3.0559,-3.0986,-3.0986,-3.0986,-3.0986,-3.0986,-3.0986,-3.0986,-3.0986,-3.0986,-3.0986,-3.0986,-3.0986,-3.0986,-3.0986,-3.0986,-3.0986,-3.0986,-3.0986,-3.1123,-3.1542,-3.2648,-3.4002,-3.5198,-3.5439,-3.5554,-3.5554,-3.5554,-3.5733,-3.6196,-3.7235,-3.7806,-3.8358,-3.9086,-3.9262,-3.9437,-4.002,-4.007,-4.0358,-4.1119,-4.183,-4.2574,-4.3335,-4.4169,-4.4682,-4.4776,-4.4978,-4.5337,-4.5868,-4.6049,-4.6406,-4.6863,-4.7335,-4.7591,-4.7591,-4.8035,-4.8306,-4.8306,-4.8306,-4.8306,-4.8306,-4.8401,-4.8765,-1.6527,-1.7261,-1.7908,-1.7997,0.0,0.0,-1.9524,-2.012,-2.0574,0.0,-2.0797,-2.0488,-1.9562,-1.9502,-1.959,-1.9562,-1.958,-1.9913,-2.0789,-2.0304,-1.9904,-1.9904,-1.9904,-1.9825,0.0,-1.9747,-1.9825,-1.9529,-1.9747,-2.006,-2.0459,-2.0857,-2.1461,-2.2521,-2.2596,-2.3249,-2.4641,-2.5008,-2.5453,-2.5737,-2.6202,-2.6651,-2.7108,-2.7404,-2.7805,-2.8273,-2.8587,-2.8762,-2.8944,-2.9835,-3.0338,-3.066,-3.0895,-3.0986,-3.0986,-3.0986,-3.0986,-3.0986,-3.0986,-3.0986,-3.0986,-3.0986,-3.0986,-3.0986,-3.0986,-3.0986,-3.0986,-3.0986,-3.1408,-3.2173,-3.3353,-3.4558,-3.5504,-3.5504,-3.5504,-3.5504,-3.5539,-3.5604,-3.5831,-3.6646,-3.7115,-3.7632,-3.8398,-3.8799,-3.9172,-3.9627,-3.9969,-4.024,-4.0679,-4.1644,-4.2455,-4.2912,-4.3927,-4.4626,-4.4737,-4.4776,-4.4961,-4.539,-4.5546,-4.5885,-4.6454,-4.7008,-4.7421,-4.7591,-4.8035,-4.8306,-4.8306,-4.8306,-4.8306,-4.8306,-4.8514,-4.8919,-1.6198,-1.7017,-1.7585,-1.7674,-1.7674,0.0,-1.7836,-1.79,-1.7971,-1.8221,-1.8284,-1.8266,-1.8275,-1.8275,-1.8266,-1.8089,-1.773,-1.8158,-2.0226,-1.9982,-1.9502,-1.9502,-1.9502,-1.9353,-1.8834,-1.9204,-1.9362,-1.8754,-1.9362,-1.9825,-1.9816,-1.9982,-2.0672,-2.1962,-2.1886,-2.2478,-2.3745,-2.3818,-2.3891,-2.3891,-2.4036,-2.448,-2.517,-2.5841,-2.6562,-2.7251,-2.791,-2.8198,-2.827,-2.8477,-2.9125,-3.0012,-3.0594,-3.083,-3.0895,-3.0895,-3.0934,-3.0986,-3.0986,-3.0986,-3.0986,-3.0986,-3.0986,-3.0986,-3.0986,-3.0986,-3.0986,-3.0986,-3.2028,-3.3213,-3.3973,-3.4758,-3.5359,-3.5504,-3.5504,-3.5554,-3.5638,-3.5752,-3.5928,-3.6492,-3.6753,-3.7175,-3.7946,-3.8707,-3.9206,-3.9312,-3.9747,-4.007,-4.007,-4.1373,-4.2286,-4.2286,-4.3656,-4.4587,-4.4587,-4.4737,-4.4776,-4.4776,-4.5086,-4.5459,-4.5868,-4.6566,-4.7178,-4.7591,-4.8053,-4.8306,-4.8306,-4.8306,-4.8306,-4.8306,-4.8658,-4.9015,-1.5054,-1.5891,-1.6468,0.0,-1.5394,0.0,-1.6698,-1.6175,-1.5913,-1.7658,-1.722,-1.6472,-1.6257,-1.6398,-1.6114,-1.4828,-1.5277,-1.6406,-1.8078,-1.7772,-1.7286,-1.7286,-1.7286,0.0,-1.7139,-1.7294,-1.7294,-1.7139,-1.8407,-1.9274,-1.9423,-2.0537,-2.1415,-2.1863,-2.1395,-2.1231,-2.1527,-2.2113,-2.2403,-2.2403,-2.3588,-2.4192,-2.4348,-2.4502,-2.462,-2.4776,-2.4954,-2.5073,-2.5253,-2.5803,-2.7261,-2.9217,-2.949,-2.9902,-3.0307,-3.0307,-3.0594,-3.0986,-3.0986,-3.0986,-3.0986,-3.0986,-3.0986,-3.0986,-3.0986,-3.0986,-3.0986,-3.0986,-3.1603,-3.2506,-3.3213,-3.3973,-3.4691,-3.5359,-3.5504,-3.5504,-3.5554,-3.5894,-3.6305,-3.6415,-3.6662,-3.7294,-3.8509,-3.8854,-3.9156,-3.985,-4.002,-4.007,-4.007,-4.1373,-4.2286,-4.2286,-4.3656,-4.4587,-4.4587,-4.4626,-4.4682,-4.4776,-4.523,-4.5632,-4.5819,-4.6835,-4.7407,-4.7536,-4.8014,-4.8306,-4.8306,-4.8306,-4.8306,-4.8306,-4.873,-4.9099,0.0,0.0,0.0,-1.3419,0.0,0.0,0.0,-1.4538,-1.4371,-1.5448,-1.5191,-1.4692,-1.4545,-1.38,-1.3342,-1.3471,-1.3193,-1.3348,-1.4664,-1.5365,-1.5718,-1.5718,-1.5718,0.0,-1.5718,-1.5718,-1.5801,-1.6214,-1.7196,-1.7925,-1.7997,-1.8718,-1.959,-2.0537,-2.0294,-2.0537,-2.1328,-2.17,-2.1756,-2.1451,-2.251,-2.3021,-2.3073,-2.3401,-2.3768,-2.412,-2.4492,-2.4564,-2.4276,-2.5122,-2.5961,-2.684,-2.799,-2.8686,-2.9039,-2.9714,-3.0233,-3.0594,-3.0895,-3.0986,-3.0986,-3.0986,-3.0986,-3.0986,-3.0986,-3.0986,-3.0986,-3.0986,-3.1529,-3.229,-3.3003,-3.3768,-3.4528,-3.5294,-3.5504,-3.5504,-3.5604,-3.5831,-3.6228,-3.6951,-3.7235,-3.7573,-3.8246,-3.8761,-3.9172,-3.9575,-3.9918,-4.007,-4.007,-4.1373,-4.2286,-4.2286,-4.3656,-4.4587,-4.4587,-4.4797,-4.4998,-4.5142,-4.57,-4.6231,-4.6578,-4.7204,-4.7645,-4.7911,-4.8151,-4.8306,-4.8306,-4.8306,-4.8306,-4.8306,-4.8885,-4.924,0.0,0.0,0.0,0.0,0.0,-1.251,0.0,0.0,0.0,0.0,0.0,0.0,0.0,0.0,0.0,0.0,0.0,0.0,0.0,-1.1935,0.0,-1.384,-1.4105,0.0,-1.4189,-1.4448,-1.4789,-1.5206,-1.6049,-1.6558,-1.655,-1.6722,-1.7513,-1.9097,-1.9186,-1.9894,-2.1252,-2.1415,-2.1262,-2.0867,-2.1415,-2.1787,-2.1973,-2.2531,-2.3202,-2.3902,-2.442,-2.442,-2.4181,-2.4838,-2.4767,-2.4562,-2.6505,-2.7359,-2.7715,-2.901,-2.971,-3.0116,-3.0585,-3.082,-3.0986,-3.0911,-3.0986,-3.0986,-3.0986,-3.0986,-3.0986,-3.0986,-3.1394,-3.2087,-3.2791,-3.3561,-3.4327,-3.5067,-3.5359,-3.5554,-3.5638,-3.5752,-3.6165,-3.7294,-3.7764,-3.7994,-3.8165,-3.8849,-3.9312,-3.9365,-3.9799,-4.007,-4.007,-4.1255,-4.2134,-4.2269,-4.3521,-4.4456,-4.4703,-4.5072,-4.5407,-4.5614,-4.6213,-4.6781,-4.7255,-4.7548,-4.7856,-4.8306,-4.8306,-4.8306,-4.8306,-4.8306,-4.8306,-4.8306,-4.8982,-4.9314,0.0,0.0,0.0,0.0,-1.1381,0.0,0.0,0.0,-1.1408,-1.0898,0.0,0.0,0.0,0.0,0.0,0.0,0.0,0.0,-0.5245,-0.6028,-0.777,-1.0747,-1.1798,-1.2328,0.0,-1.3613,-1.4223,-1.3724,-1.4963,-1.5861,-1.6093,-1.6822,-1.7713,-1.8683,-1.8948,-1.9116,-1.9353,-2.0089,-2.0498,-2.0644,-2.1272,-2.1655,-2.1797,-2.1883,-2.2402,-2.3065,-2.2467,-2.2894,-2.4047,-2.3497,-2.3632,-2.4276,-2.5525,-2.6316,-2.6915,-2.7786,-2.8808,-2.9818,-2.9674,-3.0258,-3.0986,-3.0773,-3.0849,-3.0986,-3.0986,-3.0986,-3.0986,-3.0986,-3.1048,-3.1259,-3.2015,-3.2791,-3.3492,-3.4245,-3.4986,-3.5504,-3.5504,-3.5958,-3.6368,-3.6554,-3.7589,-3.8684,-3.9504,-3.9729,-3.9884,-3.9969,-4.007,-4.007,-4.007,-4.0815,-4.1576,-4.2219,-4.3047,-4.4011,-4.511,-4.525,-4.5511,-4.6,-4.6548,-4.6908,-4.6936,-4.7585,-4.8053,-4.8306,-4.8306,-4.8306,-4.8306,-4.8306,-4.8306,-4.8306,-4.8982,-4.9283,0.0,0.0,0.0,0.0,0.0,0.0,-0.9365,0.0,-0.7964,0.0,0.0,0.0,0.0,0.0,0.0,0.0,-0.4535,0.0,0.0,0.0,-0.5112,0.0,0.0,0.0,0.0,0.0,0.0,0.0,-1.3178,-1.4015,-1.5039,-1.5032,-1.5674,-1.7058,-1.7228,-1.7721,-1.8771,-1.9097,-1.9432,-1.9678,-2.0304,-2.0779,-2.1108,-2.1502,-2.1883,-2.2327,-2.2478,-2.2617,-2.2745,-2.2916,-2.2916,-2.2894,-2.3841,-2.498,-2.623,-2.7284,-2.8139,-2.8782,-2.9305,-2.9764,-3.017,-3.0581,-3.0773,-3.0849,-3.0986,-3.0986,-3.0986,-3.0986,-3.0986,-3.1198,-3.1869,-3.2362,-3.272,-3.3492,-3.3919,-3.4288,-3.4691,-3.4993,-3.5434,-3.6228,-3.689,-3.7515,-3.8407,-3.9329,-3.9901,-4.0003,-4.0037,-4.0221,-4.0483,-4.1133,-4.2036,-4.3074,-4.3817,-4.468,-4.5697,-4.6049,-4.6358,-4.666,-4.7222,-4.7585,-4.7645,-4.7951,-4.8169,-4.8306,-4.8306,-4.8306,-4.8306,-4.8306,-4.8306,-4.8306,-4.8982,-4.9314,-0.528,0.0,0.0,0.0,0.0,0.0,0.0,0.0,0.0,0.0,0.0,0.0,0.0,0.0,0.0,0.0,0.0,-0.062,0.0,-0.1056,0.0,0.0,0.0,0.0,0.0,0.0,0.0,0.0,0.0,-1.2225,-1.3704,-1.3717,-1.4216,-1.5523,-1.5928,-1.674,-1.7794,-1.8204,-1.8541,-1.8789,-1.9265,-1.9825,-2.0391,-2.0867,-2.1405,-2.2025,-2.2402,-2.2467,-2.2381,-2.2841,-2.2767,-2.2456,-2.3054,-2.4059,-2.5312,-2.6279,-2.6964,-2.7594,-2.8331,-2.881,-2.9151,-3.0037,-3.0126,-3.0037,-3.0672,-3.0672,-3.0508,-3.0836,-3.0911,-3.1048,-3.1676,-3.1942,-3.2218,-3.2791,-3.3213,-3.363,-3.4177,-3.4461,-3.4942,-3.5928,-3.6321,-3.66,-3.7235,-3.8446,-3.9382,-3.9592,-3.9747,-4.0054,-4.0514,-4.1091,-4.1974,-4.3476,-4.4069,-4.4931,-4.6222,-4.666,-4.6999,-4.7258,-4.7705,-4.801,-4.8148,-4.8187,-4.8208,-4.8306,-4.8306,-4.8306,-4.8306,-4.8306,-4.8306,-4.8306,-4.8881,-4.9209,0.0,0.0,0.0,-0.5351,0.0,0.0,0.0,0.0,-0.5149,0.0,0.0,0.0,0.0,0.0,0.0,0.2583,0.0,0.0,0.0,0.0,0.0,0.0,0.0,0.0,0.0,0.0,0.0,0.0,0.0,0.0,-1.198,-1.3529,-1.4391,-1.4482,-1.5869,-1.6363,-1.5779,-1.7253,-1.8149,-1.8301,-1.8381,-1.8939,-1.9904,-1.9982,-2.0827,-2.236,-2.1797,-2.2371,-2.3672,-2.3202,-2.3423,-2.4036,-2.4047,-2.4108,-2.4181,-2.4204,-2.5181,-2.6444,-2.6275,-2.6952,-2.805,-2.8909,-2.8585,-2.8243,-2.9871,-2.9806,-2.9406,-3.0457,-3.0698,-3.0773,-3.0986,-3.1529,-3.2074,-3.2146,-3.3199,-3.4245,-3.4312,-3.4905,-3.5504,-3.5504,-3.6022,-3.6492,-3.6662,-3.7354,-3.8092,-3.8799,-3.9119,-3.9418,-4.007,-4.0138,-4.0899,-4.2888,-4.3128,-4.4178,-4.6674,-4.6908,-4.7107,-4.7657,-4.7819,-4.7925,-4.7992,-4.813,-4.8208,-4.8306,-4.8306,-4.8306,-4.8306,-4.8306,-4.8306,-4.8306,-4.864,-4.8816,0.0,0.0,-0.1787,-0.3034,0.0,0.0,0.0,0.0,0.0,0.0,0.0,0.0,0.0,0.0,0.0,0.522,0.5829,0.0,0.0,0.0,0.0,0.0,0.0,0.0,0.0,0.0,0.0,0.0,0.0,0.0,0.0,-1.0433,-1.1209,-1.276,-1.3334,-1.4015,-1.4803,-1.5809,-1.6378,-1.6593,-1.7009,-1.7819,-1.8859,-1.8859,-1.9562,-2.074,-2.0527,-2.1155,-2.2231,-2.2101,-2.2241,-2.2606,-2.2606,-2.2606,-2.267,-2.3756,-2.4441,-2.4976,-2.5529,-2.6305,-2.7117,-2.7794,-2.7867,-2.7775,-2.8493,-2.8912,-2.916,-2.9561,-3.005,-3.0533,-3.0773,-3.0986,-3.1185,-3.1334,-3.216,-3.2989,-3.3492,-3.4192,-3.4839,-3.5424,-3.5683,-3.5861,-3.591,-3.6321,-3.7131,-3.8723,-3.9082,-3.9506,-4.0434,-4.058,-4.134,-4.3358,-4.3863,-4.4865,-4.672,-4.7214,-4.7511,-4.7699,-4.7759,-4.7824,-4.7992,-4.8032,-4.813,-4.8306,-4.8306,-4.8306,-4.8306,-4.8306,-4.8306,-4.8306,-4.8439,-4.8586,-0.1877,-0.1252,0.0,-0.143,-0.0447,0.0,-0.009,0.0,0.0808,0.0,0.0,0.0,0.0,0.0,0.0,0.6981,0.8186,0.0,0.0,1.1363,0.0,0.0,0.0,0.0,0.0,0.0,0.0,0.0,0.0,0.0,0.0,0.0,-0.9557,-1.0849,-1.1712,-1.2571,-1.3432,-1.4475,-1.5068,-1.5206,-1.5711,-1.6437,-1.7407,-1.7658,-1.8301,-1.9265,-1.9265,-1.9904,-2.0789,-2.0779,-2.0944,-2.1415,-2.1415,-2.1328,-2.1318,-2.2723,-2.3475,-2.3807,-2.4619,-2.5239,-2.5814,-2.6473,-2.6746,-2.7058,-2.7775,-2.8438,-2.901,-2.9799,-3.0121,-3.0471,-3.1036,-3.0919,-3.0609,-3.0849,-3.1468,-3.2218,-3.3003,-3.3768,-3.4528,-3.5344,-3.5504,-3.5504,-3.5539,-3.5973,-3.6738,-3.8051,-3.8629,-3.9226,-4.0103,-4.0417,-4.1237,-4.2945,-4.3704,-4.4837,-4.672,-4.7214,-4.7511,-4.7699,-4.7759,-4.7842,-4.7988,-4.801,-4.8346,-4.9032,-4.854,-4.854,-4.9108,-4.8561,-4.8306,-4.8306,-4.8306,-4.8402]}]]